[[[{"header":{"parameterUnit":"kt","parameterCategory":2,"dx":1,"dy":1,"la1":29.587661999999998,"la2":31.0,"lo1":-88.76705300000003,"lo2":-86.6583820000003,"nx":115,"ny":88,"refTime":"2022-10-17T06:00:00:Z","depth":0,"parameterNumber":1,"parameterNumberName":"U-component_of_WINDS"},"data":[8.3117,8.2751,8.2506,8.2135,8.176,8.1097,8.0326,7.9804,7.9306,7.9341,7.9807,8.0175,8.0474,7.9684,8.0255,8.1152,8.2391,8.2273,8.1981,8.182,8.1981,8.182,8.182,8.182,8.182,8.182,8.1631,8.1442,8.128,8.1252,8.1252,8.1062,8.1062,8.1358,8.1547,8.1358,8.133,8.1358,8.1273,8.0895,8.0738,7.9561,7.834,7.7522,7.6866,7.5884,7.5212,7.4861,7.4861,7.4685,7.471,7.4482,7.4306,7.3977,7.3824,7.3671,7.3671,7.3671,7.3467,7.2904,7.1976,7.104,7.049,6.9751,6.8819,6.8632,6.8445,6.8421,6.7856,6.6383,6.583,6.5445,6.5445,6.5081,6.4499,6.4499,6.4087,6.3696,6.35,6.3086,6.267,6.2275,6.2056,6.1858,6.1482,6.1063,6.0842,6.0464,6.0484,6.0484,6.0664,6.0263,6.0042,5.9277,5.8284,5.7448,5.7243,5.6422,5.601,5.5596,5.5182,5.4785,5.4993,5.5182,5.5182,5.4974,5.4766,5.4558,5.4369,5.397,5.4387,5.4596,5.4577,5.4785,5.5182,8.3117,8.2751,8.2104,8.1224,8.0196,8.0066,7.9409,7.8473,7.8096,7.7726,7.744,7.7542,7.8667,7.9645,8.0272,8.0992,8.1482,8.1764,8.182,8.182,8.182,8.182,8.182,8.182,8.182,8.1631,8.1442,8.0928,8.0602,8.0602,8.0602,8.063,8.0928,8.1252,8.1386,8.1196,8.0872,8.0872,8.0547,8.022,7.9368,7.8171,7.7495,7.6668,7.6031,7.5186,7.4861,7.4357,7.3824,7.385,7.4028,7.3977,7.3977,7.3621,7.3467,7.3493,7.3467,7.3467,7.3467,7.2904,7.1976,7.104,7.0305,6.9193,6.7691,6.7146,6.6765,6.6383,6.6191,6.5445,6.5058,6.4887,6.4887,6.4715,6.4304,6.3914,6.3282,6.2867,6.2649,6.2451,6.2056,6.1681,6.1482,6.1482,6.1063,6.0242,5.9841,5.9479,5.9075,5.9257,5.8832,5.8224,5.802,5.7204,5.6402,5.599,5.5784,5.5163,5.4558,5.4141,5.3723,5.3742,5.3951,5.4141,5.4141,5.416,5.3951,5.3532,5.292,5.2306,5.2728,5.3149,5.3341,5.3742,5.416,8.2629,8.2104,8.1351,8.0455,7.9571,7.9143,7.8443,7.7657,7.7302,7.6606,7.5787,7.6527,7.7562,7.873,7.9776,8.0607,8.1651,8.1792,8.1764,8.1792,8.182,8.182,8.182,8.182,8.1631,8.1442,8.1062,8.071,8.0056,8.0056,7.9946,7.9781,7.9754,8.0083,8.0356,7.9864,7.9534,7.9919,7.9257,7.8589,7.7718,7.6694,7.6031,7.5684,7.5011,7.4508,7.4002,7.4002,7.3824,7.3977,7.3671,7.3824,7.3442,7.3084,7.2904,7.2904,7.2904,7.2904,7.3109,7.2904,7.2339,7.1563,7.0833,6.9379,6.7691,6.6742,6.6383,6.5252,6.5058,6.4865,6.4476,6.4282,6.4304,6.4087,6.3696,6.35,6.3064,6.2451,6.2254,6.1837,6.1042,6.0664,6.0484,6.0484,5.966,5.8852,5.8427,5.804,5.7816,5.7816,5.6794,5.599,5.537,5.4558,5.4539,5.4331,5.4331,5.3932,5.3514,5.2902,5.2692,5.2902,5.292,5.271,5.271,5.292,5.292,5.2499,5.1883,5.1671,5.1671,5.1689,5.2095,5.2499,5.227,8.1979,8.1446,8.0425,7.9541,7.8772,7.8067,7.7382,7.6885,7.6465,7.5787,7.5408,7.5915,7.6788,7.8023,7.8632,7.9548,8.073,8.0796,8.1378,8.1386,8.1309,8.1309,8.147,8.1309,8.128,8.09,8.071,8.0356,7.9864,7.9395,7.9284,7.8978,7.8562,7.8896,7.9202,7.8367,7.8198,7.8394,7.7405,7.623,7.571,7.5036,7.4508,7.4331,7.3977,7.3263,7.3289,7.3289,7.3417,7.357,7.3467,7.3109,7.2724,7.2339,7.2133,7.2133,7.2339,7.2519,7.2519,7.2519,7.1951,7.1381,7.0649,6.9379,6.8257,6.7289,6.6169,6.5036,6.4282,6.4087,6.3891,6.3696,6.3696,6.3282,6.3064,6.3064,6.2867,6.2451,6.1858,6.1063,6.0263,5.966,5.9277,5.8873,5.806,5.7652,5.6999,5.6589,5.6383,5.5558,5.435,5.3932,5.3131,5.3131,5.2902,5.2902,5.2692,5.2481,5.2481,5.2077,5.1653,5.1653,5.1635,5.1459,5.1459,5.1441,5.1441,5.1229,5.1441,5.1016,5.1016,5.1034,5.1229,5.1229,5.0573,8.1162,8.0841,7.948,7.8308,7.7382,7.7025,7.6465,7.6013,7.53,7.5348,7.5705,7.4936,7.5867,7.7334,7.7351,7.8154,7.9065,7.9495,7.9887,8.0602,8.0542,8.071,8.071,8.0658,8.063,8.0439,8.0083,7.9726,7.9561,7.8896,7.8448,7.8502,7.7745,7.7522,7.7888,7.7064,7.6694,7.6694,7.5535,7.4534,7.4002,7.3467,7.3084,7.3084,7.2699,7.2339,7.2339,7.2339,7.2339,7.2339,7.2339,7.2339,7.2133,7.2133,7.1951,7.1976,7.1951,7.1951,7.1951,7.177,7.1381,7.0857,7.0354,6.8843,6.7479,6.6337,6.5184,6.4065,6.3674,6.3478,6.3282,6.3282,6.3086,6.2692,6.2473,6.2473,6.2254,6.166,6.1063,6.0464,5.9459,5.8447,5.806,5.7019,5.6402,5.599,5.537,5.4766,5.4141,5.3112,5.2499,5.2306,5.2095,5.2306,5.2077,5.2077,5.1653,5.1441,5.1653,5.1247,5.1016,5.0804,5.0591,5.0573,5.0573,5.036,5.0377,5.036,5.0573,5.036,5.036,5.0146,5.0146,5.0146,4.9719,8.0554,8.0066,7.8772,7.799,7.744,7.6606,7.5871,7.53,7.4695,7.4659,7.5021,7.4978,7.5653,7.6496,7.65,7.6906,7.781,7.7894,7.8349,7.9106,7.9462,7.9773,8.03,8.0495,8.0083,7.9919,7.9561,7.909,7.8783,7.8111,7.7575,7.7575,7.7064,7.6893,7.6549,7.6057,7.5535,7.4835,7.4331,7.3671,7.3314,7.3109,7.2724,7.2519,7.2339,7.2133,7.2133,7.2158,7.2158,7.2133,7.2133,7.1951,7.1563,7.1563,7.1588,7.143,7.1406,7.1406,7.1588,7.1199,7.104,7.0698,7.0305,6.8421,6.6696,6.5377,6.441,6.3456,6.326,6.3064,6.2867,6.2451,6.2473,6.2275,6.2078,6.166,6.1461,6.1042,6.0242,5.966,5.865,5.7428,5.6402,5.537,5.4747,5.4331,5.3932,5.3322,5.271,5.1883,5.1671,5.1459,5.1459,5.1459,5.1459,5.1441,5.1229,5.0999,5.1016,5.0804,5.0377,5.0146,5.0129,5.0129,4.9916,4.9916,4.9933,4.9916,4.9702,4.9916,5.0129,4.9719,4.9307,4.9093,4.9093,7.9673,7.9203,7.7853,7.7332,7.7332,7.6436,7.5443,7.4724,7.4287,7.3967,7.3876,7.4503,7.4576,7.495,7.5302,7.562,7.5925,7.6257,7.695,7.7373,7.7656,7.8456,7.8845,7.9011,7.8983,7.8733,7.8394,7.7942,7.7772,7.7235,7.684,7.647,7.6005,7.5684,7.5535,7.5036,7.4357,7.3824,7.3646,7.3289,7.3084,7.2544,7.2133,7.1951,7.177,7.1588,7.1588,7.1588,7.1588,7.1588,7.177,7.1588,7.1199,7.1199,7.1223,7.0882,7.0674,7.0674,7.0833,7.049,7.0145,6.9565,6.8326,6.6604,6.5117,6.3998,6.3825,6.2867,6.2473,6.2275,6.2056,6.2056,6.1858,6.1858,6.1681,6.1461,6.1262,6.0643,5.9619,5.8832,5.7408,5.6196,5.4955,5.4123,5.3514,5.3094,5.2674,5.227,5.1847,5.1441,5.1247,5.1016,5.1016,5.1016,5.0999,5.0786,5.0573,5.0573,5.036,5.0146,4.9933,4.9702,4.9702,4.9488,4.929,4.929,4.9505,4.929,4.9076,4.929,4.9488,4.8878,4.8464,4.8248,4.8032,7.8802,7.7745,7.6885,7.6606,7.6606,7.6013,7.5272,7.4259,7.3848,7.3433,7.3136,7.2771,7.2964,7.3181,7.2854,7.3268,7.4037,7.4174,7.4686,7.5294,7.568,7.6309,7.6552,7.6763,7.7242,7.6995,7.6866,7.6893,7.6549,7.6377,7.6005,7.5657,7.4985,7.4633,7.4482,7.4154,7.3824,7.3467,7.3289,7.2904,7.2519,7.1951,7.1563,7.1406,7.1223,7.104,7.104,7.104,7.104,7.0857,7.0833,7.0857,7.0857,7.0857,7.0857,7.0698,7.0698,7.033,6.9984,6.9217,6.8843,6.7479,6.558,6.4038,6.3151,6.3064,6.2867,6.2275,6.188,6.1681,6.1461,6.1461,6.1461,6.1262,6.1283,6.1063,6.1063,6.0042,5.8812,5.7593,5.6177,5.4936,5.3705,5.3094,5.2692,5.227,5.2059,5.1635,5.1424,5.1016,5.0786,5.0573,5.0573,5.036,5.0343,5.0129,5.0129,4.9916,4.9702,4.9505,4.9273,4.9059,4.9059,4.8844,4.8663,4.8447,4.8663,4.8663,4.8447,4.8447,4.843,4.8248,4.7816,4.76,4.7383,7.8019,7.7637,7.6914,7.6465,7.6013,7.4956,7.4231,7.3792,7.2932,7.2661,7.2361,7.1425,7.1272,7.1577,7.1299,7.1216,7.135,7.1458,7.192,7.2701,7.3423,7.4438,7.5341,7.5963,7.6138,7.6338,7.6178,7.5831,7.5831,7.5684,7.5186,7.4809,7.4154,7.3977,7.3799,7.3646,7.3493,7.3084,7.2724,7.2339,7.1745,7.1381,7.1199,7.0857,7.0857,7.0698,7.0698,7.0698,7.0882,7.0882,7.0882,7.0882,7.0882,7.0674,7.0698,7.0698,7.0514,6.9799,6.8843,6.8092,6.6551,6.5377,6.3259,6.2279,6.2013,6.2275,6.188,6.1681,6.1482,6.1461,6.1461,6.1461,6.1262,6.0884,6.0685,6.0284,5.9862,5.8224,5.6999,5.6177,5.4936,5.3477,5.2445,5.2059,5.1865,5.1653,5.1441,5.1229,5.0804,5.0573,5.0343,5.0343,5.036,4.9702,4.9488,4.9256,4.9042,4.9256,4.9059,4.8663,4.843,4.7983,4.8215,4.843,4.8016,4.78,4.8032,4.8032,4.8016,4.78,4.7567,4.7134,4.715,4.6933,4.6716,7.747,7.7054,7.6324,7.5729,7.5272,7.4113,7.3673,7.3229,7.2306,7.1577,7.1119,7.0194,7.0039,7.0349,7.0065,6.9754,6.978,6.9754,6.9913,7.068,7.1844,7.2922,7.3694,7.4639,7.5386,7.5379,7.516,7.4809,7.4959,7.4685,7.4357,7.4154,7.3824,7.3671,7.3671,7.3493,7.3109,7.2699,7.1951,7.1563,7.0625,7.0257,6.9912,6.9565,6.996,7.0145,7.0145,7.0674,7.0674,7.0698,7.0698,7.0698,7.0698,7.0698,7.0514,7.0145,6.996,6.9241,6.8092,6.6169,6.4626,6.3412,6.2168,6.1553,6.144,6.1461,6.1461,6.1461,6.1461,6.1461,6.1461,6.1262,6.0863,6.0685,5.9882,5.9277,5.8244,5.6589,5.537,5.4539,5.3286,5.2023,5.1618,5.1635,5.1441,5.1229,5.0786,5.0573,4.9702,4.9471,4.9256,4.9273,4.9059,4.8612,4.8182,4.7318,4.6884,4.7301,4.7318,4.735,4.715,4.67,4.67,4.6684,4.6917,4.715,4.715,4.7367,4.7367,4.6684,4.5797,4.5142,4.4924,4.4924,4.5158,7.6716,7.5871,7.5157,7.4724,7.4113,7.3792,7.3229,7.2661,7.1729,7.0658,6.9571,6.8968,6.8968,6.9257,6.8968,6.8968,6.91,6.9283,6.9205,6.9571,7.0509,7.1562,7.238,7.3343,7.4267,7.4152,7.4154,7.4002,7.3824,7.385,7.385,7.3671,7.3671,7.3671,7.3467,7.3109,7.2519,7.1927,7.0649,6.9912,6.9145,6.8608,6.8233,6.8257,6.8819,6.9217,6.9403,6.996,7.0121,7.033,7.033,7.0305,7.0305,7.0305,6.996,6.9217,6.9054,6.8492,6.7525,6.482,6.3434,6.243,6.2035,6.144,6.1461,6.1461,6.1461,6.1461,6.1283,6.1283,6.1262,6.1262,6.0664,6.0062,5.8852,5.802,5.6569,5.5125,5.3895,5.2866,5.1618,5.0769,5.0999,5.1016,5.0804,5.036,5.0129,4.9471,4.8595,4.7949,4.7518,4.7318,4.6684,4.645,4.6201,4.5361,4.4924,4.5127,4.5345,4.5361,4.5377,4.5158,4.4939,4.472,4.4939,4.5377,4.5829,4.6265,4.5361,4.447,4.3796,4.3136,4.2916,4.2695,4.2725,7.5984,7.5529,7.5013,7.4113,7.296,7.2059,7.1479,7.1353,7.0376,6.9571,6.8968,6.7989,6.783,6.8334,6.8175,6.8041,6.8175,6.8175,6.8015,6.85,6.953,7.0433,7.1314,7.244,7.339,7.3672,7.3671,7.3671,7.3671,7.3671,7.3671,7.3671,7.3671,7.3084,7.2519,7.1588,7.0649,7.0072,6.9331,6.8585,6.8257,6.7691,6.7502,6.7691,6.7903,6.8092,6.8468,6.903,6.9379,6.9193,6.9217,6.9193,6.8819,6.8445,6.8445,6.8092,6.7714,6.7312,6.636,6.482,6.3282,6.2254,6.166,6.1461,6.1461,6.1461,6.1283,6.1283,6.1084,6.0906,6.0906,5.9841,5.9034,5.8203,5.7388,5.6158,5.471,5.323,5.2216,5.1194,5.0538,4.9685,4.9916,5.0129,4.9702,4.9488,4.8827,4.8182,4.7318,4.645,4.5797,4.5142,4.4501,4.4251,4.422,4.4031,4.3607,4.3812,4.3577,4.3592,4.3592,4.3592,4.3592,4.3166,4.3386,4.3607,4.3592,4.3592,4.2916,4.2253,4.181,4.1159,4.0937,4.0268,4.0282,7.5272,7.4811,7.3939,7.3209,7.2563,7.09,7.0514,7.0651,6.9494,6.881,6.8493,6.7509,6.7187,6.7509,6.7373,6.7399,6.7399,6.7373,6.7187,6.7524,6.8489,6.9404,7.0369,7.1512,7.3062,7.3036,7.3494,7.3671,7.3671,7.3671,7.3467,7.2703,7.1814,7.1628,7.1514,7.0649,6.9726,6.8982,6.8021,6.7289,6.6955,6.6765,6.6574,6.6574,6.6765,6.6932,6.7123,6.8092,6.8068,6.8068,6.8257,6.8257,6.788,6.788,6.7502,6.7146,6.6955,6.6191,6.5229,6.4065,6.3086,6.2254,6.166,6.1283,6.1084,6.1347,6.1347,6.0706,6.0083,5.966,5.9459,5.8427,5.7184,5.6158,5.5125,5.3858,5.2601,5.1353,5.0325,4.9933,4.9273,4.9042,4.9042,4.9042,4.8827,4.8397,4.7534,4.6901,4.6031,4.5158,4.4281,4.3416,4.2518,4.2268,4.181,4.2046,4.2504,4.2046,4.181,4.1603,4.1603,4.1603,4.1825,4.1603,4.1603,4.1825,4.1825,4.1131,4.0463,3.9585,3.9151,3.9164,3.8729,3.8055,3.828,7.4579,7.3967,7.2183,7.1922,7.2583,7.0361,6.9915,7.0731,6.8936,6.8201,6.8015,6.7348,6.6863,6.6863,6.7025,6.6889,6.6863,6.6863,6.7016,6.7422,6.8108,6.8946,6.9912,7.1131,7.2325,7.2274,7.3163,7.3621,7.3671,7.3467,7.2699,7.1877,7.0633,7.0112,6.9806,6.9726,6.9006,6.788,6.6742,6.6,6.5638,6.5252,6.5081,6.5081,6.5615,6.5977,6.5977,6.6932,6.7312,6.7146,6.7312,6.7312,6.6955,6.6955,6.6551,6.6,6.5808,6.5036,6.4065,6.3064,6.2254,6.2056,6.166,6.1084,6.0284,6.0831,6.0631,5.952,5.865,5.8224,5.7593,5.696,5.5726,5.4483,5.3021,5.1987,5.0733,4.9685,4.9273,4.8464,4.8464,4.8646,4.8646,4.8198,4.7767,4.6684,4.6047,4.5595,4.4736,4.3622,4.2739,4.1646,4.0965,4.0282,3.9836,3.9836,4.0505,4.0728,4.0491,4.0059,3.9836,3.9626,3.985,3.9626,3.985,4.0282,4.0268,3.9137,3.8029,3.6915,3.6475,3.6702,3.6475,3.6249,3.6249,7.382,7.2783,7.1729,7.1794,7.2111,6.9599,6.917,6.984,6.8047,6.7212,6.7187,6.7025,6.6863,6.6863,6.6863,6.6863,6.6863,6.6863,6.7371,6.8286,6.915,6.9581,7.009,7.169,7.2579,7.1969,7.2935,7.3341,7.3238,7.2394,7.1366,7.0942,6.9284,6.902,6.8537,6.8257,6.7691,6.6574,6.5638,6.5274,6.4887,6.4693,6.4693,6.4887,6.4887,6.5081,6.5252,6.6,6.6,6.583,6.6191,6.6191,6.583,6.5638,6.5252,6.4865,6.4454,6.3869,6.2867,6.2254,6.2035,6.166,6.1084,6.0284,5.9479,5.94,5.9259,5.7632,5.6774,5.6177,5.5765,5.4502,5.3458,5.239,5.1141,5.0095,4.9059,4.8861,4.8447,4.8248,4.8248,4.8447,4.7567,4.7134,4.6031,4.5173,4.4751,4.4297,4.3401,4.2504,4.1395,4.0296,3.985,3.9626,3.9178,3.9191,3.8967,3.9178,3.8954,3.8729,3.8954,3.8743,3.8293,3.8306,3.832,3.8518,3.8716,3.7141,3.5796,3.5808,3.5581,3.5127,3.4672,3.4444,3.466,7.3265,7.2618,7.1154,7.1289,7.2342,6.9599,6.8919,6.9561,6.8273,6.7183,6.6614,6.6564,6.6539,6.6213,6.6351,6.6376,6.6539,6.6564,6.7132,6.7905,6.8743,6.915,6.9505,7.0902,7.1919,7.1436,7.2074,7.2682,7.1659,7.0485,6.9346,6.8924,6.7546,6.6803,6.7289,6.6765,6.6214,6.566,6.5274,6.4887,6.4693,6.4693,6.4693,6.4693,6.4693,6.4693,6.4887,6.5252,6.5252,6.5081,6.5058,6.5058,6.4693,6.4326,6.4109,6.3718,6.3304,6.267,6.166,6.1461,6.1283,6.0706,6.0505,5.9681,5.8447,5.7896,5.6647,5.5539,5.4502,5.3876,5.3249,5.2216,5.1158,5.0521,5.0095,4.9256,4.8844,4.8447,4.8032,4.8032,4.8032,4.715,4.6265,4.5158,4.4031,4.3181,4.296,4.2518,4.1839,4.0951,4.0282,3.9178,3.8967,3.8967,3.8743,3.8531,3.8531,3.8531,3.8293,3.8068,3.8068,3.7843,3.7618,3.7405,3.6953,3.6727,3.6727,3.6035,3.5127,3.4911,3.4696,3.4456,3.4444,3.3988,3.3759,7.27,7.2637,7.0522,7.1032,7.268,6.9958,6.915,6.9886,6.8576,6.7525,6.6565,6.6338,6.5986,6.5921,6.5706,6.5885,6.6049,6.6263,6.6603,6.7436,6.8146,6.8171,6.7752,6.9277,7.0318,7.0674,7.0966,7.114,7.0141,6.8076,6.7251,6.692,6.5126,6.3849,6.5954,6.5853,6.5468,6.5445,6.5274,6.5081,6.4887,6.4693,6.4693,6.4693,6.4693,6.4693,6.4715,6.4887,6.4887,6.4715,6.4693,6.4499,6.4131,6.3936,6.3522,6.2889,6.2275,6.1461,6.0906,6.0685,6.0505,6.0125,5.952,5.9075,5.7816,5.6158,5.4521,5.3667,5.2409,5.1564,5.1141,5.0538,4.9933,4.9505,4.9059,4.8844,4.8629,4.8232,4.7816,4.7583,4.6265,4.5611,4.4501,4.3166,4.1825,4.1617,4.141,4.0728,4.0059,3.985,3.9178,3.8743,3.8306,3.8306,3.8081,3.8094,3.8094,3.7869,3.7631,3.7618,3.7392,3.7153,3.6702,3.6249,3.5342,3.5115,3.466,3.4444,3.4456,3.4011,3.3543,3.3531,3.3759,3.3759,3.3531,7.2686,7.2325,7.1404,7.202,7.2665,6.9892,6.9058,6.915,6.7687,6.6877,6.687,6.6196,6.6055,6.6479,6.6055,6.5557,6.5557,6.5721,6.6336,6.7269,6.7914,6.8182,6.8399,6.948,6.992,6.997,7.0464,6.9939,6.8396,6.7568,6.6708,6.5659,6.5476,6.5197,6.4946,6.5081,6.4887,6.4887,6.4887,6.4887,6.4693,6.4693,6.4693,6.4693,6.4693,6.4693,6.4693,6.4693,6.4715,6.4693,6.4326,6.4109,6.3914,6.35,6.2692,6.1283,6.0706,6.0305,5.9924,5.9924,5.95,5.9318,5.8467,5.7612,5.6344,5.4502,5.2427,5.1176,5.0325,5.0129,4.9685,4.9256,4.9059,4.8646,4.8447,4.8232,4.7999,4.7783,4.715,4.5829,4.4736,4.3622,4.2504,4.1159,4.0505,4.0296,4.0073,3.9402,3.9178,3.8743,3.8293,3.8081,3.7631,3.7631,3.7179,3.6953,3.6953,3.6953,3.6727,3.6714,3.6475,3.6249,3.5796,3.5342,3.4432,3.3062,3.2364,3.1905,3.2386,3.2397,3.2386,3.2146,3.2157,3.2157,3.2157,7.1423,7.1378,7.0418,7.1206,7.2445,7.0224,6.9225,6.9307,6.8182,6.6952,6.6212,6.555,6.5433,6.5488,6.5094,6.5087,6.5227,6.5227,6.5881,6.6595,6.7262,6.753,6.7169,6.8175,6.8628,6.886,6.9292,6.8669,6.6965,6.7258,6.6216,6.4965,6.4405,6.4564,6.4663,6.4671,6.4693,6.4693,6.4693,6.4693,6.4693,6.4499,6.4109,6.4109,6.4109,6.4282,6.426,6.4282,6.4499,6.4499,6.4326,6.3914,6.3304,6.2495,6.1084,5.9903,5.9277,5.8852,5.8467,5.806,5.7856,5.7448,5.6383,5.5539,5.4294,5.3039,5.1353,4.9898,4.9273,4.8878,4.8646,4.7983,4.7783,4.7367,4.6716,4.6482,4.6482,4.6281,4.5173,4.3842,4.2518,4.1173,4.0268,3.9612,3.9178,3.8967,3.8743,3.8531,3.8306,3.7856,3.7379,3.6702,3.6249,3.6022,3.5581,3.5569,3.5783,3.5796,3.5581,3.5796,3.5569,3.5115,3.466,3.3748,3.2833,3.1457,3.0767,3.0536,3.0547,3.0547,3.0777,3.0767,3.0547,3.0547,3.0777,6.9872,7.0433,6.9324,7.0046,7.1949,7.0215,6.9362,6.919,6.8272,6.7086,6.5395,6.4952,6.4711,6.474,6.4475,6.4447,6.478,6.4921,6.5136,6.5666,6.6187,6.6504,6.6121,6.6745,6.6927,6.6937,6.7559,6.7211,6.6144,6.6049,6.5412,6.446,6.3815,6.3945,6.4621,6.4626,6.4693,6.4693,6.4693,6.4693,6.4521,6.4131,6.3914,6.3478,6.3696,6.3652,6.363,6.3674,6.4131,6.4326,6.3914,6.3282,6.2473,6.1283,5.9882,5.869,5.806,5.7428,5.6813,5.6196,5.5389,5.4766,5.4331,5.3477,5.2427,5.1353,5.0308,4.9256,4.8447,4.8016,4.7783,4.6901,4.6249,4.5611,4.5158,4.4501,4.4501,4.3842,4.2725,4.1173,4.0073,3.8954,3.8505,3.8055,3.7605,3.7605,3.7392,3.7166,3.6727,3.6261,3.5783,3.5317,3.4636,3.4192,3.3748,3.3952,3.4169,3.4192,3.4204,3.4204,3.3976,3.3748,3.2833,3.1468,3.0316,2.9855,2.9624,2.9393,2.9161,2.8688,2.892,2.9614,2.892,2.8467,2.892,6.9806,6.9891,7.0471,7.0411,7.0036,6.9192,6.8672,6.8251,6.6446,6.6305,6.66,6.5181,6.496,6.5231,6.467,6.4329,6.4471,6.4471,6.4613,6.4896,6.5408,6.5309,6.5541,6.545,6.5507,6.503,6.5915,6.5304,6.4641,6.4836,6.4923,6.3593,6.3816,6.4223,6.4415,6.4565,6.4626,6.4693,6.4693,6.4499,6.4109,6.3718,6.35,6.326,6.3282,6.302,6.2955,6.302,6.35,6.3566,6.2889,6.2078,6.1084,5.9903,5.8893,5.7652,5.6628,5.599,5.5558,5.5163,5.4558,5.4312,5.3267,5.2216,5.1141,5.0095,4.9256,4.8646,4.8016,4.7567,4.6201,4.5548,4.4893,4.3796,4.3372,4.3136,4.2916,4.1395,4.0073,3.8518,3.8055,3.7618,3.694,3.6714,3.6249,3.6022,3.6022,3.5796,3.4899,3.4204,3.3736,3.3256,3.2799,3.2342,3.2124,3.2113,3.2342,3.2353,3.2593,3.2135,3.1916,3.1446,3.0767,2.9403,2.8476,2.8244,2.8244,2.7771,2.7297,2.6599,2.6599,2.7287,2.7064,2.6608,2.6366,6.8171,6.8065,6.8157,6.8418,6.872,6.7929,6.7831,6.7929,6.6698,6.6429,6.633,6.5671,6.5085,6.4987,6.4548,6.4304,6.4304,6.4304,6.4471,6.4613,6.4589,6.478,6.4921,6.4564,6.4613,6.4642,6.5183,6.4697,6.4066,6.4516,6.4589,6.312,6.3437,6.3771,6.4098,6.4216,6.4328,6.4298,6.4326,6.4109,6.35,6.2692,6.2297,6.3064,6.2845,6.2387,6.2082,6.2387,6.2867,6.2714,6.1305,5.9479,5.8244,5.8244,5.7243,5.5803,5.4974,5.4747,5.3686,5.3076,5.2463,5.1794,5.0893,5.0256,4.965,4.9042,4.843,4.8032,4.76,4.7117,4.5314,4.422,4.3121,4.2032,4.1381,4.1173,4.0714,3.894,3.7166,3.6714,3.6714,3.6261,3.6035,3.6035,3.5796,3.5342,3.5342,3.4432,3.3531,3.2604,3.2124,3.1195,3.0965,3.0505,3.0285,3.0285,3.0285,3.0515,3.0767,3.0536,3.0075,2.9382,2.892,2.7993,2.7074,2.6841,2.6608,2.59,2.5434,2.52,2.5192,2.5192,2.5174,2.5355,2.488,6.6716,6.6323,6.5822,6.6442,6.7288,6.6698,6.6723,6.7657,6.6936,6.6498,6.633,6.6159,6.5597,6.5055,6.4785,6.4589,6.4613,6.4471,6.4304,6.4304,6.4304,6.4304,6.3969,6.3753,6.3777,6.3946,6.4478,6.4187,6.3777,6.4064,6.3978,6.2981,6.3003,6.2851,6.3305,6.3316,6.3421,6.3142,6.3318,6.3102,6.2411,6.1516,6.1426,6.2056,6.2056,6.1815,6.1596,6.1617,6.1794,6.1376,5.9619,5.7612,5.6589,5.6608,5.5803,5.4141,5.3723,5.3286,5.2023,5.1406,5.0573,5.0095,4.9171,4.828,4.8612,4.8215,4.78,4.7367,4.6933,4.6249,4.4674,4.246,4.0922,4.0045,3.9388,3.9008,3.8638,3.7017,3.6047,3.5808,3.5581,3.5593,3.5342,3.5115,3.466,3.466,3.3976,3.3291,3.2135,3.1216,3.0285,2.9362,2.89,2.8678,2.8457,2.8457,2.8457,2.8457,2.9161,2.9403,2.8235,2.7538,2.7064,2.6599,2.5882,2.5667,2.5667,2.4958,2.4682,2.4474,2.4491,2.4165,2.3857,2.4089,2.3832,6.6451,6.5641,6.6174,6.5932,6.5345,6.5329,6.5571,6.5914,6.5319,6.583,6.6842,6.6576,6.6376,6.6858,6.5715,6.5368,6.5392,6.4613,6.4447,6.4304,6.4137,6.3801,6.3319,6.3102,6.3126,6.3174,6.3198,6.3222,6.31,6.3246,6.3172,6.2725,6.2139,6.1827,6.2037,6.1955,6.1544,6.1177,6.1652,6.1791,6.1157,6.0662,6.0135,6.0422,6.0768,6.0979,6.0927,6.0568,5.9737,5.8868,5.7453,5.6344,5.5765,5.5389,5.4577,5.3514,5.2884,5.2463,5.1618,5.0981,5.0343,4.9239,4.8511,4.8082,4.7767,4.7367,4.6917,4.6482,4.5563,4.4939,4.4077,4.2075,3.9918,3.8252,3.7469,3.698,3.675,3.6321,3.5593,3.5163,3.5163,3.4696,3.4216,3.3291,3.2604,3.3062,3.1905,3.0986,3.0285,2.9362,2.8437,2.7751,2.7297,2.7074,2.7083,2.685,2.7083,2.7083,2.8012,2.7771,2.6841,2.6133,2.5667,2.5139,2.482,2.4812,2.4596,2.4372,2.3923,2.3666,2.3501,2.2998,2.2727,2.2886,2.2837,6.6074,6.4804,6.4719,6.4478,6.4185,6.3922,6.4304,6.4958,6.4707,6.5343,6.6378,6.655,6.6541,6.6611,6.6414,6.6024,6.5557,6.4921,6.4447,6.3945,6.3633,6.3319,6.2957,6.2617,6.2617,6.2957,6.2641,6.2617,6.2641,6.2447,6.2447,6.2028,6.1293,6.0919,6.1063,6.0583,6.0016,5.9958,6.0683,6.0668,5.9679,5.8698,5.839,5.8465,5.8234,5.8918,5.9722,5.9675,5.8123,5.6149,5.5423,5.4955,5.435,5.4141,5.3532,5.2499,5.2463,5.1829,5.0981,5.0343,4.9719,4.8629,4.7933,4.7534,4.7367,4.6748,4.5861,4.4955,4.3812,4.2872,4.2006,4.1023,3.9385,3.7795,3.698,3.6379,3.6116,3.5438,3.5174,3.4812,3.4646,3.3999,3.3062,3.2604,3.1916,3.0997,3.0065,2.9131,2.8205,2.7278,2.659,2.6832,2.6608,2.6608,2.6608,2.6608,2.6608,2.6841,2.7306,2.6608,2.59,2.5192,2.4958,2.4673,2.4271,2.3905,2.3558,2.3271,2.3132,2.2902,2.2504,2.2181,2.211,2.2039,2.1781,6.5746,6.4304,6.3633,6.344,6.3271,6.2787,6.324,6.408,6.4019,6.4684,6.5915,6.6354,6.661,6.6855,6.6904,6.6351,6.5557,6.4921,6.428,6.344,6.2933,6.2617,6.2423,6.2081,6.2252,6.2447,6.2276,6.2081,6.2081,6.2081,6.1739,6.1372,6.0205,5.9668,5.9672,5.8433,5.7953,5.8268,5.8942,5.8819,5.792,5.6801,5.6604,5.7076,5.6634,5.7057,5.7958,5.8326,5.696,5.4389,5.4085,5.3514,5.3112,5.292,5.2499,5.1653,5.1847,5.1618,5.0146,4.9916,4.929,4.8248,4.755,4.7117,4.6949,4.6126,4.5032,4.3667,4.2235,4.1136,4.0406,3.9949,3.9317,3.8349,3.7448,3.6598,3.5677,3.4948,3.4272,3.4214,3.3578,3.289,3.2135,3.1446,3.0536,2.9844,2.8678,2.7751,2.7278,2.659,2.6124,2.6133,2.59,2.6133,2.6366,2.6366,2.6133,2.6375,2.6115,2.5632,2.5157,2.4665,2.4415,2.4098,2.3337,2.2904,2.2555,2.2257,2.2313,2.2408,2.2102,2.1883,2.1742,2.1161,2.0936,6.5582,6.4304,6.3464,6.2957,6.2957,6.2081,6.2152,6.2902,6.277,6.3845,6.545,6.6036,6.7002,6.7777,6.7219,6.6376,6.5557,6.478,6.3945,6.2957,6.2081,6.1567,6.1199,6.1395,6.1567,6.1739,6.1715,6.1544,6.1739,6.1544,6.1372,6.0658,5.9042,5.7871,5.7467,5.56,5.4997,5.5409,5.5923,5.6322,5.6038,5.5871,5.6152,5.669,5.6476,5.6478,5.6467,5.6169,5.5519,5.4747,5.3458,5.2674,5.2463,5.2077,5.1671,5.0999,5.1459,5.0786,4.9685,4.9471,4.929,4.7816,4.7134,4.6684,4.5845,4.5032,4.3963,4.3109,4.1249,4.0232,4.0003,3.9201,3.8598,3.8302,3.7552,3.6791,3.5509,3.3899,3.3191,3.2779,3.1993,3.1216,3.0986,2.9593,2.891,2.8215,2.7519,2.659,2.6124,2.5891,2.5667,2.5434,2.5192,2.5425,2.6133,2.6133,2.5434,2.5407,2.5337,2.4855,2.4613,2.4313,2.4039,2.3059,2.2337,2.1936,2.1818,2.1578,2.1377,2.1455,2.1547,2.1625,2.1337,2.0974,2.0457,6.5746,6.428,6.3416,6.2739,6.2081,6.105,6.09,6.1316,6.1815,6.2624,6.3994,6.5009,6.6013,6.6931,6.6904,6.6049,6.4731,6.4422,6.3247,6.1715,6.105,6.0704,6.0553,6.0727,6.0727,6.0704,6.105,6.1199,6.1199,6.1027,6.0658,5.9788,5.8359,5.7093,5.6196,5.4601,5.3893,5.4382,5.4705,5.5054,5.5021,5.492,5.4713,5.4421,5.3887,5.3987,5.4766,5.3726,5.2981,5.2641,5.2856,5.2866,5.2463,5.2077,5.1459,5.0999,5.0786,5.0573,4.9239,4.9256,4.8844,4.7583,4.6933,4.6265,4.5408,4.3431,4.2545,4.1896,4.0178,3.8773,3.9397,3.8831,3.7878,3.7197,3.6579,3.5802,3.4811,3.3705,3.2699,3.1842,3.1032,2.9886,2.891,2.7529,2.7055,2.6357,2.6133,2.5667,2.52,2.4958,2.5434,2.5434,2.4724,2.4967,2.5667,2.5434,2.4724,2.4406,2.4305,2.4039,2.3691,2.3362,2.3214,2.2015,2.1354,2.1184,2.0855,2.0633,2.0739,2.0577,2.0443,2.0561,2.0665,2.0088,1.963,6.5746,6.4112,6.3054,6.2205,6.1223,6.0727,6.0553,6.0727,6.1395,6.2376,6.3392,6.4422,6.5277,6.5911,6.6376,6.5532,6.3872,6.3199,6.2034,6.0484,6.0182,6.0205,6.0031,6.0205,6.0228,6.0402,6.0704,6.0877,6.0704,6.1027,6.0334,5.9109,5.7849,5.6756,5.5292,5.3872,5.3323,5.4016,5.4034,5.4034,5.4037,5.3894,5.3689,5.3209,5.1909,5.15,5.2659,5.1259,5.0688,5.0941,5.2287,5.2837,5.2637,5.2288,5.1653,5.0786,5.0573,5.0129,4.9059,4.8612,4.8198,4.7367,4.6498,4.6047,4.5189,4.2945,4.1443,4.1289,3.9337,3.7936,3.8299,3.816,3.7586,3.6839,3.6193,3.5624,3.4772,3.375,3.2853,3.1457,3.0123,2.895,2.7306,2.6133,2.5667,2.4958,2.52,2.52,2.4491,2.4491,2.4724,2.4967,2.4265,2.404,2.4508,2.4499,2.3699,2.2855,2.2751,2.2457,2.2236,2.1844,2.1656,2.1223,2.0603,2.024,1.9924,1.9961,1.9918,1.9798,1.982,1.9694,1.9481,1.9062,1.8654,6.5252,6.3585,6.2522,6.1544,6.0356,6.053,6.1027,6.1372,6.2034,6.2885,6.3945,6.428,6.4755,6.5392,6.5368,6.4706,6.3223,6.1887,6.0311,5.9087,5.9856,5.9833,5.9613,5.9856,6.0054,6.0205,6.053,6.0507,6.0182,6.0704,6.016,5.8448,5.7515,5.6037,5.4423,5.3506,5.3157,5.3362,5.3547,5.3342,5.3013,5.2828,5.2962,5.3641,5.1468,5.0383,5.0458,4.9218,4.9076,5.0144,5.1462,5.2439,5.301,5.3194,5.2234,5.0751,5.0573,4.9933,4.8663,4.8198,4.7767,4.67,4.6063,4.5408,4.4736,4.2739,4.1234,4.1201,3.9409,3.8114,3.7697,3.7364,3.7214,3.8099,3.7176,3.6156,3.507,3.4535,3.3638,3.1468,2.9199,2.7799,2.7083,2.59,2.4967,2.4499,2.4499,2.4491,2.3797,2.3789,2.3789,2.3789,2.3329,2.3102,2.3571,2.3555,2.243,2.1333,2.1236,2.0843,2.0416,1.9856,1.9903,2.002,1.9422,1.9603,1.9291,1.9225,1.9163,1.8768,1.9076,1.9051,1.8624,1.7958,1.7496,6.5252,6.3585,6.2522,6.1325,5.9811,6.016,6.0484,6.0681,6.2081,6.2957,6.3464,6.4137,6.4447,6.4589,6.4112,6.3102,6.1715,6.0854,5.9985,5.9263,5.9285,5.9109,5.8911,5.9109,5.9109,5.9285,5.9263,5.9636,5.9636,5.9483,5.8426,5.7158,5.5878,5.4788,5.371,5.3178,5.3342,5.4098,5.4609,5.4446,5.3547,5.2973,5.2556,5.2045,5.019,4.9234,4.9444,4.9189,4.9433,4.9922,5.1418,5.2379,5.2717,5.3205,5.313,5.218,5.16,5.0751,4.9505,4.8215,4.7367,4.6498,4.6063,4.5408,4.4736,4.296,4.2178,4.1709,4.0134,3.8662,3.856,3.754,3.6453,3.6299,3.612,3.5633,3.4808,3.4314,3.3381,3.1826,2.9736,2.7315,2.5425,2.4958,2.4265,2.3587,2.3797,2.3797,2.3337,2.3563,2.3555,2.3086,2.2625,2.2625,2.2344,2.2125,2.109,2.0161,1.9796,1.8876,1.8183,1.8027,1.8018,1.8383,1.855,1.8738,1.8801,1.8521,1.8094,1.7476,1.7514,1.7527,1.719,1.6793,1.6083,6.5721,6.4422,6.2861,6.098,5.9263,5.9811,6.0334,6.0877,6.2252,6.3126,6.3464,6.4137,6.4137,6.3825,6.2593,6.1372,6.0507,5.9788,5.9438,5.9087,5.8911,5.8735,5.8735,5.8735,5.8735,5.8735,5.8735,5.8911,5.9087,5.858,5.7693,5.6239,5.495,5.3894,5.2993,5.2397,5.2767,5.3547,5.4529,5.4549,5.3567,5.2788,5.1839,5.0942,4.9604,4.9224,4.9433,4.9327,4.9412,4.9779,5.1576,5.2425,5.252,5.3715,5.3915,5.3194,5.2023,5.0751,4.9702,4.8016,4.6732,4.6281,4.5611,4.4955,4.4297,4.2769,4.1824,4.1465,3.9555,3.8981,3.9651,3.8662,3.7217,3.6831,3.6321,3.6128,3.5291,3.4785,3.3896,3.2534,3.0779,2.8594,2.6412,2.4949,2.4491,2.3805,2.3329,2.286,2.2633,2.286,2.2852,2.2382,2.2148,2.164,2.109,2.0409,1.9864,1.8921,1.8035,1.7118,1.6581,1.6233,1.6599,1.6993,1.7835,1.8037,1.7183,1.7102,1.6793,1.6202,1.5445,1.566,1.5624,1.4478,1.4055,6.6564,6.5885,6.3344,6.0808,5.8735,5.9636,6.0681,6.1372,6.2447,6.3295,6.3945,6.4137,6.3633,6.2617,6.1027,6.0137,5.9985,5.9109,5.8735,5.8735,5.8735,5.8735,5.8735,5.8735,5.8735,5.8735,5.8735,5.8735,5.8712,5.8558,5.765,5.5835,5.4768,5.3526,5.2437,5.1426,5.1426,5.2476,5.3274,5.348,5.3013,5.2064,5.113,5.0209,4.9963,4.9944,4.9944,4.9604,4.9622,4.9963,5.1926,5.2947,5.3085,5.4537,5.4782,5.3445,5.1776,5.0343,4.9256,4.755,4.6281,4.5626,4.5189,4.4532,4.3872,4.2504,4.1472,4.0474,3.9126,3.8797,4.0447,3.9505,3.8862,3.8734,3.8062,3.7167,3.6594,3.5787,3.4746,3.3426,3.2054,3.0439,2.8718,2.6348,2.5192,2.4023,2.3086,2.1913,2.1913,2.1913,2.1678,2.1442,2.1185,2.1105,1.924,1.8848,1.8176,1.7187,1.6606,1.5802,1.5022,1.456,1.5213,1.5859,1.6505,1.6499,1.5853,1.5481,1.5374,1.5129,1.4357,1.3487,1.3383,1.209,1.1695,6.6213,6.5368,6.3199,6.0808,5.8911,5.9636,6.0137,6.0681,6.1567,6.2081,6.2423,6.2399,6.1887,6.0854,6.0334,5.9613,5.9087,5.8735,5.8735,5.8735,5.8735,5.8735,5.8735,5.8735,5.8735,5.8735,5.8735,5.8735,5.8558,5.7293,5.6376,5.5676,5.3874,5.2642,5.227,5.1426,5.1574,5.2602,5.2556,5.2556,5.2437,5.1465,5.0735,5.0547,5.0151,4.9944,4.9944,5.0547,5.0942,5.1111,5.2282,5.2982,5.3042,5.464,5.5108,5.4449,5.3262,5.1829,5.0273,4.8414,4.6732,4.5861,4.5626,4.4751,4.3637,4.3637,4.302,4.1729,4.0331,3.9701,4.0304,3.8917,3.8186,3.8033,3.7218,3.6893,3.6601,3.5653,3.4926,3.426,3.239,3.0684,3.0568,2.889,2.6115,2.3547,2.2852,2.2382,2.0972,2.0965,2.0965,2.0501,2.0494,1.9891,1.8266,1.7802,1.7222,1.6195,1.4818,1.4102,1.4439,1.334,1.3254,1.4776,1.477,1.477,1.477,1.4128,1.3753,1.3863,1.3459,1.2648,1.1411,1.0661,1.0271,6.6049,6.5368,6.3199,6.0785,5.8911,5.9263,5.9811,6.016,6.0658,6.1199,6.1544,6.1027,6.0484,5.9811,5.9788,5.9613,5.9087,5.8735,5.8735,5.8735,5.8735,5.8735,5.8735,5.8735,5.8735,5.8735,5.8735,5.8735,5.8558,5.7472,5.6376,5.5334,5.3178,5.1898,5.1711,5.0904,5.1052,5.2025,5.1524,5.1711,5.2397,5.2211,5.1839,5.1652,5.1799,5.1799,5.1819,5.2602,5.3178,5.3342,5.3526,5.369,5.371,5.4321,5.4507,5.4045,5.3753,5.2789,5.0681,4.8601,4.714,4.5818,4.5888,4.5408,4.3857,4.3857,4.3551,4.2526,4.2071,4.141,4.0965,3.9402,3.816,3.7753,3.6875,3.6245,3.644,3.5797,3.4973,3.4295,3.2856,3.1949,3.1522,3.0547,2.7983,2.4716,2.2382,2.1442,2.0258,1.9919,1.9443,1.9033,1.8635,1.8176,1.7236,1.6798,1.6457,1.5532,1.4272,1.3095,1.3476,1.2678,1.2606,1.3907,1.3686,1.347,1.3686,1.261,1.1966,1.1346,1.111,1.0609,0.9472,0.8731,0.7884,6.5911,6.5037,6.303,6.0808,5.8911,5.8735,5.9263,5.9811,5.9962,6.0507,6.1372,6.016,5.959,5.9613,5.994,6.0091,5.994,5.9568,5.9393,5.924,5.9064,5.8911,5.8735,5.8735,5.8735,5.8735,5.8735,5.8735,5.8735,5.8536,5.7493,5.5376,5.2788,5.1317,5.0735,5.0209,5.019,5.0716,5.0904,5.1652,5.2747,5.3322,5.3322,5.2932,5.3874,5.4403,5.422,5.4992,5.5537,5.5878,5.4971,5.4403,5.4302,5.3985,5.3349,5.2834,5.3708,5.3183,5.0729,4.8726,4.7327,4.6076,4.6297,4.5829,4.4516,4.3652,4.3211,4.302,4.3446,4.2975,4.209,4.031,3.8917,3.8189,3.6781,3.5887,3.6012,3.5716,3.5065,3.3861,3.348,3.3133,3.1796,3.1029,2.9865,2.7064,2.3789,2.1207,2.048,1.9342,1.8079,1.7441,1.6949,1.6552,1.6166,1.6244,1.5721,1.4491,1.4092,1.3455,1.2706,1.2418,1.2173,1.261,1.2394,1.1524,1.1091,1.0658,1.0445,0.9802,0.898,0.8394,0.7053,0.6336,0.5979,6.5417,6.3921,6.2399,6.1004,5.9788,5.9109,5.8735,5.8911,5.9064,5.9788,6.0854,5.9962,5.9788,6.0658,6.221,6.2694,6.2718,6.4411,6.3914,6.1822,6.1652,6.0669,5.8911,5.8735,5.8735,5.8735,5.8735,5.8735,5.8735,5.8735,5.7849,5.608,5.3506,5.1672,5.0735,5.0209,5.0397,5.1317,5.2025,5.2562,5.2932,5.2932,5.2932,5.2932,5.3874,5.4403,5.4403,5.5132,5.5676,5.5856,5.495,5.4403,5.4444,5.3985,5.3349,5.2834,5.2951,5.2335,5.0766,4.9054,4.71,4.562,4.6065,4.5611,4.3857,4.4312,4.4751,4.3872,4.3431,4.299,4.2105,3.9836,3.7843,3.776,3.6097,3.5007,3.4434,3.4233,3.3941,3.3102,3.2755,3.229,3.196,3.1008,3.0096,2.893,2.6124,2.3078,2.1648,1.9767,1.8112,1.7045,1.6776,1.6532,1.5605,1.5196,1.4655,1.4187,1.3097,1.2668,1.2649,1.132,1.0883,1.2182,1.1095,1.0008,1.0224,1.0008,0.914,0.8716,0.7906,0.7363,0.6838,0.6332,0.5505,6.4921,6.344,6.2034,6.1004,5.9985,5.9087,5.8911,5.924,6.0865,6.221,6.2766,6.1278,6.098,6.1497,6.2257,6.2427,6.2281,6.3367,6.3031,6.1575,6.1185,6.0392,5.9064,5.8735,5.8735,5.8735,5.8735,5.8735,5.8735,5.8735,5.8027,5.6598,5.4768,5.2932,5.1298,5.0755,5.0942,5.1505,5.3301,5.4382,5.4929,5.5271,5.5495,5.5334,5.6037,5.6376,5.6397,5.7093,5.765,5.7849,5.6756,5.5878,5.5334,5.4344,5.3293,5.2736,5.2237,5.1506,5.052,4.914,4.7882,4.6584,4.6943,4.6538,4.4922,4.539,4.5595,4.5189,4.4532,4.3872,4.3416,4.1159,3.9137,3.8029,3.6715,3.5309,3.4167,3.3716,3.3253,3.2512,3.2301,3.1687,3.0997,3.0547,3.0086,2.8678,2.7099,2.4613,2.2148,2.0255,1.8857,1.8247,1.712,1.6088,1.5409,1.4978,1.4491,1.415,1.3264,1.2832,1.2615,1.1312,1.0662,1.1095,0.9577,0.8492,0.8706,0.8272,0.8057,0.7846,0.7248,0.6467,0.6374,0.5795,0.4957,6.4275,6.3416,6.2011,6.1153,6.0461,5.9742,5.9871,6.0888,6.3845,6.5283,6.5308,6.3296,6.2352,6.2498,6.1816,6.1497,6.1348,6.1325,6.1176,6.0704,6.0311,5.994,5.9636,5.9087,5.8735,5.8735,5.8735,5.8735,5.8735,5.8735,5.8027,5.68,5.6037,5.4403,5.2045,5.1691,5.1878,5.2231,5.4768,5.6577,5.7672,5.8359,5.869,5.8248,5.8668,5.8866,5.871,5.937,5.9811,6.0228,5.8824,5.7737,5.68,5.4809,5.3294,5.2883,5.1661,5.0909,5.0096,4.9299,4.8662,4.8077,4.8025,4.7682,4.716,4.6336,4.6081,4.6377,4.5697,4.511,4.4442,4.2823,4.0832,3.9225,3.7686,3.6161,3.4672,3.3794,3.3119,3.219,3.2101,3.1566,3.0034,3.0003,2.9491,2.7608,2.7158,2.5855,2.3027,2.1029,2.0579,1.9857,1.7936,1.6087,1.5667,1.5218,1.4576,1.4128,1.3907,1.3696,1.3048,1.1316,1.0228,0.9581,0.8278,0.7191,0.7191,0.6973,0.6973,0.6976,0.659,0.5773,0.5233,0.4599,0.3953,6.3426,6.303,6.2034,6.1987,6.2766,6.3007,6.408,6.5698,0.0,0.0,0.0,6.3656,6.3175,6.3872,6.4275,6.4417,6.4251,6.6098,6.5635,6.3464,6.3296,6.2134,6.0205,5.9636,5.9415,5.9263,5.8911,5.8735,5.8735,5.8735,5.8381,5.7715,5.6419,5.5111,5.3874,5.2767,5.3117,5.4929,5.6713,5.7983,5.9064,5.9568,5.9334,5.8539,5.9703,5.9921,5.8629,5.9875,6.053,6.0205,5.8824,5.8093,5.7715,5.5174,5.3608,5.3379,5.1512,5.038,5.1155,4.983,4.9208,4.92,4.7848,4.7235,4.8297,4.7112,4.6463,4.6508,4.5135,4.4314,4.3637,4.1935,4.0866,4.1175,3.8832,3.7046,3.6099,3.5342,3.3759,3.1905,3.2051,3.1917,3.0463,3.022,2.9967,2.8608,2.8271,2.7436,2.5405,2.4111,2.3033,2.0664,1.9125,1.7573,1.6068,1.5428,1.4991,1.4128,1.3907,1.3696,1.2404,1.0887,0.9798,0.9581,0.806,0.7191,0.6973,0.6973,0.6756,0.6318,0.601,0.5685,0.435,0.3239,0.2112,6.3102,0.0,6.2034,6.2352,0.0,6.3416,6.5798,6.915,6.902,6.8759,6.823,6.5457,6.4349,6.4872,6.4349,6.3991,6.3848,6.5079,6.4938,6.356,6.3007,6.2205,6.0877,6.0182,5.9833,5.9833,5.9658,5.9285,5.9087,5.9064,5.8757,5.8115,5.7358,5.6239,5.4809,5.4078,5.4929,5.7606,5.8933,6.0182,6.113,6.1793,6.1728,6.1088,6.1775,0.0,0.0,0.0,0.0,0.0,0.0,0.0,0.0,0.0,0.0,5.4694,5.2616,5.1641,5.243,5.1136,5.0494,5.054,4.9419,4.9546,5.2051,4.9999,4.8908,4.914,4.7978,4.6772,4.614,4.4698,4.3193,4.2207,4.0365,3.8326,3.6876,3.5648,3.4277,3.2685,3.2448,3.1973,3.0188,2.9967,2.9542,2.8195,2.7751,2.7071,2.5941,2.5204,2.4395,2.2037,2.0555,1.9074,1.7768,1.6916,1.5638,1.4344,1.4128,1.3701,1.2413,1.1325,1.0232,1.0011,0.8278,0.6973,0.6973,0.6756,0.6325,0.5901,0.5337,0.4077,0.2288,0.1391,0.0471,6.3055,6.2522,6.2376,6.2522,6.3007,6.3991,6.6898,7.0885,7.2128,7.1689,6.9948,6.6804,6.566,6.5696,6.4088,6.315,6.3126,6.3126,6.3126,6.2957,6.2252,6.1887,6.1887,6.105,6.0553,6.0576,6.0379,6.0008,5.9438,5.9438,5.9109,5.8249,5.8093,5.718,5.5718,0.0,0.0,0.0,6.0773,6.2129,6.3151,6.4039,6.43,6.3796,6.3966,0.0,6.2575,6.2403,6.2205,6.1887,6.1199,0.0,0.0,0.0,0.0,0.0,0.0,0.0,0.0,0.0,0.0,0.0,5.2077,5.3282,5.6408,5.3379,5.1457,5.2095,5.0915,4.9727,4.9365,4.7999,4.6026,4.3837,4.2227,4.0419,3.8006,3.628,3.4819,3.3714,3.3083,3.2019,3.0386,2.9609,2.8974,2.7532,2.6955,2.6492,2.6188,2.5886,2.4837,2.3548,2.1841,2.0349,1.9686,1.7982,1.6284,1.4986,1.4781,1.4139,1.2625,1.1754,1.0874,1.0441,0.8709,0.7408,0.6973,0.6543,0.5889,0.5236,0.3759,0.2244,-0.0,-0.0,-0.0706,6.3047,6.3416,6.2933,6.3704,6.5293,6.6838,6.8308,6.9727,7.0685,7.0148,6.8343,6.6491,6.6268,6.7,6.5037,6.3753,6.344,6.3416,6.3295,6.2981,6.2787,6.2787,6.2787,6.2205,6.1692,6.1395,6.1027,6.0334,5.9438,5.9438,5.9263,5.858,5.8271,5.7715,5.7136,5.8381,5.8735,5.8249,6.0831,6.2909,6.4564,6.5582,6.5435,6.4509,6.541,6.5272,6.3889,6.3577,6.3271,6.2787,6.1567,6.0507,6.0031,5.8824,5.7759,0.0,5.4619,0.0,0.0,0.0,0.0,0.0,0.0,0.0,0.0,5.6047,5.369,5.2862,5.1551,5.0589,5.0608,4.9067,4.8224,4.7909,4.5187,4.3013,4.2319,3.9098,3.6614,3.5308,3.3235,3.1679,3.1129,2.998,2.8876,2.8133,2.7599,2.7425,2.7721,2.6975,2.5662,2.4183,2.3327,2.1841,1.993,1.8646,1.758,1.6492,1.5428,1.4355,1.3264,1.1745,1.0658,1.0441,0.9357,0.8057,0.7191,0.6973,0.5885,0.3271,0.1546,-0.0,-0.0,-0.0,-0.0,6.4592,6.4564,6.3945,6.5037,6.7059,6.8548,6.9201,6.9081,7.0022,6.9375,6.7947,6.7324,6.6961,6.6696,6.5752,6.5257,6.5146,6.5748,6.6024,6.5696,6.4896,6.4422,6.4255,6.3247,6.2569,6.2423,6.191,6.1223,6.0658,6.0334,5.9985,5.9506,5.933,5.8745,5.7982,5.8423,5.8975,5.8998,6.1524,6.4066,6.7,6.7534,6.7438,6.6949,6.7278,6.6473,6.4835,6.4485,6.3753,6.2617,6.1739,6.105,6.0507,6.0658,6.0288,0.0,0.0,0.0,0.0,0.0,0.0,0.0,0.0,0.0,0.0,0.0,5.5909,5.525,5.3608,5.2707,5.2707,5.122,5.0247,5.0209,4.734,4.5129,4.4453,4.1786,3.9339,3.7245,3.6046,3.4372,3.2208,3.1164,3.0083,2.8959,2.8904,2.8407,2.7165,2.6284,2.5441,2.4174,2.3336,2.2274,2.121,1.9509,1.7801,1.6707,1.6277,1.5847,1.456,1.3259,1.2389,1.2173,1.0441,0.8495,0.7846,0.6758,0.5887,0.4367,0.2194,-0.0,-0.0,-0.0678,-0.1146,6.665,6.5999,6.6137,6.7355,6.9333,7.047,7.046,6.9782,7.0492,6.9832,6.8419,6.8991,6.8508,6.7207,6.7175,6.7126,6.6981,6.7843,6.8103,6.7938,6.665,6.5899,6.5134,6.4031,6.2934,6.2408,6.2287,6.1732,6.0819,6.0967,6.0623,5.9692,6.0161,6.0168,5.9409,5.92,5.9666,6.0735,6.264,6.5216,6.8415,6.8968,6.9126,6.8968,6.8678,6.7669,6.6024,6.5392,6.4133,6.2261,6.2281,6.1916,6.117,6.267,0.0,0.0,0.0,0.0,0.0,0.0,0.0,0.0,0.0,6.0539,5.9852,0.0,5.7388,0.0,5.5768,5.4901,5.5111,5.3649,0.0,0.0,4.966,4.759,4.6438,4.4385,4.2131,3.9682,3.8485,3.6743,3.4028,3.2508,3.1476,3.0566,3.0267,2.9407,2.7032,2.6044,2.5477,2.4027,2.3476,2.2912,2.2062,2.009,1.8319,1.746,1.7085,1.6916,1.5853,1.4986,1.4117,1.347,1.1308,0.9364,0.8505,0.654,0.5452,0.5674,0.3271,0.0657,0.0443,-0.0446,-0.1122,6.8548,6.8097,7.0055,7.1649,7.2868,7.3309,7.3128,7.2483,7.2878,7.2167,7.0811,7.1653,7.1217,6.9782,6.9921,0.0,6.916,6.8997,6.8662,6.8097,6.7938,6.6734,6.4653,6.4493,6.301,6.0711,6.1677,6.0786,5.8809,6.0609,6.027,5.8127,6.0132,6.1583,6.212,6.1832,6.251,6.3958,6.456,6.5987,6.8071,6.9257,6.9727,6.9414,6.9257,6.8626,6.7322,6.6188,6.4428,6.2232,6.3718,6.3792,6.216,0.0,0.0,0.0,0.0,0.0,0.0,0.0,0.0,0.0,0.0,0.0,0.0,0.0,0.0,0.0,5.6479,0.0,5.7071,5.6037,0.0,0.0,0.0,5.122,4.9755,4.6877,4.4587,4.3396,0.0,0.0,3.7056,3.4203,3.2782,3.3423,3.1955,3.0188,2.8548,2.8114,2.6915,2.3425,2.3926,2.3972,2.1554,2.0523,1.9715,1.9058,1.7804,1.6688,1.6486,1.5626,1.4112,1.2817,1.1745,1.0666,0.9382,0.6318,0.3702,0.4142,0.3489,0.2836,0.1969,0.1105,0.067,7.147,7.336,7.4171,7.5163,7.6004,7.6139,7.5723,7.4985,7.5114,7.3822,7.1541,7.2161,7.1854,7.0922,7.1048,0.0,0.0,0.0,7.1607,7.0959,6.9335,6.7883,6.6672,6.4943,6.332,6.1824,6.1792,6.0968,5.9618,6.01,6.0944,6.1963,0.0,0.0,6.6512,6.4219,6.3994,6.5914,6.6144,6.7078,6.866,7.0514,7.1272,7.0966,7.0376,6.9283,6.7457,6.6325,6.5472,6.4533,6.4741,6.5045,0.0,0.0,0.0,0.0,0.0,0.0,0.0,0.0,0.0,0.0,0.0,6.2687,6.1642,0.0,0.0,0.0,5.7819,5.7236,5.7231,5.662,0.0,0.0,0.0,0.0,0.0,0.0,0.0,4.656,4.3655,4.0932,3.914,3.7634,3.6565,3.6162,3.4457,3.2618,3.0586,0.0,2.8155,2.5214,2.4309,2.3516,2.1838,2.1467,2.0821,1.9773,1.8768,1.8193,1.7961,1.7131,1.5835,1.4112,1.2822,1.1316,0.9596,0.8498,0.7405,0.6538,0.5452,0.4362,0.3707,0.3068,0.2422,7.4665,0.0,0.0,0.0,0.0,7.8322,7.758,7.655,7.6493,7.5176,7.2978,7.3243,0.0,0.0,0.0,0.0,0.0,0.0,7.3121,7.2526,7.0314,6.8556,6.7569,6.523,6.3607,6.2519,6.2134,6.1517,6.0574,6.0786,6.2481,6.5461,0.0,0.0,0.0,0.0,6.642,6.8519,6.7657,6.8057,6.9971,7.1547,7.2275,7.2483,7.1631,7.0221,6.8282,6.7752,6.7175,6.6185,6.6567,0.0,0.0,0.0,0.0,0.0,0.0,0.0,0.0,0.0,0.0,0.0,0.0,0.0,0.0,0.0,0.0,0.0,0.0,0.0,5.7335,5.6852,5.6972,0.0,0.0,0.0,0.0,0.0,0.0,0.0,0.0,0.0,4.2578,4.1556,4.0258,0.0,0.0,3.4681,3.1993,3.1479,3.0193,2.7475,2.6014,0.0,2.3747,2.2957,2.1923,2.0724,2.0332,1.9906,1.9506,1.8582,1.7345,1.5189,1.3896,1.2606,1.1108,1.1108,1.0887,0.9364,0.7626,0.632,0.5665,0.4796,0.4142,0.0,0.0,0.0,0.0,0.0,0.0,0.0,0.0,7.6596,7.6227,0.0,7.5475,0.0,0.0,0.0,0.0,0.0,7.3588,0.0,0.0,7.0532,6.8497,6.6073,6.5084,6.3756,6.2016,6.2504,6.2211,6.101,6.3073,0.0,0.0,0.0,0.0,0.0,0.0,7.0396,7.233,6.9209,6.9028,7.2058,7.1969,7.2324,7.3589,7.2811,7.1729,7.0194,7.0577,6.944,6.6275,6.9833,0.0,0.0,0.0,0.0,0.0,0.0,0.0,0.0,0.0,0.0,0.0,0.0,0.0,0.0,0.0,0.0,0.0,0.0,0.0,0.0,5.7272,0.0,0.0,0.0,0.0,0.0,0.0,0.0,0.0,0.0,0.0,4.8175,4.5926,4.2956,3.9558,0.0,0.0,0.0,0.0,3.3112,3.0349,2.9329,2.8481,2.7386,2.4882,2.2906,2.2421,0.0,0.0,2.0391,2.0148,1.8853,1.5405,1.5184,1.4968,1.3891,1.366,1.3239,1.1718,1.0425,0.9133,0.8048,0.718,0.588,0.0,0.0,0.0,0.0,0.0,0.0,0.0,0.0,0.0,7.8694,0.0,7.7257,0.0,0.0,0.0,0.0,0.0,0.0,0.0,0.0,7.0569,6.8887,6.7609,6.4971,6.3607,0.0,6.2727,6.3989,0.0,0.0,0.0,0.0,0.0,0.0,0.0,0.0,7.2523,7.4904,7.2783,7.1856,7.2565,7.4147,7.4643,7.4085,7.382,7.2683,7.0815,7.0108,6.9402,0.0,0.0,0.0,0.0,0.0,0.0,0.0,0.0,0.0,0.0,0.0,0.0,0.0,0.0,0.0,0.0,0.0,0.0,0.0,0.0,0.0,0.0,0.0,5.8599,0.0,0.0,0.0,0.0,0.0,0.0,0.0,0.0,0.0,5.1724,4.9231,4.5955,4.252,4.0753,3.903,3.7039,0.0,0.0,0.0,0.0,0.0,0.0,0.0,2.6078,2.4736,2.4993,2.4784,2.2949,2.2231,2.1194,1.8189,0.0,0.0,1.7013,1.7712,1.7836,1.6569,1.5636,1.4466,1.2773,1.1691,1.0617,0.0,0.0,0.0,0.0,0.0,0.0,0.0,0.0,0.0,7.9819,7.8697,0.0,0.0,0.0,0.0,0.0,0.0,0.0,0.0,0.0,0.0,0.0,6.907,6.6433,0.0,0.0,0.0,0.0,0.0,0.0,0.0,0.0,0.0,0.0,0.0,0.0,7.5217,7.7339,7.5294,7.3733,7.3165,7.4638,7.5055,7.4214,7.3955,7.3409,7.2833,0.0,0.0,0.0,0.0,0.0,0.0,0.0,0.0,0.0,0.0,0.0,0.0,0.0,0.0,0.0,0.0,0.0,0.0,0.0,0.0,0.0,0.0,0.0,0.0,0.0,5.9054,0.0,0.0,0.0,0.0,0.0,0.0,0.0,0.0,0.0,0.0,0.0,4.9136,4.5869,4.3981,4.2266,4.0753,3.939,3.8119,0.0,0.0,0.0,0.0,0.0,0.0,0.0,0.0,0.0,0.0,0.0,0.0,0.0,0.0,2.4847,2.3856,2.4581,2.497,2.3746,0.0,0.0,0.0,0.0,0.0,0.0,0.0,0.0,0.0,0.0,0.0,0.0,0.0,0.0,0.0,0.0,0.0,0.0,7.5664,0.0,0.0,0.0,0.0,0.0,0.0,0.0,0.0,0.0,0.0,0.0,0.0,0.0,0.0,0.0,0.0,0.0,0.0,0.0,0.0,0.0,0.0,7.8366,7.9768,7.6442,7.4478,7.3951,7.356,7.3704,7.3969,7.333,7.4042,7.632,0.0,0.0,0.0,0.0,0.0,0.0,0.0,0.0,0.0,0.0,0.0,0.0,0.0,0.0,0.0,0.0,0.0,0.0,0.0,0.0,0.0,0.0,0.0,0.0,0.0,0.0,5.558,5.5726,5.6283,0.0,0.0,0.0,0.0,0.0,0.0,0.0,0.0,0.0,0.0,4.7989,4.6164,4.3292,4.1676,4.0431,3.923,3.7542,3.5972,3.4786,3.2993,3.1658,0.0,0.0,0.0,0.0,0.0,0.0,0.0,0.0,0.0,0.0,0.0,0.0,0.0,0.0,0.0,0.0,0.0,0.0,0.0,0.0,0.0,0.0,0.0,0.0,0.0,0.0,0.0,0.0,0.0,0.0,0.0,0.0,0.0,0.0,0.0,0.0,0.0,0.0,0.0,0.0,0.0,0.0,0.0,0.0,0.0,0.0,0.0,0.0,0.0,0.0,0.0,0.0,0.0,0.0,7.8204,8.0495,7.6814,7.4769,7.4567,7.5332,7.5193,7.4136,7.4383,7.5156,0.0,0.0,0.0,0.0,0.0,0.0,0.0,0.0,0.0,0.0,0.0,0.0,0.0,0.0,0.0,0.0,0.0,0.0,0.0,0.0,0.0,0.0,0.0,0.0,0.0,0.0,0.0,0.0,5.6586,5.6438,5.6593,0.0,0.0,0.0,0.0,0.0,0.0,0.0,0.0,0.0,0.0,5.0145,4.735,4.5907,4.4377,4.291,4.1205,3.9375,3.7672,3.5733,3.4014,3.2865,0.0,0.0,0.0,0.0,0.0,0.0,0.0,0.0,0.0,0.0,0.0,0.0,0.0,0.0,0.0,0.0,0.0,0.0,0.0,0.0,0.0,0.0,0.0,0.0,0.0,0.0,0.0,0.0,0.0,0.0,0.0,0.0,0.0,0.0,0.0,0.0,0.0,0.0,0.0,0.0,0.0,0.0,0.0,0.0,0.0,0.0,0.0,0.0,0.0,0.0,0.0,0.0,0.0,7.8992,8.1759,7.7816,7.5809,7.5798,7.5999,7.5605,7.4383,7.4718,7.5634,0.0,0.0,0.0,0.0,0.0,0.0,0.0,0.0,0.0,0.0,0.0,0.0,0.0,0.0,0.0,0.0,0.0,0.0,0.0,0.0,0.0,0.0,0.0,0.0,0.0,0.0,0.0,0.0,5.6739,5.663,5.6654,0.0,0.0,0.0,0.0,0.0,0.0,0.0,0.0,0.0,0.0,5.3232,5.0743,4.8806,0.0,0.0,4.4009,4.2554,4.0163,3.8404,3.7056,3.5349,3.4786,0.0,0.0,0.0,0.0,0.0,0.0,0.0,0.0,0.0,0.0,0.0,0.0,0.0,0.0,0.0,0.0,0.0,0.0,0.0,0.0,0.0,0.0,0.0,0.0,0.0,0.0,0.0,0.0,0.0,0.0,0.0,0.0,0.0,0.0,0.0,0.0,0.0,0.0,0.0,0.0,0.0,0.0,0.0,0.0,0.0,0.0,0.0,0.0,0.0,0.0,0.0,0.0,0.0,8.3048,7.9238,7.7279,7.7357,7.6023,7.5223,7.4706,7.4332,7.563,0.0,0.0,0.0,0.0,0.0,0.0,0.0,0.0,0.0,0.0,0.0,0.0,0.0,0.0,0.0,0.0,0.0,0.0,0.0,0.0,0.0,0.0,0.0,0.0,0.0,0.0,0.0,0.0,0.0,0.0,0.0,0.0,0.0,0.0,0.0,0.0,0.0,0.0,0.0,0.0,0.0,5.5755,5.3611,5.0881,4.8215,0.0,0.0,4.5643,4.2582,4.1627,4.0707,3.9187,0.0,0.0,0.0,0.0,0.0,0.0,0.0,0.0,0.0,0.0,0.0,0.0,0.0,0.0,0.0,0.0,0.0,0.0,0.0,0.0,0.0,0.0,0.0,0.0,0.0,0.0,0.0,0.0,0.0,0.0,0.0,0.0,0.0,0.0,0.0,0.0,0.0,0.0,0.0,0.0,0.0,0.0,0.0,0.0,0.0,0.0,0.0,0.0,0.0,0.0,0.0,0.0,0.0,0.0,8.3263,7.8216,7.6145,7.7357,7.6987,7.6148,7.4764,7.5171,0.0,0.0,0.0,0.0,0.0,0.0,0.0,0.0,0.0,0.0,0.0,0.0,0.0,0.0,0.0,0.0,0.0,0.0,0.0,0.0,0.0,0.0,0.0,0.0,0.0,0.0,0.0,5.5695,0.0,0.0,0.0,0.0,0.0,0.0,0.0,0.0,0.0,0.0,0.0,0.0,0.0,0.0,6.0609,5.7602,5.5721,5.3664,0.0,0.0,4.8889,4.8363,4.5949,4.4019,0.0,0.0,0.0,0.0,0.0,0.0,0.0,0.0,0.0,0.0,0.0,0.0,0.0,0.0,0.0,0.0,0.0,0.0,0.0,0.0,0.0,0.0,0.0,0.0,0.0,0.0,0.0,0.0,0.0,0.0,0.0,0.0,0.0,0.0,0.0,0.0,0.0,0.0,0.0,0.0,0.0,0.0,0.0,0.0,0.0,0.0,0.0,0.0,0.0,0.0,0.0,0.0,0.0,0.0,8.1142,8.32,7.8703,7.6911,7.8202,7.759,7.6642,7.5471,7.5919,7.6995,0.0,0.0,0.0,0.0,0.0,0.0,0.0,0.0,0.0,0.0,0.0,0.0,0.0,0.0,0.0,0.0,0.0,0.0,0.0,0.0,0.0,0.0,0.0,0.0,0.0,0.0,0.0,0.0,0.0,0.0,0.0,0.0,0.0,0.0,0.0,0.0,0.0,0.0,0.0,0.0,0.0,0.0,5.9394,5.7627,0.0,0.0,0.0,5.1279,5.0266,0.0,0.0,0.0,0.0,0.0,0.0,0.0,0.0,0.0,0.0,0.0,0.0,0.0,0.0,0.0,0.0,0.0,0.0,0.0,0.0,0.0,0.0,0.0,0.0,0.0,0.0,0.0,0.0,0.0,0.0,0.0,0.0,0.0,0.0,0.0,0.0,0.0,0.0,0.0,0.0,0.0,0.0,0.0,0.0,0.0,0.0,0.0,0.0,0.0,0.0,0.0,0.0,0.0,0.0,0.0,0.0,0.0,8.2978,7.9742,7.8323,7.9118,7.7921,7.7028,7.6716,7.6606,7.7134,0.0,0.0,0.0,0.0,0.0,0.0,0.0,0.0,0.0,0.0,0.0,0.0,0.0,0.0,0.0,0.0,0.0,0.0,0.0,0.0,0.0,0.0,0.0,0.0,0.0,0.0,0.0,0.0,0.0,0.0,0.0,0.0,0.0,0.0,0.0,0.0,0.0,0.0,0.0,0.0,0.0,5.9487,6.0053,5.8198,5.6285,0.0,0.0,5.3442,5.0908,4.984,0.0,0.0,0.0,0.0,0.0,0.0,0.0,0.0,0.0,0.0,0.0,0.0,0.0,0.0,0.0,0.0,0.0,0.0,0.0,0.0,0.0,0.0,0.0,0.0,0.0,0.0,0.0,0.0,0.0,0.0,0.0,0.0,0.0,0.0,0.0,0.0,0.0,0.0,0.0,0.0,0.0,0.0,0.0,0.0,0.0,0.0,0.0,0.0,0.0,0.0,0.0,0.0,0.0,0.0,0.0,0.0,8.1522,7.7868,7.6878,7.8459,7.7728,7.7426,7.7549,7.6606,7.6995,0.0,0.0,0.0,0.0,0.0,0.0,0.0,0.0,0.0,0.0,0.0,0.0,0.0,0.0,0.0,0.0,0.0,0.0,0.0,0.0,0.0,0.0,0.0,0.0,0.0,0.0,0.0,0.0,0.0,0.0,0.0,0.0,0.0,0.0,0.0,0.0,0.0,0.0,0.0,0.0,0.0,6.1114,6.0646,5.8853,0.0,0.0,0.0,0.0,5.697,5.569,0.0,0.0,0.0,0.0,0.0,0.0,0.0,0.0,0.0,0.0,0.0,0.0,0.0,0.0,0.0,0.0,0.0,0.0,0.0,0.0,0.0,0.0,0.0,0.0,0.0,0.0,0.0,0.0,0.0,0.0,0.0,0.0,0.0,0.0,0.0,0.0,0.0,0.0,0.0,0.0,0.0,0.0,0.0,0.0,0.0,0.0,0.0,0.0,0.0,0.0,0.0,0.0,0.0,0.0,0.0,0.0,8.1056,7.8666,7.7305,7.7085,7.7372,7.7258,7.6742,7.6674,7.7382,0.0,0.0,0.0,0.0,0.0,0.0,0.0,0.0,0.0,0.0,0.0,0.0,0.0,0.0,0.0,0.0,0.0,0.0,0.0,0.0,0.0,0.0,0.0,0.0,0.0,0.0,0.0,0.0,0.0,0.0,0.0,0.0,0.0,0.0,0.0,0.0,0.0,0.0,0.0,0.0,6.3146,6.1354,6.1071,0.0,0.0,0.0,0.0,0.0,0.0,5.7468,5.7102,0.0,0.0,0.0,0.0,0.0,0.0,0.0,0.0,0.0,0.0,0.0,0.0,0.0,0.0,0.0,0.0,0.0,0.0,0.0,0.0,0.0,0.0,0.0,0.0,0.0,0.0,0.0,0.0,0.0,0.0,0.0,0.0,0.0,0.0,0.0,0.0,0.0,0.0,0.0,0.0,0.0,0.0,0.0,0.0,0.0,0.0,0.0,0.0,0.0,0.0,0.0,0.0,0.0,0.0,0.0,8.0915,7.9648,7.822,7.6385,7.7141,7.7008,7.6168,7.6686,7.7794,7.9276,0.0,0.0,0.0,0.0,0.0,0.0,0.0,0.0,0.0,0.0,0.0,0.0,0.0,0.0,0.0,0.0,0.0,0.0,0.0,0.0,0.0,0.0,0.0,0.0,0.0,0.0,0.0,0.0,0.0,0.0,0.0,0.0,0.0,0.0,0.0,0.0,0.0,0.0,0.0,6.3542,6.1518,0.0,0.0,0.0,0.0,0.0,0.0,0.0,0.0,5.8198,0.0,0.0,0.0,0.0,0.0,0.0,0.0,0.0,0.0,0.0,0.0,0.0,0.0,0.0,0.0,0.0,0.0,0.0,0.0,0.0,0.0,0.0,0.0,0.0,0.0,0.0,0.0,0.0,0.0,0.0,0.0,0.0,0.0,0.0,0.0,0.0,0.0,0.0,0.0,0.0,0.0,0.0,0.0,0.0,0.0,0.0,0.0,0.0,0.0,0.0,0.0,0.0,0.0,0.0,0.0,0.0,7.8477,7.7705,7.8601,7.7185,7.7039,7.816,7.7235,7.7764,8.0035,0.0,0.0,0.0,0.0,0.0,0.0,0.0,0.0,0.0,0.0,0.0,0.0,0.0,0.0,0.0,0.0,0.0,0.0,0.0,0.0,0.0,0.0,0.0,0.0,0.0,0.0,0.0,0.0,0.0,0.0,0.0,0.0,0.0,0.0,0.0,0.0,0.0,0.0,7.0007,6.6278,0.0,0.0,0.0,0.0,0.0,0.0,0.0,0.0,6.1381,0.0,0.0,0.0,0.0,0.0,0.0,0.0,0.0,0.0,0.0,0.0,0.0,0.0,0.0,0.0,0.0,0.0,0.0,0.0,0.0,0.0,0.0,0.0,0.0,0.0,0.0,0.0,0.0,0.0,0.0,0.0,0.0,0.0,0.0,0.0,0.0,0.0,0.0,0.0,0.0,0.0,0.0,0.0,0.0,0.0,0.0,0.0,0.0,0.0,0.0,0.0,0.0,0.0,0.0,0.0,0.0,0.0,0.0,7.8432,7.8229,7.7862,7.785,7.8132,7.816,7.8353,0.0,0.0,0.0,0.0,0.0,0.0,0.0,0.0,0.0,0.0,0.0,0.0,0.0,0.0,0.0,0.0,0.0,0.0,0.0,0.0,0.0,0.0,0.0,0.0,0.0,0.0,0.0,0.0,0.0,0.0,0.0,0.0,0.0,0.0,0.0,0.0,0.0,0.0,0.0,0.0,0.0,0.0,0.0,0.0,0.0,0.0,0.0,0.0,0.0,0.0,0.0,0.0,0.0,0.0,0.0,0.0,0.0,0.0,0.0,0.0,0.0,0.0,0.0,0.0,0.0,0.0,0.0,0.0,0.0,0.0,0.0,0.0,0.0,0.0,0.0,0.0,0.0,0.0,0.0,0.0,0.0,0.0,0.0,0.0,0.0,0.0,0.0,0.0,0.0,0.0,0.0,0.0,0.0,0.0,0.0,0.0,0.0,0.0,0.0,0.0,0.0,0.0,0.0,0.0,0.0,0.0,0.0,0.0,7.9483,7.7827,7.8601,7.8747,7.8129,7.9328,7.9237,0.0,0.0,0.0,0.0,0.0,0.0,0.0,0.0,0.0,0.0,0.0,0.0,0.0,0.0,0.0,0.0,0.0,0.0,0.0,0.0,0.0,0.0,0.0,0.0,0.0,0.0,0.0,0.0,0.0,0.0,0.0,0.0,0.0,0.0,0.0,0.0,0.0,0.0,0.0,0.0,0.0,0.0,0.0,0.0,0.0,0.0,0.0,0.0,6.3858,0.0,0.0,0.0,0.0,0.0,0.0,0.0,0.0,0.0,0.0,0.0,0.0,0.0,0.0,0.0,0.0,0.0,0.0,0.0,0.0,0.0,0.0,0.0,0.0,0.0,0.0,0.0,0.0,0.0,0.0,0.0,0.0,0.0,0.0,0.0,0.0,0.0,0.0,0.0,0.0,0.0,0.0,0.0,0.0,0.0,0.0,0.0,0.0,0.0,0.0,0.0,0.0,0.0,0.0,0.0,0.0,0.0,0.0,0.0,8.0789,7.8754,7.9126,7.9272,7.9167,8.0431,8.0357,0.0,0.0,0.0,0.0,0.0,0.0,0.0,0.0,0.0,0.0,0.0,0.0,0.0,0.0,0.0,0.0,0.0,0.0,0.0,0.0,0.0,0.0,0.0,0.0,0.0,0.0,0.0,0.0,0.0,0.0,0.0,0.0,0.0,0.0,0.0,0.0,0.0,0.0,0.0,0.0,0.0,0.0,0.0,0.0,0.0,0.0,0.0,0.0,0.0,0.0,0.0,0.0,0.0,0.0,0.0,0.0,0.0,0.0,0.0,0.0,0.0,0.0,0.0,0.0,0.0,0.0,0.0,0.0,0.0,0.0,0.0,0.0,0.0,0.0,0.0,0.0,0.0,0.0,0.0,0.0,0.0,0.0,0.0,0.0,0.0,0.0,0.0,0.0,0.0,0.0,0.0,0.0,0.0,0.0,0.0,0.0,0.0,0.0,0.0,0.0,0.0,0.0,0.0,0.0,0.0,0.0,0.0,0.0,8.2321,8.1015,8.0485,7.9762,7.8781,8.0021,7.9615,0.0,0.0,0.0,0.0,0.0,0.0,0.0,0.0,0.0,0.0,0.0,0.0,0.0,0.0,0.0,0.0,0.0,0.0,0.0,0.0,0.0,0.0,0.0,0.0,0.0,0.0,0.0,0.0,0.0,0.0,0.0,0.0,0.0,0.0,0.0,0.0,0.0,0.0,0.0,0.0,0.0,0.0,0.0,0.0,0.0,0.0,0.0,0.0,0.0,0.0,0.0,0.0,0.0,0.0,0.0,0.0,0.0,0.0,0.0,0.0,0.0,0.0,0.0,0.0,0.0,0.0,0.0,0.0,0.0,0.0,0.0,0.0,0.0,0.0,0.0,0.0,0.0,0.0,0.0,0.0,0.0,0.0,0.0,0.0,0.0,0.0,0.0,0.0,0.0,0.0,0.0,0.0,0.0,0.0,0.0,0.0,0.0,0.0,0.0,0.0,0.0,0.0,0.0,0.0,0.0,0.0,0.0,0.0,0.0,8.1043,8.03,7.9644,7.9084,7.9615,7.8753,0.0,0.0,0.0,0.0,0.0,0.0,0.0,0.0,0.0,0.0,0.0,0.0,0.0,0.0,0.0,0.0,0.0,0.0,0.0,0.0,0.0,0.0,0.0,0.0,0.0,0.0,0.0,0.0,0.0,0.0,0.0,0.0,0.0,0.0,0.0,0.0,0.0,0.0,0.0,0.0,0.0,0.0,0.0,0.0,0.0,0.0,0.0,0.0,0.0,0.0,0.0,0.0,0.0,0.0,0.0,0.0,0.0,0.0,0.0,0.0,0.0,0.0,0.0,0.0,0.0,0.0,0.0,0.0,0.0,0.0,0.0,0.0,0.0,0.0,0.0,0.0,0.0,0.0,0.0,0.0,0.0,0.0,0.0,0.0,0.0,0.0,0.0,0.0,0.0,0.0,0.0,0.0,0.0,0.0,0.0,0.0,0.0,0.0,0.0,0.0,0.0,0.0,0.0,0.0,0.0,0.0,0.0,0.0,0.0,7.7487,7.758,7.8663,8.0504,7.9629,7.8771,0.0,0.0,0.0,0.0,0.0,0.0,0.0,0.0,0.0,0.0,0.0,0.0,0.0,0.0,0.0,0.0,0.0,0.0,0.0,0.0,0.0,0.0,0.0,0.0,0.0,0.0,0.0,0.0,0.0,0.0,0.0,0.0,0.0,0.0,0.0,0.0,0.0,0.0,0.0,0.0,0.0,0.0,0.0,0.0,0.0,0.0,0.0,0.0,0.0,0.0,0.0,0.0,0.0,0.0,0.0,0.0,0.0,0.0,0.0,0.0,0.0,0.0,0.0,0.0,0.0,0.0,0.0,0.0,0.0,0.0,0.0,0.0,0.0,0.0,0.0,0.0,0.0,0.0,0.0,0.0,0.0,0.0,0.0,0.0,0.0,0.0,0.0,0.0,0.0,0.0,0.0,0.0,0.0,0.0,0.0,0.0,0.0,0.0,0.0,0.0,0.0,0.0,0.0,0.0,0.0,0.0,0.0,0.0,0.0,7.9836,8.0048,7.9774,7.8908,7.8871,7.7869,7.6088,0.0,0.0,0.0,0.0,0.0,0.0,0.0,0.0,0.0,0.0,0.0,0.0,0.0,0.0,0.0,0.0,0.0,0.0,0.0,0.0,0.0,0.0,0.0,0.0,0.0,0.0,0.0,0.0,0.0,0.0,0.0,0.0,0.0,0.0,0.0,0.0,0.0,0.0,0.0,0.0,0.0,0.0,0.0,0.0,0.0,0.0,0.0,0.0,0.0,0.0,0.0,0.0,0.0,0.0,0.0,0.0,0.0,0.0,0.0,0.0,0.0,0.0,0.0,0.0,0.0,0.0,0.0,0.0,0.0,0.0,0.0,0.0,0.0,0.0,0.0,0.0,0.0,0.0,0.0,0.0,0.0,0.0,0.0,0.0,0.0,0.0,0.0,0.0,0.0,0.0,0.0,0.0,0.0,0.0,0.0,0.0,0.0,0.0,0.0,0.0,0.0,0.0,0.0,0.0,0.0,0.0,0.0,0.0,8.187,8.0463,7.9265,7.876,7.8383,7.7403,0.0,0.0,0.0,0.0,0.0,0.0,0.0,0.0,0.0,0.0,0.0,0.0,0.0,0.0,0.0,0.0,0.0,0.0,0.0,0.0,0.0,0.0,0.0,0.0,0.0,0.0,0.0,0.0,0.0,0.0,0.0,0.0,0.0,0.0,0.0,0.0,0.0,0.0,0.0,0.0,0.0,0.0,0.0,0.0,0.0,0.0,0.0,0.0,0.0,0.0,0.0,0.0,0.0,0.0,0.0,0.0,0.0,0.0,0.0,0.0,0.0,0.0,0.0,0.0,0.0,0.0,0.0,0.0,0.0,0.0,0.0,0.0,0.0,0.0,0.0,0.0,0.0,0.0,0.0,0.0,0.0,0.0,0.0,0.0,0.0,0.0,0.0,0.0,0.0,0.0,0.0,0.0,0.0,0.0,0.0,0.0,0.0,0.0,0.0,0.0,0.0,0.0,0.0,0.0,0.0,0.0,0.0,0.0,8.1902,8.3042,7.7763,7.6843,8.0394,7.8691,7.7596,0.0,0.0,0.0,0.0,0.0,0.0,0.0,0.0,0.0,0.0,0.0,0.0,0.0,0.0,0.0,0.0,0.0,0.0,0.0,0.0,0.0,0.0,0.0,0.0,0.0,0.0,0.0,0.0,0.0,0.0,0.0,0.0,0.0,0.0,0.0,0.0,0.0,0.0,0.0,0.0,0.0,0.0,0.0,0.0,0.0,0.0,0.0,0.0,0.0,0.0,0.0,0.0,0.0,0.0,0.0,0.0,0.0,0.0,0.0,0.0,0.0,0.0,0.0,0.0,0.0,0.0,0.0,0.0,0.0,0.0,0.0,0.0,0.0,0.0,0.0,0.0,0.0,0.0,0.0,0.0,0.0,0.0,0.0,0.0,0.0,0.0,0.0,0.0,0.0,0.0,0.0,0.0,0.0,0.0,0.0,0.0,0.0,0.0,0.0,0.0,0.0,0.0,0.0,0.0,0.0,0.0,0.0,0.0,0.0,8.0824,0.0,7.878,0.0,7.8659,7.7232,0.0,0.0,0.0,0.0,0.0,0.0,0.0,0.0,0.0,0.0,0.0,0.0,0.0,0.0,0.0,0.0,0.0,0.0,0.0,0.0,0.0,0.0,0.0,0.0,0.0,0.0,0.0,0.0,0.0,0.0,0.0,0.0,0.0,0.0,0.0,0.0,0.0,0.0,0.0,0.0,0.0,0.0,0.0,0.0,0.0,0.0,0.0,0.0,0.0,0.0,0.0,0.0,0.0,0.0,0.0,0.0,0.0,0.0,0.0,0.0,0.0,0.0,0.0,0.0,0.0,0.0,0.0,0.0,0.0,0.0,0.0,0.0,0.0,0.0,0.0,0.0,0.0,0.0,0.0,0.0,0.0,0.0,0.0,0.0,0.0,0.0,0.0,0.0,0.0,0.0,0.0,0.0,0.0,0.0,0.0,0.0,0.0,0.0,0.0,0.0,0.0,0.0,0.0,0.0,0.0,0.0,0.0,0.0,0.0,7.7895,7.8654,7.9705,8.0907,7.8774,7.7422,0.0,0.0,0.0,0.0,0.0,0.0,0.0,0.0,0.0,0.0,0.0,0.0,0.0,0.0,0.0,0.0,0.0,0.0,0.0,0.0,0.0,0.0,0.0,0.0,0.0,0.0,0.0,0.0,0.0,0.0,0.0,0.0,0.0,0.0,0.0,0.0,0.0,0.0,0.0,0.0,0.0,0.0,0.0,0.0,0.0,0.0,0.0,0.0,0.0,0.0,0.0,0.0,0.0,0.0,0.0,0.0,0.0,0.0,0.0,0.0,0.0,0.0,0.0,0.0,0.0,0.0,0.0,0.0,0.0,0.0,0.0,0.0,0.0,0.0,0.0,0.0,0.0,0.0,0.0,0.0,0.0,0.0,0.0,0.0,0.0,0.0,0.0,0.0,0.0,0.0,0.0,0.0,0.0,0.0,0.0,0.0,0.0,0.0,0.0,0.0,0.0,0.0,0.0,0.0,0.0,0.0,0.0,0.0,0.0,0.0,7.7574,7.9198,7.9393,7.8782,7.8077,0.0,0.0,0.0,0.0,0.0,0.0,0.0,0.0,0.0,0.0,0.0,0.0,0.0,0.0,0.0,0.0,0.0,0.0,0.0,0.0,0.0,0.0,0.0,0.0,0.0,0.0,0.0,0.0,0.0,0.0,0.0,0.0,0.0,0.0,0.0,0.0,0.0,0.0,0.0,0.0,0.0,0.0,0.0,0.0,0.0,0.0,0.0,0.0,0.0,0.0,0.0,0.0,0.0,0.0,0.0,0.0,0.0,0.0,0.0,0.0,0.0,0.0,0.0,0.0,0.0,0.0,0.0,0.0,0.0,0.0,0.0,0.0,0.0,0.0,0.0,0.0,0.0,0.0,0.0,0.0,0.0,0.0,0.0,0.0,0.0,0.0,0.0,0.0,0.0,0.0,0.0,0.0,0.0,0.0,0.0,0.0,0.0,0.0,0.0,0.0,0.0,0.0,0.0,0.0,0.0,0.0,0.0,0.0,0.0,0.0,7.6725,0.0,7.6408,7.6258,7.6729,7.75,0.0,0.0,0.0,0.0,0.0,0.0,0.0,0.0,0.0,0.0,0.0,0.0,0.0,0.0,0.0,0.0,0.0,0.0,0.0,0.0,0.0,0.0,0.0,0.0,0.0,0.0,0.0,0.0,0.0,0.0,0.0,0.0,0.0,0.0,0.0,0.0,0.0,0.0,0.0,0.0,0.0,0.0,0.0,0.0,0.0,0.0,0.0,0.0,0.0,0.0,0.0,0.0,0.0,0.0,0.0,0.0,0.0,0.0,0.0,0.0,0.0,0.0,0.0,0.0,0.0,0.0,0.0,0.0,0.0,0.0,0.0,0.0,0.0,0.0,0.0,0.0,0.0,0.0,0.0,0.0,0.0,0.0,0.0,0.0,0.0,0.0,0.0,0.0,0.0,0.0,0.0,0.0,0.0,0.0,0.0,0.0,0.0,0.0,0.0,0.0,0.0,0.0,0.0,0.0,0.0,0.0,0.0,0.0,0.0,0.0,0.0,7.595,7.6028,7.6518,0.0,0.0,0.0,0.0,0.0,0.0,0.0,0.0,0.0,0.0,0.0,0.0,0.0,0.0,0.0,0.0,0.0,0.0,0.0,0.0,0.0,0.0,0.0,0.0,0.0,0.0,0.0,0.0,0.0,0.0,0.0,0.0,0.0,0.0,0.0,0.0,0.0,0.0,0.0,0.0,0.0,0.0,0.0,0.0,0.0,0.0,0.0,0.0,0.0,0.0,0.0,0.0,0.0,0.0,0.0,0.0,0.0,0.0,0.0,0.0,0.0,0.0,0.0,0.0,0.0,0.0,0.0,0.0,0.0,0.0,0.0,0.0,0.0,0.0,0.0,0.0,0.0,0.0,0.0,0.0,0.0,0.0,0.0,0.0,0.0,0.0,0.0,0.0,0.0,0.0,0.0,0.0,0.0,0.0,0.0,0.0,0.0,0.0,0.0,0.0,0.0,0.0,0.0,0.0,0.0,0.0,0.0,0.0,0.0,0.0,0.0,7.5587,7.682,7.6852,0.0,7.6596,0.0,0.0,0.0,0.0,0.0,0.0,0.0,0.0,0.0,0.0,0.0,0.0,0.0,0.0,0.0,0.0,0.0,0.0,0.0,0.0,0.0,0.0,0.0,0.0,0.0,0.0,0.0,0.0,0.0,0.0,0.0,0.0,0.0,0.0,0.0,0.0,0.0,0.0,0.0,0.0,0.0,0.0,0.0,0.0,0.0,0.0,0.0,0.0,0.0,0.0,0.0,0.0,0.0,0.0,0.0,0.0,0.0,0.0,0.0,0.0,0.0,0.0,0.0,0.0,0.0,0.0,0.0,0.0,0.0,0.0,0.0,0.0,0.0,0.0,0.0,0.0,0.0,0.0,0.0,0.0,0.0,0.0,0.0,0.0,0.0,0.0,0.0,0.0,0.0,0.0,0.0,0.0,0.0,0.0,0.0,0.0,0.0,0.0,0.0,0.0,0.0,0.0,0.0,0.0,0.0,0.0,0.0,0.0,0.0,0.0,0.0,0.0,7.5241,7.521,7.5429,0.0,0.0,0.0,0.0,0.0,0.0,0.0,0.0,0.0,0.0,0.0,0.0,0.0,0.0,0.0,0.0,0.0,0.0,0.0,0.0,0.0,0.0,0.0,0.0,0.0,0.0,0.0,0.0,0.0,0.0,0.0,0.0,0.0,0.0,0.0,0.0,0.0,0.0,0.0,0.0,0.0,0.0,0.0,0.0,0.0,0.0,0.0,0.0,0.0,0.0,0.0,0.0,0.0,0.0,0.0,0.0,0.0,0.0,0.0,0.0,0.0,0.0,0.0,0.0,0.0,0.0,0.0,0.0,0.0,0.0,0.0,0.0,0.0,0.0,0.0,0.0,0.0,0.0,0.0,0.0,0.0,0.0,0.0,0.0,0.0,0.0,0.0,0.0,0.0,0.0,0.0,0.0,0.0,0.0,0.0,0.0,0.0,0.0,0.0,0.0,0.0,0.0,0.0,0.0,0.0,0.0,0.0,0.0,0.0,0.0,7.4438,7.4737,7.5367,7.5509,7.5203,0.0,0.0,0.0,0.0,0.0,0.0,0.0,0.0,0.0,0.0,0.0,0.0,0.0,0.0,0.0,0.0,0.0,0.0,0.0,0.0,0.0,0.0,0.0,0.0,0.0,0.0,0.0,0.0,0.0,0.0,0.0,0.0,0.0,0.0,0.0,0.0,0.0,0.0,0.0,0.0,0.0,0.0,0.0,0.0,0.0,0.0,0.0,0.0,0.0,0.0,0.0,0.0,0.0,0.0,0.0,0.0,0.0,0.0,0.0,0.0,0.0,0.0,0.0,0.0,0.0,0.0,0.0,0.0,0.0,0.0,0.0,0.0,0.0,0.0,0.0,0.0,0.0,0.0,0.0,0.0,0.0,0.0,0.0,0.0,0.0,0.0,0.0,0.0,0.0,0.0,0.0,0.0,0.0,0.0,0.0,0.0,0.0,0.0,0.0,0.0,0.0,0.0,0.0,0.0,0.0,0.0,0.0,0.0,0.0,0.0,0.0,0.0,0.0,0.0,7.5387,0.0,0.0,0.0,0.0,0.0,0.0,0.0,0.0,0.0,0.0,0.0,0.0,0.0,0.0,0.0,0.0,0.0,0.0,0.0,0.0,0.0,0.0,0.0,0.0,0.0,0.0,0.0,0.0,0.0,0.0,0.0,0.0,0.0,0.0,0.0,0.0,0.0,0.0,0.0,0.0,0.0,0.0,0.0,0.0,0.0,0.0,0.0,0.0,0.0,0.0,0.0,0.0,0.0,0.0,0.0,0.0,0.0,0.0,0.0,0.0,0.0,0.0,0.0,0.0,0.0,0.0,0.0,0.0,0.0,0.0,0.0,0.0,0.0,0.0,0.0,0.0,0.0,0.0,0.0,0.0,0.0,0.0,0.0,0.0,0.0,0.0,0.0,0.0,0.0,0.0,0.0,0.0,0.0,0.0,0.0,0.0,0.0,0.0,0.0,0.0,0.0,0.0,0.0,0.0,0.0,0.0,0.0,0.0,0.0,0.0,0.0,0.0,0.0,0.0,0.0,0.0,0.0,0.0,0.0,0.0,0.0,0.0,0.0,0.0,0.0,0.0,0.0,0.0,0.0,0.0,0.0,0.0,0.0,0.0,0.0,0.0,0.0,0.0,0.0,0.0,0.0,0.0,0.0,0.0,0.0,0.0,0.0,0.0,0.0,0.0,0.0,0.0,0.0,0.0,0.0,0.0,0.0,0.0,0.0,0.0,0.0,0.0,0.0,0.0,0.0,0.0,0.0,0.0,0.0,0.0,0.0,0.0,0.0,0.0,0.0,0.0,0.0,0.0,0.0,0.0,0.0,0.0,0.0,0.0,0.0,0.0,0.0,0.0,0.0,0.0,0.0,0.0,0.0,0.0,0.0,0.0,0.0,0.0,0.0,0.0,0.0,0.0,0.0,0.0,0.0,0.0,0.0,0.0,0.0,0.0,0.0,0.0,0.0,0.0,0.0,0.0,0.0,0.0,0.0,0.0,0.0,0.0,0.0,0.0,0.0,0.0,0.0,0.0,0.0,0.0,0.0,0.0,0.0,0.0,0.0,0.0,0.0,0.0,0.0,0.0,0.0,0.0,0.0,0.0,0.0,0.0,0.0,0.0,0.0,0.0,0.0,0.0,0.0,0.0,0.0,0.0,0.0,0.0,0.0,0.0,0.0,0.0,0.0,0.0,0.0,0.0,0.0,0.0,0.0,0.0,0.0,0.0,0.0,0.0,0.0,0.0,0.0,0.0,0.0,0.0,0.0,0.0,0.0,0.0,0.0,0.0,0.0,0.0,0.0,0.0,0.0,0.0,0.0,0.0,0.0,0.0,0.0,0.0,0.0,0.0,0.0,0.0,0.0,0.0,0.0,0.0,0.0,0.0,0.0,0.0,0.0,0.0,0.0,0.0,0.0,0.0,0.0,0.0,0.0,0.0,0.0,0.0,0.0,0.0,0.0,0.0,0.0,0.0,0.0,0.0,0.0,0.0,0.0,0.0,0.0,0.0,0.0,0.0,0.0,0.0,0.0,0.0,0.0,0.0,0.0,0.0,0.0,0.0,0.0,0.0,0.0,0.0,0.0,0.0,0.0,0.0,0.0,0.0,0.0,0.0,0.0,0.0,0.0,0.0,0.0,0.0,0.0,0.0,0.0,0.0,0.0,0.0,0.0,0.0,0.0,0.0,0.0,0.0,0.0,0.0,0.0,0.0,0.0,0.0,0.0,0.0,0.0,0.0,0.0,0.0,0.0,0.0,0.0,0.0,0.0,0.0,0.0,0.0,0.0,0.0,0.0,0.0,0.0,0.0,0.0,0.0,0.0,0.0,0.0,0.0,0.0,0.0,0.0,0.0,0.0,0.0,0.0,0.0,0.0,0.0,0.0,0.0,0.0,0.0,0.0,0.0,0.0,0.0,0.0,0.0,0.0,0.0,0.0,0.0,0.0,0.0,0.0,0.0,0.0,0.0,0.0,0.0,0.0,0.0,0.0,0.0,0.0,0.0,0.0,0.0,0.0,0.0,0.0,0.0,0.0,0.0,0.0,0.0,0.0,0.0,0.0,0.0,0.0,0.0,0.0,0.0,0.0,0.0,0.0,0.0,0.0,0.0,0.0,0.0,0.0,0.0,0.0,0.0,0.0,0.0,0.0,0.0,0.0,0.0,0.0,0.0,0.0,0.0,0.0,0.0,0.0,0.0,0.0,0.0,0.0,0.0,0.0,0.0,0.0,0.0,0.0,0.0,0.0,0.0,0.0,0.0,0.0,0.0,0.0,0.0,0.0,0.0,0.0,0.0,0.0,0.0,0.0,0.0,0.0,0.0,0.0,0.0,0.0,0.0,0.0,0.0,0.0,0.0,0.0,0.0,0.0,0.0,0.0,0.0,0.0,0.0,0.0,0.0,0.0,0.0,0.0,0.0,0.0,0.0,0.0,0.0,0.0,0.0,0.0,0.0,0.0,0.0,0.0,0.0,0.0,0.0,0.0,0.0,0.0,0.0,0.0,0.0,0.0,0.0,0.0,0.0,0.0,0.0,0.0,0.0,0.0,0.0,0.0,0.0,0.0,0.0,0.0,0.0,0.0,0.0,0.0,0.0,0.0,0.0,0.0,0.0,0.0,0.0,0.0,0.0,0.0,0.0,0.0,0.0,0.0,0.0,0.0,0.0,0.0,0.0,0.0,0.0,0.0,0.0,0.0,0.0,0.0,0.0,0.0,0.0,0.0,0.0,0.0,0.0,0.0,0.0,0.0,0.0,0.0,0.0,0.0,0.0,0.0,0.0,0.0,0.0,0.0,0.0,0.0,0.0,0.0,0.0,0.0,0.0,0.0,0.0,0.0,0.0,0.0,0.0,0.0,0.0,0.0,0.0,0.0,0.0,0.0,0.0,0.0,0.0,0.0,0.0,0.0,0.0,0.0,0.0,0.0,0.0,0.0,0.0,0.0,0.0,0.0,0.0,0.0,0.0,0.0,0.0,0.0,0.0,0.0,0.0,0.0,0.0,0.0,0.0,0.0,0.0,0.0,0.0,0.0,0.0,0.0,0.0,0.0,0.0,0.0,0.0,0.0,0.0,0.0,0.0,0.0,0.0,0.0,0.0,0.0,0.0,0.0,0.0,0.0,0.0,0.0,0.0,0.0,0.0,0.0,0.0,0.0,0.0,0.0,0.0,0.0,0.0,0.0,0.0,0.0,0.0,0.0,0.0,0.0,0.0,0.0,0.0,0.0,0.0,0.0,0.0,0.0,0.0,0.0,0.0,0.0,0.0,0.0,0.0,0.0,0.0,0.0,0.0,0.0,0.0,0.0,0.0,0.0,0.0,0.0,0.0,0.0,0.0,0.0,0.0,0.0,0.0,0.0,0.0,0.0,0.0,0.0,0.0,0.0,0.0,0.0,0.0,0.0,0.0,0.0,0.0,0.0,0.0,0.0,0.0,0.0,0.0,0.0,0.0,0.0,0.0,0.0,0.0,0.0,0.0,0.0,0.0,0.0,0.0,0.0,0.0,0.0,0.0,0.0,0.0,0.0,0.0,0.0,0.0,0.0,0.0,0.0,0.0,0.0,0.0,0.0,0.0,0.0,0.0,0.0,0.0,0.0,0.0,0.0,0.0,0.0,0.0,0.0,0.0,0.0,0.0,0.0,0.0,0.0,0.0,0.0,0.0,0.0,0.0,0.0,0.0,0.0,0.0,0.0,0.0,0.0,0.0,0.0,0.0,0.0,0.0,0.0,0.0,0.0,0.0,0.0,0.0,0.0,0.0,0.0,0.0,0.0,0.0,0.0,0.0,0.0,0.0,0.0,0.0,0.0,0.0,0.0,0.0,0.0,0.0,0.0,0.0,0.0,0.0,0.0,0.0,0.0,0.0,0.0,0.0,0.0,0.0,0.0,0.0,0.0,0.0,0.0,0.0,0.0,0.0,0.0,0.0,0.0,0.0,0.0,0.0,0.0,0.0,0.0,0.0,0.0,0.0,0.0,0.0,0.0,0.0,0.0,0.0,0.0,0.0,0.0,0.0,0.0,0.0,0.0,0.0,0.0,0.0,0.0,0.0,0.0,0.0,0.0,0.0,0.0,0.0,0.0,0.0,0.0,0.0,0.0,0.0,0.0,0.0,0.0,0.0,0.0,0.0,0.0,0.0,0.0,0.0,0.0,0.0,0.0,0.0,0.0,0.0,0.0,0.0,0.0,0.0,0.0,0.0,0.0,0.0,0.0,0.0,0.0,0.0,0.0,0.0,0.0,0.0,0.0,0.0,0.0,0.0,0.0,0.0,0.0,0.0,0.0,0.0,0.0,0.0,0.0,0.0,0.0,0.0,0.0,0.0,0.0,0.0,0.0,0.0,0.0,0.0,0.0,0.0,0.0,0.0,0.0,0.0,0.0,0.0]}],[{"header":{"parameterUnit":"kt","parameterCategory":2,"dx":1,"dy":1,"la1":29.587661999999998,"la2":31.0,"lo1":-88.76705300000003,"lo2":-86.6583820000003,"nx":115,"ny":88,"refTime":"2022-10-17T06:00:00:Z","depth":0,"parameterNumber":2,"parameterNumberName":"V-component_of_WINDS"},"data":[-5.5537,-5.608,-5.644,-5.6979,-5.7515,-5.8381,-5.9438,-6.0137,-6.0854,-6.1988,-6.3481,-6.5505,-6.7525,-6.9268,-7.0692,-7.1797,-7.2574,-7.3109,-7.3493,-7.3671,-7.3493,-7.3671,-7.3671,-7.3671,-7.3671,-7.3671,-7.3824,-7.3977,-7.4154,-7.4129,-7.4129,-7.428,-7.428,-7.39,-7.3748,-7.39,-7.3875,-7.39,-7.3824,-7.4126,-7.4633,-7.5831,-7.6984,-7.7861,-7.8562,-7.9616,-8.0303,-8.063,-8.063,-8.0793,-8.0821,-8.0928,-8.109,-8.1442,-8.1631,-8.182,-8.182,-8.182,-8.1953,-8.2403,-8.3165,-8.3916,-8.4379,-8.4991,-8.5747,-8.5897,-8.6047,-8.6017,-8.6463,-8.7694,-8.8157,-8.8444,-8.8444,-8.8759,-8.9183,-8.9183,-8.9433,-8.9712,-8.985,-9.0096,-9.0339,-9.0611,-9.0716,-9.0851,-9.1151,-9.1387,-9.1489,-9.1785,-9.1817,-9.1817,-9.1653,-9.1917,-9.2016,-9.26,-9.3274,-9.3746,-9.3872,-9.4368,-9.4613,-9.4856,-9.5098,-9.5371,-9.5251,-9.5098,-9.5098,-9.5218,-9.5338,-9.5457,-9.5609,-9.5878,-9.5642,-9.5523,-9.549,-9.5371,-9.5098,-5.5537,-5.608,-5.6957,-5.8204,-5.9613,-5.9788,-6.0658,-6.1863,-6.2399,-6.3222,-6.4406,-6.6521,-6.899,-7.0464,-7.1645,-7.2606,-7.3367,-7.3621,-7.3671,-7.3671,-7.3671,-7.3671,-7.3671,-7.3671,-7.3671,-7.3824,-7.3977,-7.4482,-7.4835,-7.4835,-7.4835,-7.4861,-7.4482,-7.4129,-7.3926,-7.4077,-7.4431,-7.4431,-7.4783,-7.5134,-7.5978,-7.7155,-7.7834,-7.8702,-7.9423,-8.0275,-8.063,-8.1146,-8.1631,-8.166,-8.1498,-8.1442,-8.1442,-8.1764,-8.1953,-8.1981,-8.1953,-8.1953,-8.1953,-8.2403,-8.3165,-8.3916,-8.4533,-8.5446,-8.6641,-8.7112,-8.7404,-8.7694,-8.7839,-8.8444,-8.8729,-8.8901,-8.8901,-8.9073,-8.9324,-8.9603,-8.9958,-9.0202,-9.0308,-9.0444,-9.0716,-9.1017,-9.1151,-9.1151,-9.1387,-9.1885,-9.2147,-9.2471,-9.273,-9.2569,-9.2794,-9.3177,-9.3304,-9.3807,-9.4335,-9.458,-9.4702,-9.5065,-9.5457,-9.5694,-9.593,-9.5963,-9.5845,-9.5694,-9.5694,-9.5727,-9.5845,-9.608,-9.6461,-9.6839,-9.661,-9.6379,-9.6229,-9.5963,-9.5727,-5.626,-5.6957,-5.8027,-5.9263,-6.0507,-6.1004,-6.184,-6.2885,-6.344,-6.428,-6.5591,-6.7112,-6.8923,-7.0578,-7.1516,-7.2579,-7.3519,-7.3646,-7.3621,-7.3646,-7.3671,-7.3671,-7.3671,-7.3671,-7.3824,-7.3977,-7.428,-7.4607,-7.5309,-7.5309,-7.5535,-7.571,-7.5684,-7.5335,-7.4933,-7.5457,-7.5805,-7.5509,-7.6204,-7.6893,-7.7718,-7.8729,-7.9423,-7.9754,-8.0439,-8.0956,-8.147,-8.147,-8.1631,-8.1442,-8.182,-8.1631,-8.1924,-8.2244,-8.2403,-8.2403,-8.2403,-8.2403,-8.2273,-8.2403,-8.285,-8.3421,-8.4042,-8.5295,-8.6641,-8.7374,-8.7694,-8.8586,-8.8729,-8.887,-8.9152,-8.9293,-8.9324,-8.9433,-8.9712,-8.985,-9.0065,-9.0444,-9.058,-9.082,-9.1356,-9.1653,-9.1817,-9.1817,-9.2309,-9.2826,-9.305,-9.3336,-9.343,-9.343,-9.4055,-9.458,-9.4945,-9.5457,-9.5424,-9.5543,-9.5543,-9.5812,-9.6047,-9.6428,-9.6543,-9.6428,-9.6461,-9.6577,-9.6577,-9.6461,-9.6461,-9.6691,-9.7066,-9.7179,-9.7179,-9.7213,-9.6953,-9.6691,-9.6772,-5.7136,-5.7827,-5.924,-6.0484,-6.1544,-6.2376,-6.3223,-6.3945,-6.4447,-6.5591,-6.6716,-6.746,-6.8536,-6.9945,-7.0801,-7.194,-7.3009,-7.339,-7.3595,-7.3926,-7.418,-7.418,-7.4002,-7.418,-7.4154,-7.4457,-7.4607,-7.4933,-7.5457,-7.6005,-7.623,-7.6602,-7.6866,-7.6523,-7.6151,-7.7011,-7.7181,-7.7037,-7.8084,-7.9284,-7.9781,-8.0467,-8.0956,-8.1118,-8.1442,-8.2085,-8.2113,-8.2113,-8.1896,-8.1708,-8.1953,-8.2273,-8.2562,-8.285,-8.2979,-8.2979,-8.285,-8.2692,-8.2692,-8.2692,-8.3136,-8.3577,-8.4196,-8.5295,-8.6196,-8.6905,-8.7809,-8.8698,-8.9293,-8.9433,-8.9573,-8.9712,-8.9712,-8.9958,-9.0065,-9.0065,-9.0202,-9.0444,-9.0851,-9.1387,-9.1917,-9.2309,-9.26,-9.2858,-9.3368,-9.3621,-9.3931,-9.4179,-9.4302,-9.4791,-9.5576,-9.5812,-9.6346,-9.6346,-9.6428,-9.6428,-9.6543,-9.6658,-9.6658,-9.6919,-9.7146,-9.7146,-9.7112,-9.7292,-9.7292,-9.7258,-9.7258,-9.737,-9.7258,-9.7482,-9.7482,-9.7515,-9.737,-9.737,-9.767,-5.816,-5.8735,-6.0438,-6.2011,-6.3223,-6.3777,-6.4447,-6.4921,-6.5746,-6.6956,-6.7867,-6.7473,-6.8311,-6.9632,-6.9954,-7.099,-7.2133,-7.2844,-7.3203,-7.4835,-7.4453,-7.4607,-7.4607,-7.4887,-7.4861,-7.5011,-7.5335,-7.5657,-7.5831,-7.6523,-7.7091,-7.7144,-7.7745,-7.7861,-7.7549,-7.8421,-7.8729,-7.8729,-7.9946,-8.0984,-8.147,-8.1953,-8.2244,-8.2244,-8.2534,-8.285,-8.285,-8.285,-8.285,-8.285,-8.285,-8.285,-8.2979,-8.2979,-8.3136,-8.3165,-8.3136,-8.3136,-8.3136,-8.3293,-8.3577,-8.4071,-8.4591,-8.5777,-8.6758,-8.7634,-8.8495,-8.9402,-8.9681,-8.9819,-8.9958,-8.9958,-9.0096,-9.037,-9.0475,-9.0475,-9.058,-9.0986,-9.1387,-9.1785,-9.2439,-9.3082,-9.3368,-9.3964,-9.4335,-9.458,-9.4945,-9.5338,-9.5694,-9.6312,-9.6691,-9.6839,-9.6953,-9.6839,-9.6919,-9.6919,-9.7146,-9.7258,-9.7146,-9.7404,-9.7482,-9.7593,-9.7703,-9.767,-9.767,-9.778,-9.7814,-9.778,-9.767,-9.778,-9.778,-9.7889,-9.7889,-9.7889,-9.8107,-5.9064,-5.9788,-6.1544,-6.2593,-6.3271,-6.428,-6.5087,-6.5746,-6.6376,-6.6929,-6.7549,-6.8106,-6.8718,-6.9484,-7.0099,-7.078,-7.1927,-7.2004,-7.2743,-7.3768,-7.3776,-7.4389,-7.4881,-7.5062,-7.5335,-7.5509,-7.5831,-7.6377,-7.6747,-7.7432,-7.7915,-7.7915,-7.8421,-7.8589,-7.8923,-7.945,-7.9946,-8.0602,-8.1118,-8.182,-8.2141,-8.2273,-8.2562,-8.2692,-8.285,-8.2979,-8.2979,-8.3008,-8.3008,-8.2979,-8.2979,-8.3136,-8.3421,-8.3421,-8.3449,-8.3634,-8.3605,-8.3605,-8.3449,-8.3732,-8.3916,-8.4254,-8.4533,-8.6017,-8.7313,-8.8352,-8.906,-8.9788,-8.9927,-9.0065,-9.0202,-9.0444,-9.0475,-9.0611,-9.0747,-9.0986,-9.112,-9.1356,-9.1885,-9.2309,-9.2954,-9.3714,-9.4335,-9.4945,-9.5305,-9.5543,-9.5812,-9.6196,-9.6577,-9.7066,-9.7179,-9.7292,-9.7292,-9.7292,-9.7292,-9.7258,-9.737,-9.7448,-9.7482,-9.7593,-9.7814,-9.7889,-9.7856,-9.7856,-9.7965,-9.7965,-9.7999,-9.7965,-9.8073,-9.7965,-9.7856,-9.8107,-9.8357,-9.8465,-9.8465,-6.0311,-6.105,-6.2763,-6.3464,-6.3464,-6.4422,-6.5582,-6.6401,-6.6889,-6.7187,-6.7399,-6.8569,-6.8938,-6.898,-7.022,-7.0826,-7.1111,-7.1423,-7.2072,-7.2785,-7.3371,-7.4127,-7.4821,-7.5307,-7.5941,-7.6364,-7.7037,-7.7602,-7.7772,-7.8252,-7.8534,-7.8842,-7.9395,-7.9754,-7.9946,-8.0467,-8.1146,-8.1631,-8.1792,-8.2113,-8.2244,-8.2721,-8.2979,-8.3136,-8.3293,-8.3449,-8.3449,-8.3449,-8.3449,-8.3449,-8.3293,-8.3449,-8.3732,-8.3732,-8.3761,-8.41,-8.4225,-8.4225,-8.4042,-8.4379,-8.4715,-8.5143,-8.5898,-8.7193,-8.8403,-8.931,-8.948,-9.0202,-9.0475,-9.0611,-9.0716,-9.0716,-9.0851,-9.0851,-9.1017,-9.112,-9.1254,-9.1621,-9.2245,-9.2794,-9.3682,-9.4458,-9.5185,-9.5661,-9.6047,-9.6279,-9.651,-9.6772,-9.6999,-9.7258,-9.7404,-9.7482,-9.7482,-9.7482,-9.7448,-9.7559,-9.767,-9.767,-9.778,-9.7889,-9.7999,-9.8073,-9.8073,-9.8182,-9.8323,-9.8323,-9.8216,-9.8323,-9.8431,-9.8323,-9.8182,-9.8571,-9.8818,-9.8923,-9.9028,-6.1567,-6.2957,-6.3945,-6.428,-6.428,-6.4921,-6.5721,-6.6863,-6.7373,-6.7881,-6.8201,-6.8756,-6.8939,-6.8542,-6.8834,-6.9833,-7.0566,-7.0697,-7.181,-7.2711,-7.3403,-7.4337,-7.5228,-7.6096,-7.6906,-7.8009,-7.8562,-7.8589,-7.8923,-7.909,-7.9395,-7.9726,-8.0411,-8.0738,-8.0928,-8.128,-8.1631,-8.1953,-8.2113,-8.2403,-8.2692,-8.3136,-8.3421,-8.3605,-8.3761,-8.3916,-8.3916,-8.3916,-8.3916,-8.4071,-8.4042,-8.4071,-8.4071,-8.4071,-8.4071,-8.4254,-8.4254,-8.4562,-8.4898,-8.5476,-8.5777,-8.6758,-8.7823,-8.8954,-8.9771,-9.0065,-9.0202,-9.0611,-9.0882,-9.1017,-9.112,-9.112,-9.112,-9.1254,-9.1285,-9.1387,-9.1387,-9.2016,-9.2762,-9.3524,-9.4425,-9.5152,-9.5896,-9.6279,-9.6543,-9.6772,-9.6886,-9.7112,-9.7225,-9.7482,-9.7559,-9.767,-9.767,-9.778,-9.7746,-9.7856,-9.7856,-9.7965,-9.8073,-9.8216,-9.8289,-9.8397,-9.8397,-9.8503,-9.8678,-9.8784,-9.8678,-9.8678,-9.8784,-9.8784,-9.875,-9.8923,-9.9133,-9.9237,-9.9341,-6.2617,-6.315,-6.3969,-6.4447,-6.4921,-6.6024,-6.6838,-6.7322,-6.8308,-6.8652,-6.8968,-6.9883,-7.0039,-6.9727,-7.0065,-7.0905,-7.1039,-7.1147,-7.192,-7.3338,-7.4066,-7.5091,-7.6334,-7.7639,-7.8158,-7.8705,-7.9229,-7.9561,-7.9561,-7.9754,-8.0275,-8.0575,-8.128,-8.1442,-8.1603,-8.1792,-8.1981,-8.2244,-8.2562,-8.285,-8.3264,-8.3577,-8.3732,-8.4071,-8.4071,-8.4254,-8.4254,-8.4254,-8.41,-8.41,-8.41,-8.41,-8.41,-8.4225,-8.4254,-8.4254,-8.4409,-8.505,-8.5777,-8.6374,-8.7519,-8.8352,-8.9509,-9.0194,-9.0653,-9.0611,-9.0882,-9.1017,-9.1151,-9.112,-9.112,-9.112,-9.1254,-9.1552,-9.1684,-9.1948,-9.2179,-9.3177,-9.3931,-9.4425,-9.5152,-9.598,-9.6591,-9.6886,-9.7033,-9.7146,-9.7258,-9.737,-9.7593,-9.767,-9.7746,-9.7746,-9.778,-9.8073,-9.8182,-9.8255,-9.8363,-9.8255,-9.8397,-9.8678,-9.875,-9.8926,-9.8855,-9.875,-9.8994,-9.9099,-9.9028,-9.9028,-9.8994,-9.9099,-9.9169,-9.9375,-9.9409,-9.9512,-9.9614,-6.3295,-6.3801,-6.4613,-6.5252,-6.5721,-6.7025,-6.7509,-6.7989,-6.8916,-6.9727,-7.0194,-7.1119,-7.1272,-7.0966,-7.1299,-7.1604,-7.1631,-7.1604,-7.1767,-7.3191,-7.4073,-7.5513,-7.6982,-7.7969,-7.9094,-7.9781,-8.0247,-8.0575,-8.0383,-8.0793,-8.1146,-8.128,-8.1631,-8.182,-8.182,-8.1981,-8.2273,-8.2534,-8.3136,-8.3421,-8.4167,-8.4475,-8.481,-8.5143,-8.4868,-8.4715,-8.4715,-8.4225,-8.4225,-8.4254,-8.4254,-8.4254,-8.4254,-8.4254,-8.4409,-8.4715,-8.4868,-8.5505,-8.6374,-8.7809,-8.895,-8.9726,-9.0455,-9.0828,-9.1088,-9.112,-9.112,-9.112,-9.112,-9.112,-9.112,-9.1254,-9.152,-9.1684,-9.2211,-9.26,-9.3209,-9.4179,-9.4945,-9.5424,-9.613,-9.6819,-9.7079,-9.7112,-9.7258,-9.737,-9.7559,-9.767,-9.8073,-9.8148,-9.8255,-9.8289,-9.8397,-9.8576,-9.8787,-9.9204,-9.9409,-9.9169,-9.9204,-9.9272,-9.9409,-9.958,-9.958,-9.9546,-9.9478,-9.9409,-9.9409,-9.9306,-9.9306,-9.9546,-9.9915,-10.0212,-10.031,-10.031,-10.0247,-6.4088,-6.5087,-6.5911,-6.6401,-6.7025,-6.7322,-6.7989,-6.8652,-6.9571,-7.0658,-7.1729,-7.2361,-7.2361,-7.2032,-7.2361,-7.2361,-7.2183,-7.2059,-7.2292,-7.2993,-7.4301,-7.5081,-7.6607,-7.8308,-7.999,-8.0923,-8.128,-8.147,-8.1631,-8.166,-8.166,-8.182,-8.182,-8.182,-8.1953,-8.2273,-8.2692,-8.3108,-8.4196,-8.481,-8.5387,-8.5867,-8.6166,-8.6196,-8.5747,-8.5476,-8.5324,-8.4868,-8.4686,-8.4562,-8.4562,-8.4533,-8.4533,-8.4533,-8.4868,-8.5476,-8.5656,-8.6106,-8.6818,-8.8809,-8.9757,-9.0413,-9.0684,-9.1088,-9.112,-9.112,-9.112,-9.112,-9.1285,-9.1285,-9.1254,-9.1254,-9.1653,-9.2048,-9.2826,-9.3304,-9.4147,-9.4999,-9.5746,-9.6361,-9.7079,-9.7525,-9.7448,-9.7482,-9.7593,-9.778,-9.7856,-9.8148,-9.8542,-9.8858,-9.9066,-9.9204,-9.9546,-9.9613,-9.9645,-10.0113,-10.031,-10.0178,-10.0079,-10.0113,-10.0148,-10.0247,-10.0345,-10.0443,-10.0345,-10.0148,-9.9984,-9.9783,-10.0113,-10.0471,-10.0725,-10.1009,-10.1103,-10.1197,-10.1267,-6.4896,-6.5368,-6.6074,-6.7025,-6.8334,-6.9283,-6.9936,-7.0119,-7.0993,-7.1729,-7.2361,-7.3229,-7.3378,-7.296,-7.3109,-7.3285,-7.3109,-7.3109,-7.3257,-7.4102,-7.5218,-7.6864,-7.8167,-7.9401,-8.0796,-8.1462,-8.182,-8.182,-8.182,-8.182,-8.182,-8.182,-8.182,-8.2244,-8.2692,-8.3449,-8.4196,-8.4628,-8.5236,-8.5838,-8.6196,-8.6641,-8.6788,-8.6641,-8.6523,-8.6374,-8.6076,-8.5626,-8.5295,-8.5446,-8.5476,-8.5446,-8.5747,-8.6047,-8.6047,-8.6374,-8.667,-8.6935,-8.7664,-8.8809,-8.9958,-9.058,-9.0986,-9.112,-9.112,-9.112,-9.1285,-9.1285,-9.1419,-9.1583,-9.1583,-9.2147,-9.2666,-9.3145,-9.3649,-9.4393,-9.5239,-9.603,-9.6672,-9.7303,-9.7602,-9.804,-9.7965,-9.7856,-9.8073,-9.8182,-9.8469,-9.8787,-9.9204,-9.9613,-9.9915,-10.0212,-10.054,-10.0568,-10.0498,-10.0664,-10.089,-10.076,-10.082,-10.0855,-10.0855,-10.0855,-10.0855,-10.1079,-10.0985,-10.089,-10.0855,-10.0855,-10.1103,-10.1382,-10.1565,-10.1872,-10.1962,-10.2227,-10.2263,-6.5721,-6.6188,-6.7161,-6.8568,-7.0073,-7.09,-7.1443,-7.1895,-7.2278,-7.2511,-7.2811,-7.3673,-7.3967,-7.3673,-7.3848,-7.3876,-7.3876,-7.3848,-7.3967,-7.4993,-7.6065,-7.7081,-7.8153,-7.9422,-8.1143,-8.1115,-8.1623,-8.182,-8.182,-8.182,-8.1953,-8.2176,-8.225,-8.2763,-8.3363,-8.4196,-8.4962,-8.5567,-8.6285,-8.6905,-8.7258,-8.7404,-8.7549,-8.7549,-8.7404,-8.7228,-8.7082,-8.6374,-8.6344,-8.6344,-8.6196,-8.6196,-8.6493,-8.6493,-8.6788,-8.7112,-8.7258,-8.7839,-8.8556,-8.9402,-9.0096,-9.058,-9.0986,-9.1285,-9.1419,-9.138,-9.138,-9.1716,-9.208,-9.2309,-9.2439,-9.305,-9.3774,-9.4393,-9.4999,-9.568,-9.6377,-9.709,-9.7712,-9.7999,-9.8289,-9.8363,-9.8363,-9.8363,-9.8469,-9.8682,-9.91,-9.9443,-9.9849,-10.0247,-10.0637,-10.1055,-10.1395,-10.1417,-10.1565,-10.1509,-10.136,-10.1509,-10.1565,-10.1691,-10.1691,-10.1691,-10.16,-10.1691,-10.1691,-10.16,-10.16,-10.1802,-10.2069,-10.2453,-10.266,-10.2696,-10.2901,-10.3153,-10.3069,-6.6564,-6.7187,-6.91,-7.0677,-7.1953,-7.1913,-7.2716,-7.3564,-7.3281,-7.3136,-7.3257,-7.382,-7.4259,-7.4259,-7.4113,-7.4287,-7.4259,-7.4259,-7.4428,-7.488,-7.5642,-7.6573,-7.7645,-7.8999,-8.0325,-8.0269,-8.1256,-8.1764,-8.182,-8.1953,-8.2534,-8.305,-8.3067,-8.3556,-8.4306,-8.4962,-8.5597,-8.6493,-8.7374,-8.7983,-8.8301,-8.8586,-8.8759,-8.8759,-8.827,-8.7953,-8.7953,-8.7228,-8.6935,-8.7112,-8.6935,-8.6935,-8.7258,-8.7258,-8.7519,-8.7983,-8.8127,-8.8698,-8.9402,-9.0065,-9.058,-9.0716,-9.0986,-9.1419,-9.1948,-9.1906,-9.2039,-9.2535,-9.2954,-9.3177,-9.3524,-9.3866,-9.4604,-9.5325,-9.6146,-9.6752,-9.7458,-9.804,-9.8289,-9.8818,-9.8818,-9.8644,-9.8644,-9.8821,-9.903,-9.9546,-9.9883,-10.0049,-10.0478,-10.0925,-10.1302,-10.1797,-10.2032,-10.2263,-10.2437,-10.2437,-10.2175,-10.2086,-10.2139,-10.235,-10.2437,-10.256,-10.2473,-10.256,-10.2473,-10.2263,-10.2227,-10.2625,-10.3081,-10.3526,-10.3722,-10.3642,-10.3722,-10.3801,-10.3801,-6.7348,-6.8467,-6.9571,-7.0861,-7.2426,-7.2704,-7.3529,-7.4567,-7.4261,-7.3995,-7.3967,-7.4113,-7.4259,-7.4259,-7.4259,-7.4259,-7.4259,-7.4259,-7.4823,-7.5839,-7.6798,-7.7278,-7.7842,-7.962,-8.0607,-7.993,-8.1002,-8.1811,-8.2056,-8.2549,-8.319,-8.38,-8.4048,-8.4853,-8.5778,-8.6196,-8.6641,-8.7549,-8.8301,-8.8617,-8.8901,-8.9042,-8.9042,-8.8901,-8.8901,-8.8759,-8.8586,-8.7983,-8.7983,-8.8157,-8.7839,-8.7839,-8.8157,-8.8301,-8.8586,-8.887,-8.9122,-8.9542,-9.0202,-9.058,-9.0684,-9.0986,-9.1419,-9.1948,-9.2471,-9.2792,-9.3018,-9.3589,-9.4023,-9.4425,-9.4669,-9.5358,-9.5947,-9.6491,-9.7202,-9.7788,-9.8397,-9.8537,-9.8784,-9.8923,-9.8923,-9.8784,-9.9169,-9.9375,-9.9849,-10.0281,-10.0512,-10.0672,-10.102,-10.136,-10.1817,-10.2298,-10.2473,-10.256,-10.2731,-10.2767,-10.2852,-10.2731,-10.2817,-10.2901,-10.2817,-10.2937,-10.3105,-10.3141,-10.3176,-10.3021,-10.2866,-10.3445,-10.3958,-10.3994,-10.4072,-10.4226,-10.4379,-10.4454,-10.4343,-6.862,-7.0126,-7.0536,-7.2545,-7.4912,-7.4636,-7.5212,-7.5912,-7.5493,-7.4942,-7.4635,-7.4579,-7.455,-7.484,-7.4667,-7.4695,-7.455,-7.4579,-7.4885,-7.5416,-7.6347,-7.6798,-7.7193,-7.8745,-7.9874,-7.9338,-8.0398,-8.1433,-8.2435,-8.2893,-8.375,-8.4735,-8.4917,-8.5504,-8.6905,-8.7404,-8.7869,-8.8331,-8.8617,-8.8901,-8.9042,-8.9042,-8.9042,-8.9042,-8.9042,-8.9042,-8.8901,-8.8586,-8.8586,-8.8759,-8.8729,-8.8729,-8.9042,-8.9355,-8.9464,-8.9743,-8.9989,-9.0339,-9.0986,-9.112,-9.1285,-9.1716,-9.1848,-9.2341,-9.3082,-9.3559,-9.4277,-9.4758,-9.5358,-9.5713,-9.6063,-9.6672,-9.7236,-9.7569,-9.7788,-9.8255,-9.8503,-9.8784,-9.9028,-9.9028,-9.9028,-9.9409,-9.9783,-10.0247,-10.0664,-10.1114,-10.1208,-10.1395,-10.1636,-10.1997,-10.2263,-10.2731,-10.2852,-10.2852,-10.2937,-10.3057,-10.3057,-10.3057,-10.3105,-10.3188,-10.3188,-10.3271,-10.3353,-10.3471,-10.3633,-10.3714,-10.3714,-10.3916,-10.4226,-10.4339,-10.4451,-10.449,-10.4454,-10.4603,-10.4677,-7.0205,-7.2006,-7.2393,-7.4852,-7.794,-7.6681,-7.6798,-7.7617,-7.6497,-7.5655,-7.5238,-7.4982,-7.5242,-7.55,-7.5587,-7.5128,-7.4984,-7.4897,-7.4951,-7.5225,-7.6016,-7.6044,-7.5247,-7.6939,-7.8096,-7.8491,-7.986,-8.1477,-8.2488,-8.2583,-8.3793,-8.5653,-8.5646,-8.5894,-8.7923,-8.8188,-8.8474,-8.8444,-8.8617,-8.8759,-8.8901,-8.9042,-8.9042,-8.9042,-8.9042,-8.9042,-8.9073,-8.8901,-8.8901,-8.9073,-8.9042,-8.9183,-8.9495,-8.9634,-8.9881,-9.0233,-9.0611,-9.112,-9.1583,-9.1684,-9.1848,-9.2143,-9.2535,-9.273,-9.343,-9.4393,-9.5391,-9.583,-9.6524,-9.6978,-9.7202,-9.7602,-9.7999,-9.8216,-9.8397,-9.8503,-9.861,-9.8889,-9.9133,-9.9203,-9.9783,-10.0083,-10.054,-10.1079,-10.16,-10.1727,-10.1852,-10.2086,-10.235,-10.2473,-10.2731,-10.2937,-10.3141,-10.3141,-10.3224,-10.326,-10.326,-10.3342,-10.3389,-10.3353,-10.3435,-10.3481,-10.3642,-10.3801,-10.4114,-10.419,-10.4343,-10.4454,-10.449,-10.4676,-10.4787,-10.4751,-10.4677,-10.4677,-10.4751,-7.1741,-7.2641,-7.4917,-7.6895,-7.8265,-7.6946,-7.7034,-7.7817,-7.6171,-7.5924,-7.6587,-7.5815,-7.5988,-7.6475,-7.5988,-7.5415,-7.5415,-7.5272,-7.5642,-7.6034,-7.6426,-7.6391,-7.6299,-7.7165,-7.7995,-7.8052,-7.9645,-8.0811,-8.1874,-8.344,-8.4999,-8.5956,-8.7285,-8.8108,-8.8575,-8.8759,-8.8901,-8.8901,-8.8901,-8.8901,-8.9042,-8.9042,-8.9042,-8.9042,-8.9042,-8.9042,-8.9042,-8.9042,-8.9073,-8.9042,-8.9355,-8.9464,-8.9603,-8.985,-9.037,-9.1285,-9.1716,-9.198,-9.2274,-9.2274,-9.2503,-9.2664,-9.3114,-9.3556,-9.4237,-9.5358,-9.6558,-9.7269,-9.7712,-9.7856,-9.804,-9.8255,-9.8397,-9.8644,-9.8784,-9.8889,-9.896,-9.9065,-9.9409,-9.9984,-10.0478,-10.0925,-10.136,-10.1872,-10.2175,-10.2298,-10.2386,-10.2646,-10.2731,-10.2937,-10.3105,-10.3224,-10.3389,-10.3389,-10.3552,-10.3633,-10.3633,-10.3633,-10.3714,-10.3678,-10.3722,-10.3801,-10.3958,-10.4114,-10.4418,-10.486,-10.5038,-10.5178,-10.511,-10.5146,-10.511,-10.5144,-10.5181,-10.5181,-10.5181,-7.2998,-7.4889,-7.4857,-7.703,-7.9756,-7.8334,-7.7902,-7.8337,-7.7406,-7.7019,-7.6505,-7.6074,-7.6274,-7.6677,-7.6215,-7.5871,-7.57,-7.57,-7.5787,-7.6272,-7.6698,-7.6665,-7.592,-7.7058,-7.757,-7.8175,-7.9361,-8.0401,-8.1236,-8.3056,-8.4372,-8.5434,-8.5857,-8.7254,-8.8594,-8.9012,-8.9042,-8.9042,-8.9042,-8.9042,-8.9042,-8.9183,-8.9464,-8.9464,-8.9464,-8.9293,-8.9262,-8.9293,-8.9183,-8.9183,-8.9355,-8.9603,-8.9989,-9.0507,-9.1419,-9.2242,-9.26,-9.2826,-9.3114,-9.3368,-9.3495,-9.3746,-9.4302,-9.4758,-9.5477,-9.6179,-9.709,-9.7931,-9.8289,-9.8571,-9.8644,-9.8926,-9.9065,-9.9306,-9.9614,-9.9682,-9.9682,-9.9817,-10.0281,-10.0829,-10.1395,-10.1907,-10.2227,-10.2524,-10.2731,-10.2852,-10.2937,-10.3057,-10.3141,-10.3307,-10.34,-10.3642,-10.3801,-10.388,-10.4072,-10.4036,-10.3922,-10.3958,-10.4072,-10.3958,-10.4036,-10.419,-10.4343,-10.4641,-10.4932,-10.5352,-10.5556,-10.5623,-10.5659,-10.5659,-10.5592,-10.5556,-10.5659,-10.5659,-10.5592,-7.4276,-7.6864,-7.4995,-7.7114,-8.0967,-7.9713,-7.8745,-7.8896,-7.8538,-7.7857,-7.6906,-7.6386,-7.644,-7.6814,-7.6838,-7.6465,-7.6183,-7.6013,-7.5929,-7.5873,-7.6476,-7.6504,-7.5729,-7.6444,-7.6991,-7.7685,-7.8753,-7.9746,-8.024,-8.1201,-8.2975,-8.4387,-8.4686,-8.5633,-8.7731,-8.895,-8.9042,-8.9042,-8.9042,-8.9042,-8.9214,-8.9495,-8.9603,-8.9819,-8.9712,-8.965,-8.9619,-8.9681,-8.9495,-8.9355,-8.9603,-8.9958,-9.0475,-9.1285,-9.2211,-9.3019,-9.3368,-9.3714,-9.4088,-9.4458,-9.4977,-9.5338,-9.5543,-9.598,-9.6558,-9.709,-9.7679,-9.8255,-9.8784,-9.8994,-9.9065,-9.9443,-9.9748,-10.0083,-10.0247,-10.054,-10.054,-10.0829,-10.1267,-10.1907,-10.2386,-10.2817,-10.2986,-10.3153,-10.3318,-10.3318,-10.3435,-10.3517,-10.3714,-10.3837,-10.3922,-10.4042,-10.4271,-10.4457,-10.4641,-10.4495,-10.4385,-10.4457,-10.4493,-10.4493,-10.4567,-10.4641,-10.4932,-10.5389,-10.5726,-10.5857,-10.5922,-10.5986,-10.605,-10.614,-10.6077,-10.5885,-10.6077,-10.6239,-10.6077,-7.4858,-7.5608,-7.8266,-7.9236,-7.9162,-7.9247,-7.9347,-7.9209,-7.7456,-7.7976,-7.902,-7.7336,-7.7075,-7.774,-7.7071,-7.6664,-7.6494,-7.6494,-7.6324,-7.5984,-7.6246,-7.613,-7.573,-7.5959,-7.6361,-7.6817,-7.8207,-7.852,-7.9116,-8.0424,-8.1619,-8.2132,-8.3923,-8.5614,-8.6656,-8.8055,-8.895,-8.9042,-8.9042,-8.9183,-8.9464,-8.9743,-8.985,-8.9927,-8.9958,-9.0002,-8.9909,-9.0002,-8.985,-8.9944,-9.0233,-9.0747,-9.1419,-9.2242,-9.289,-9.3621,-9.4244,-9.458,-9.4791,-9.5065,-9.5457,-9.551,-9.6097,-9.6672,-9.7202,-9.7788,-9.8255,-9.8644,-9.8994,-9.9169,-9.9645,-9.9945,-10.0241,-10.0725,-10.095,-10.1009,-10.1103,-10.1817,-10.2386,-10.3021,-10.3153,-10.3353,-10.3597,-10.3678,-10.3801,-10.388,-10.388,-10.3958,-10.4303,-10.4493,-10.4605,-10.4679,-10.4823,-10.4965,-10.5072,-10.5035,-10.4965,-10.5001,-10.4967,-10.5108,-10.5214,-10.5316,-10.5556,-10.6023,-10.6275,-10.6337,-10.6337,-10.6423,-10.6506,-10.6683,-10.6683,-10.6469,-10.6565,-10.6719,-10.674,-7.538,-7.6597,-7.7377,-7.836,-7.9054,-7.8835,-7.907,-7.9535,-7.8787,-7.8817,-7.9049,-7.8263,-7.7565,-7.7449,-7.6925,-7.6635,-7.6635,-7.6635,-7.6494,-7.6324,-7.6295,-7.6183,-7.6013,-7.6266,-7.6324,-7.6697,-7.8028,-7.8136,-7.8065,-7.9316,-8.0477,-8.1154,-8.2301,-8.4244,-8.6229,-8.718,-8.8134,-8.8906,-8.9355,-8.9464,-8.985,-9.037,-9.0643,-9.0065,-9.0171,-9.035,-9.033,-9.035,-9.0202,-9.0401,-9.1317,-9.2471,-9.3209,-9.3209,-9.3872,-9.4735,-9.5218,-9.5305,-9.5863,-9.6246,-9.6625,-9.6899,-9.7246,-9.7577,-9.7972,-9.8363,-9.875,-9.9028,-9.9237,-9.9341,-10.001,-10.0498,-10.0974,-10.1474,-10.1782,-10.1907,-10.2051,-10.2781,-10.3517,-10.3678,-10.3678,-10.3837,-10.3916,-10.3916,-10.3958,-10.4114,-10.4114,-10.4418,-10.4751,-10.5003,-10.5072,-10.5312,-10.5379,-10.5513,-10.5616,-10.5616,-10.5616,-10.555,-10.5556,-10.5623,-10.5755,-10.595,-10.6077,-10.6325,-10.6602,-10.6661,-10.6719,-10.6854,-10.6966,-10.7022,-10.6985,-10.6985,-10.6911,-10.6634,-10.6707,-7.5408,-7.7312,-7.639,-7.7109,-7.8784,-7.8439,-7.8816,-7.9567,-8.0125,-7.9601,-7.9049,-7.8497,-7.783,-7.6846,-7.6527,-7.6295,-7.6324,-7.6494,-7.6635,-7.6635,-7.6635,-7.6635,-7.6914,-7.6995,-7.7025,-7.7229,-7.8218,-7.8212,-7.7713,-7.8411,-7.936,-8.0251,-8.1004,-8.2654,-8.5162,-8.5958,-8.7292,-8.8522,-8.8769,-8.8876,-8.9548,-9.0349,-9.064,-9.0716,-9.0716,-9.0788,-9.0891,-9.0923,-9.0757,-9.0994,-9.2245,-9.3556,-9.4179,-9.4212,-9.4735,-9.5694,-9.593,-9.613,-9.6819,-9.7191,-9.767,-9.7788,-9.8086,-9.8443,-9.8576,-9.8855,-9.9099,-9.9306,-9.9512,-9.9748,-10.0339,-10.1255,-10.1926,-10.2315,-10.261,-10.2959,-10.3341,-10.3812,-10.3952,-10.3994,-10.4072,-10.4108,-10.4114,-10.419,-10.4343,-10.4343,-10.4567,-10.4787,-10.5108,-10.5384,-10.5616,-10.5877,-10.6004,-10.6103,-10.6202,-10.6202,-10.6202,-10.6202,-10.605,-10.6023,-10.6301,-10.6483,-10.6565,-10.6683,-10.6781,-10.6911,-10.6911,-10.7039,-10.6909,-10.7073,-10.7147,-10.6793,-10.6512,-10.646,-10.6401,-7.478,-7.5845,-7.7139,-7.7196,-7.6848,-7.8202,-7.8841,-7.8902,-7.9591,-7.9859,-7.9659,-7.8642,-7.7716,-7.7251,-7.5931,-7.5529,-7.5558,-7.6324,-7.6465,-7.6635,-7.6775,-7.7054,-7.7499,-7.7578,-7.7608,-7.7667,-7.7696,-7.7726,-7.7922,-7.7755,-7.8011,-7.8856,-8.0617,-8.2048,-8.3077,-8.4884,-8.5884,-8.6564,-8.6833,-8.7432,-8.857,-8.9093,-8.9998,-9.0856,-9.0945,-9.1261,-9.1615,-9.1943,-9.1988,-9.1961,-9.3298,-9.4237,-9.4669,-9.4977,-9.549,-9.6047,-9.6395,-9.6625,-9.7079,-9.7414,-9.7746,-9.8222,-9.8371,-9.8582,-9.903,-9.9306,-9.9478,-9.9682,-9.998,-10.0345,-10.0768,-10.1579,-10.265,-10.3687,-10.3649,-10.4429,-10.5235,-10.4741,-10.4108,-10.4334,-10.4334,-10.4451,-10.4529,-10.4787,-10.5003,-10.486,-10.5178,-10.5452,-10.5616,-10.5877,-10.6129,-10.6349,-10.6506,-10.6602,-10.6639,-10.6698,-10.6639,-10.6639,-10.6399,-10.6423,-10.6661,-10.6798,-10.6911,-10.6763,-10.6448,-10.6411,-10.6539,-10.6629,-10.6808,-10.6749,-10.6008,-10.5924,-10.5788,-10.5404,-10.5182,-7.5013,-7.6212,-7.7129,-7.7183,-7.6833,-7.7889,-7.8705,-7.9151,-7.9552,-7.9621,-7.9107,-7.8266,-7.7224,-7.5956,-7.5067,-7.4956,-7.5415,-7.6013,-7.6465,-7.6885,-7.7193,-7.7499,-7.7745,-7.8019,-7.8019,-7.7745,-7.8049,-7.8019,-7.8049,-7.8156,-7.8156,-7.8682,-7.9879,-8.1211,-8.2146,-8.3769,-8.4921,-8.6028,-8.6263,-8.6644,-8.765,-8.8264,-8.9059,-8.96,-9.097,-9.1161,-9.1091,-9.1892,-9.3016,-9.3911,-9.4562,-9.5185,-9.5576,-9.5694,-9.608,-9.6691,-9.6625,-9.6966,-9.7414,-9.7746,-9.8107,-9.861,-9.8823,-9.91,-9.9306,-9.9683,-10.0053,-10.038,-10.076,-10.1616,-10.2675,-10.348,-10.4642,-10.5993,-10.6642,-10.7169,-10.7939,-10.6685,-10.5892,-10.5572,-10.5067,-10.4639,-10.486,-10.5003,-10.5214,-10.5489,-10.5719,-10.594,-10.619,-10.6433,-10.6646,-10.6624,-10.6719,-10.6719,-10.6719,-10.6719,-10.6719,-10.6661,-10.6543,-10.6719,-10.6854,-10.6985,-10.7039,-10.6872,-10.6185,-10.5645,-10.5178,-10.497,-10.5428,-10.5479,-10.4749,-10.4352,-10.4018,-10.3684,-10.3583,-7.53,-7.6635,-7.7193,-7.7302,-7.744,-7.7882,-7.8444,-7.9132,-7.9766,-7.9522,-7.8554,-7.8034,-7.6964,-7.5234,-7.4631,-7.4667,-7.5415,-7.6013,-7.6606,-7.7302,-7.7716,-7.8019,-7.8126,-7.8398,-7.8262,-7.8156,-7.8292,-7.8398,-7.8398,-7.8398,-7.8668,-7.8906,-7.9895,-8.1006,-8.2131,-8.3064,-8.4322,-8.5579,-8.5762,-8.5984,-8.6684,-8.7466,-8.8001,-8.8735,-9.0634,-9.131,-9.1415,-9.2441,-9.3866,-9.516,-9.5595,-9.6047,-9.6312,-9.6461,-9.6691,-9.7146,-9.6999,-9.7079,-9.7889,-9.7965,-9.8323,-9.8923,-9.9134,-9.9341,-9.9546,-10.0056,-10.0553,-10.1029,-10.1965,-10.3109,-10.4578,-10.5444,-10.6572,-10.8294,-10.9533,-11.0179,-10.9803,-10.8363,-10.7065,-10.6884,-10.5692,-10.5113,-10.5108,-10.5316,-10.5623,-10.582,-10.6103,-10.6349,-10.6433,-10.6646,-10.6761,-10.6798,-10.6854,-10.6798,-10.674,-10.674,-10.6798,-10.6777,-10.6724,-10.6763,-10.6837,-10.6835,-10.6814,-10.6497,-10.5267,-10.439,-10.3883,-10.3598,-10.3858,-10.4303,-10.3981,-10.4066,-10.3397,-10.2859,-10.2905,-7.5443,-7.6635,-7.7332,-7.7745,-7.7745,-7.8398,-7.8487,-7.8374,-7.9982,-7.9906,-7.8695,-7.8005,-7.7077,-7.5938,-7.4654,-7.4695,-7.5415,-7.6183,-7.6885,-7.7745,-7.8398,-7.8802,-7.904,-7.8936,-7.8802,-7.8668,-7.8638,-7.8772,-7.8668,-7.8772,-7.8906,-7.9409,-8.0523,-8.1508,-8.2072,-8.3211,-8.3884,-8.4112,-8.4091,-8.4692,-8.588,-8.6033,-8.7298,-9.0285,-9.0821,-9.1714,-9.3055,-9.3944,-9.4725,-9.5305,-9.5947,-9.651,-9.6625,-9.6919,-9.7179,-9.7448,-9.7292,-9.7559,-9.804,-9.8148,-9.8323,-9.9133,-9.9375,-9.9546,-10.0018,-10.0553,-10.1108,-10.1558,-10.3391,-10.4808,-10.5586,-10.6978,-10.8246,-10.8915,-11.1422,-11.2395,-11.1771,-10.9173,-10.7722,-10.7214,-10.6301,-10.5384,-10.5452,-10.5812,-10.604,-10.6227,-10.641,-10.6646,-10.6761,-10.6817,-10.6911,-10.6966,-10.6985,-10.6929,-10.6798,-10.6798,-10.6966,-10.6856,-10.656,-10.6596,-10.6613,-10.637,-10.6238,-10.5095,-10.3969,-10.3201,-10.2644,-10.2617,-10.2775,-10.3147,-10.3593,-10.3965,-10.3714,-10.3091,-10.2846,-7.53,-7.6606,-7.7273,-7.7823,-7.8398,-7.9203,-7.9367,-7.919,-7.9476,-7.9082,-7.7977,-7.7133,-7.6275,-7.532,-7.4631,-7.4984,-7.6125,-7.6436,-7.7411,-7.8638,-7.9203,-7.9469,-7.9632,-7.9499,-7.9499,-7.9469,-7.9203,-7.904,-7.904,-7.9173,-7.9409,-8.0066,-8.1066,-8.1917,-8.2535,-8.3281,-8.3786,-8.3741,-8.3439,-8.3573,-8.4322,-8.4569,-8.547,-8.7092,-8.8803,-9.0294,-9.1598,-9.3527,-9.4605,-9.4968,-9.5847,-9.6361,-9.6625,-9.6919,-9.7292,-9.7448,-9.7559,-9.767,-9.8222,-9.8255,-9.8503,-9.9203,-9.9512,-9.9783,-10.0217,-10.1089,-10.2083,-10.3048,-10.4666,-10.6529,-10.8241,-10.9654,-11.079,-11.1981,-11.3421,-11.355,-11.211,-10.9391,-10.7794,-10.7496,-10.6467,-10.5967,-10.604,-10.6446,-10.6529,-10.6703,-10.6798,-10.6911,-10.7022,-10.7039,-10.6966,-10.6966,-10.7093,-10.7076,-10.6911,-10.6966,-10.7093,-10.6777,-10.6333,-10.6238,-10.5771,-10.5378,-10.4711,-10.3572,-10.2664,-10.1846,-10.1371,-10.1417,-10.1937,-10.228,-10.2772,-10.3367,-10.3889,-10.3344,-10.3394,-7.53,-7.6746,-7.7519,-7.8203,-7.907,-7.9499,-7.9632,-7.9499,-7.8936,-7.8067,-7.7243,-7.6436,-7.5758,-7.5157,-7.4695,-7.5386,-7.6798,-7.7352,-7.8338,-7.9541,-7.9865,-7.9895,-8.0026,-7.9895,-7.9925,-7.9794,-7.9469,-7.9336,-7.9469,-7.9173,-7.9703,-8.0615,-8.1477,-8.2196,-8.3143,-8.3754,-8.4105,-8.3977,-8.3604,-8.3604,-8.4009,-8.4191,-8.4682,-8.5566,-8.7687,-8.9201,-8.9845,-9.2,-9.3355,-9.3822,-9.4816,-9.5814,-9.6443,-9.6806,-9.7146,-9.7559,-9.767,-9.7856,-9.8397,-9.8576,-9.8821,-9.9306,-9.9716,-9.9883,-10.0316,-10.1173,-10.2576,-10.4151,-10.5917,-10.7876,-11.0444,-11.1616,-11.2332,-11.3377,-11.3067,-11.2133,-11.1127,-10.9537,-10.8302,-10.7925,-10.6807,-10.6187,-10.6543,-10.6798,-10.6911,-10.7039,-10.7022,-10.7022,-10.7147,-10.7147,-10.7093,-10.7076,-10.7237,-10.7327,-10.7221,-10.7184,-10.6897,-10.6382,-10.59,-10.5652,-10.4612,-10.388,-10.2988,-10.2032,-10.1268,-10.0605,-10.0165,-10.0351,-10.1289,-10.1854,-10.3164,-10.3729,-10.3847,-10.4118,-10.4461,-7.5729,-7.7134,-7.7901,-7.8772,-7.9733,-7.9601,-7.9173,-7.8906,-7.8338,-7.7657,-7.6885,-7.6606,-7.6154,-7.5558,-7.5529,-7.6096,-7.7382,-7.8503,-7.9673,-8.0584,-8.0157,-8.0127,-8.0196,-8.0157,-8.0057,-7.9895,-7.9601,-7.9571,-7.9865,-7.9469,-7.9834,-8.1189,-8.176,-8.2688,-8.3805,-8.4393,-8.4658,-8.4574,-8.4457,-8.4542,-8.4838,-8.4954,-8.5585,-8.6683,-8.8254,-8.9053,-8.9185,-9.0178,-9.1334,-9.2354,-9.332,-9.4602,-9.5632,-9.5964,-9.6705,-9.7492,-9.767,-9.7999,-9.8678,-9.8821,-9.903,-9.958,-9.9918,-10.0217,-10.0478,-10.1302,-10.2701,-10.4594,-10.6821,-10.9142,-11.1052,-11.2485,-11.2855,-11.1437,-11.0307,-10.9646,-10.956,-10.9531,-10.9174,-10.7962,-10.7102,-10.6533,-10.6639,-10.6854,-10.7076,-10.7184,-10.7184,-10.7147,-10.7342,-10.7305,-10.7305,-10.7305,-10.7445,-10.7533,-10.7431,-10.7357,-10.6667,-10.6039,-10.5556,-10.4782,-10.3822,-10.2152,-10.1214,-10.0649,-9.9916,-9.9687,-9.9245,-10.007,-10.0932,-10.2512,-10.4192,-10.5354,-10.5623,-10.5893,-10.597,-7.5729,-7.7134,-7.7901,-7.8846,-8.0096,-7.9834,-7.9541,-7.9439,-7.8398,-7.7745,-7.7332,-7.6775,-7.6465,-7.6295,-7.6746,-7.7578,-7.8638,-7.9306,-7.9965,-8.0455,-8.0486,-8.0615,-8.0713,-8.0615,-8.0615,-8.0486,-8.0455,-8.0226,-8.0226,-8.0387,-8.1159,-8.201,-8.2842,-8.3566,-8.4308,-8.469,-8.4542,-8.4105,-8.4091,-8.4242,-8.4457,-8.4774,-8.5345,-8.619,-8.7371,-8.7913,-8.7839,-8.9198,-9.0104,-9.0528,-9.1346,-9.2111,-9.2705,-9.3563,-9.487,-9.6605,-9.7045,-9.7492,-9.8216,-9.8855,-9.9306,-9.9716,-9.9918,-10.0217,-10.0478,-10.1208,-10.3097,-10.521,-10.6632,-10.8425,-11.1197,-11.1386,-11.0547,-11.0079,-10.9538,-10.8859,-10.7929,-10.8008,-10.7505,-10.6589,-10.6324,-10.658,-10.6929,-10.7039,-10.7237,-10.7505,-10.7342,-10.7342,-10.7482,-10.7394,-10.7357,-10.7459,-10.7595,-10.7595,-10.7422,-10.7544,-10.7249,-10.6191,-10.5526,-10.4383,-10.3118,-10.0948,-9.9638,-9.9186,-9.8884,-9.8694,-9.903,-9.9932,-10.1322,-10.3048,-10.4659,-10.6157,-10.702,-10.7544,-10.7614,-7.5272,-7.6436,-7.7627,-7.9113,-8.0455,-8.0096,-7.9703,-7.9336,-7.8262,-7.7608,-7.7332,-7.6775,-7.6775,-7.7083,-7.799,-7.8906,-7.9571,-8.0066,-8.0326,-8.0584,-8.0713,-8.0841,-8.0841,-8.0841,-8.0841,-8.0841,-8.0841,-8.0713,-8.0584,-8.1,-8.1634,-8.2597,-8.3415,-8.4191,-8.4806,-8.5086,-8.4857,-8.4457,-8.437,-8.4401,-8.4489,-8.4889,-8.5428,-8.6053,-8.6788,-8.7004,-8.6929,-8.8079,-8.8684,-8.8434,-8.9333,-8.9894,-9.0058,-9.1646,-9.3856,-9.5964,-9.6819,-9.7492,-9.8073,-9.8994,-9.9649,-9.9817,-10.0083,-10.038,-10.0672,-10.1372,-10.2872,-10.5265,-10.5795,-10.7099,-10.9683,-10.8425,-10.7323,-10.8499,-10.8551,-10.7975,-10.7812,-10.7857,-10.7503,-10.6415,-10.6462,-10.6715,-10.6925,-10.7002,-10.7147,-10.7379,-10.7445,-10.7546,-10.7633,-10.7546,-10.7509,-10.7607,-10.7656,-10.7565,-10.7249,-10.7497,-10.7174,-10.5956,-10.4955,-10.3685,-10.1811,-9.9675,-9.9192,-9.8894,-9.863,-9.8516,-9.8707,-9.953,-10.0352,-10.2295,-10.4907,-10.6372,-10.7759,-10.8148,-10.8587,-7.4579,-7.5128,-7.7185,-7.9246,-8.0841,-8.0226,-7.9439,-7.8906,-7.8156,-7.747,-7.6885,-7.6775,-7.7193,-7.8019,-7.9173,-7.9804,-7.9965,-8.0615,-8.0841,-8.0841,-8.0841,-8.0841,-8.0841,-8.0841,-8.0841,-8.0841,-8.0841,-8.0841,-8.0811,-8.0969,-8.1572,-8.2779,-8.3535,-8.4425,-8.5151,-8.5588,-8.5588,-8.5216,-8.5257,-8.5173,-8.4838,-8.5379,-8.5942,-8.6527,-8.6538,-8.6505,-8.6505,-8.6788,-8.6821,-8.6538,-8.728,-8.7685,-8.7913,-9.0318,-9.3001,-9.5433,-9.6865,-9.7746,-9.8255,-9.9134,-9.9817,-10.0118,-10.0316,-10.061,-10.0899,-10.136,-10.2646,-10.4755,-10.5347,-10.5873,-10.6757,-10.4962,-10.4635,-10.7148,-10.6744,-10.718,-10.858,-10.8528,-10.8547,-10.765,-10.7353,-10.7033,-10.625,-10.6667,-10.6985,-10.7253,-10.7459,-10.7704,-10.7704,-10.7704,-10.7752,-10.7799,-10.7733,-10.7324,-10.64,-10.6895,-10.5779,-10.4097,-10.3384,-10.2665,-10.0518,-9.8897,-9.8838,-9.8736,-9.863,-9.8593,-9.8698,-9.9142,-9.9888,-10.1231,-10.3797,-10.6019,-10.7065,-10.8212,-10.8981,-7.484,-7.5529,-7.7352,-7.9246,-8.0713,-8.0226,-7.9804,-7.9439,-7.8802,-7.8398,-7.8126,-7.8096,-7.8503,-7.9306,-7.9703,-8.0196,-8.0584,-8.0841,-8.0841,-8.0841,-8.0841,-8.0841,-8.0841,-8.0841,-8.0841,-8.0841,-8.0841,-8.0841,-8.0969,-8.1823,-8.2412,-8.2932,-8.4159,-8.5069,-8.5298,-8.5588,-8.541,-8.5004,-8.5345,-8.5345,-8.5151,-8.5653,-8.6131,-8.6242,-8.6429,-8.6505,-8.6505,-8.6242,-8.6053,-8.5909,-8.5736,-8.5618,-8.5714,-8.8297,-9.0371,-9.1521,-9.4621,-9.6966,-9.7611,-9.8716,-9.9649,-10.0053,-10.0118,-10.0512,-10.096,-10.096,-10.1966,-10.3935,-10.3711,-10.3425,-10.364,-10.3399,-10.3509,-10.4495,-10.5835,-10.6391,-10.7054,-10.7333,-10.7492,-10.7029,-10.6776,-10.6133,-10.5732,-10.5967,-10.6724,-10.732,-10.7509,-10.7607,-10.7891,-10.7854,-10.7854,-10.7982,-10.7944,-10.7323,-10.6302,-10.6381,-10.5746,-10.3718,-10.2198,-10.1954,-10.114,-9.9644,-9.9004,-9.8865,-9.8828,-9.8828,-9.8828,-9.896,-9.9434,-10.0224,-10.2232,-10.4899,-10.6339,-10.8248,-10.9163,-7.4984,-7.5529,-7.7352,-7.9216,-8.0713,-8.0455,-8.0096,-7.9834,-7.9409,-7.904,-7.8772,-7.9173,-7.9541,-8.0096,-8.0066,-8.0196,-8.0584,-8.0841,-8.0841,-8.0841,-8.0841,-8.0841,-8.0841,-8.0841,-8.0841,-8.0841,-8.0841,-8.0841,-8.0969,-8.1698,-8.2412,-8.3206,-8.469,-8.5525,-8.5638,-8.5988,-8.5811,-8.5314,-8.5751,-8.5638,-8.5086,-8.5201,-8.5428,-8.554,-8.5363,-8.5363,-8.5395,-8.5004,-8.469,-8.4542,-8.4425,-8.4276,-8.4308,-8.6931,-8.8513,-8.9063,-9.2635,-9.5233,-9.6329,-9.7479,-9.8279,-9.8818,-9.9539,-10.0217,-10.0864,-10.0864,-10.1368,-10.2666,-10.2197,-10.1852,-10.2032,-10.2646,-10.3438,-10.4435,-10.5593,-10.6774,-10.7349,-10.7765,-10.7636,-10.7137,-10.6634,-10.6156,-10.5571,-10.5659,-10.6288,-10.7056,-10.7607,-10.7799,-10.7989,-10.7473,-10.7521,-10.7942,-10.7048,-10.5779,-10.4397,-10.4584,-10.3908,-10.2399,-10.1547,-10.117,-10.066,-9.9654,-9.9089,-9.8953,-9.8946,-9.8975,-9.8946,-9.9127,-9.9245,-9.9585,-10.1445,-10.3102,-10.5614,-10.7925,-10.9323,-7.5157,-7.5813,-7.749,-7.9246,-8.0713,-8.0841,-8.0455,-8.0096,-7.9935,-7.9571,-7.8906,-7.9834,-8.0165,-8.0196,-7.9905,-7.9743,-7.9905,-8.0135,-8.0265,-8.0425,-8.0554,-8.0713,-8.0841,-8.0841,-8.0841,-8.0841,-8.0841,-8.0841,-8.0841,-8.0939,-8.1729,-8.3269,-8.4889,-8.583,-8.6131,-8.6527,-8.6495,-8.6099,-8.5988,-8.554,-8.4825,-8.451,-8.451,-8.4709,-8.4159,-8.3773,-8.3891,-8.3478,-8.3117,-8.2842,-8.3447,-8.3773,-8.4019,-8.5976,-8.7486,-8.7931,-9.0725,-9.3051,-9.4411,-9.5631,-9.65,-9.7146,-9.8721,-9.9984,-10.0575,-10.0994,-10.1184,-10.1348,-10.1124,-10.1243,-10.1614,-10.2333,-10.3399,-10.4923,-10.6068,-10.7255,-10.8414,-10.9111,-10.8724,-10.7394,-10.6997,-10.6707,-10.5647,-10.5598,-10.5894,-10.6565,-10.7305,-10.7845,-10.787,-10.6961,-10.6604,-10.7095,-10.5521,-10.3047,-10.207,-10.2558,-10.214,-9.9943,-10.0269,-10.051,-9.988,-9.9342,-9.9143,-9.9127,-9.9154,-9.9221,-9.927,-9.9317,-9.9378,-9.952,-10.0131,-10.102,-10.4129,-10.7446,-10.952,-7.5586,-7.6856,-7.8096,-7.9143,-8.0066,-8.0615,-8.0841,-8.0713,-8.0554,-8.0066,-7.9306,-7.9935,-8.0066,-7.9409,-7.7859,-7.7421,-7.745,-7.5749,-7.6169,-7.807,-7.8205,-7.9065,-8.0713,-8.0841,-8.0841,-8.0841,-8.0841,-8.0841,-8.0841,-8.0841,-8.1477,-8.2751,-8.4393,-8.5573,-8.6131,-8.6527,-8.6418,-8.583,-8.5314,-8.494,-8.4709,-8.4709,-8.4709,-8.4709,-8.4159,-8.3773,-8.3773,-8.3295,-8.2932,-8.2811,-8.3415,-8.3773,-8.3836,-8.5976,-8.7486,-8.7931,-8.9893,-9.1568,-9.2534,-9.4737,-9.6569,-9.7277,-9.8787,-10.0083,-10.0864,-10.0707,-10.0512,-10.0899,-10.1089,-10.1278,-10.1649,-10.2437,-10.3271,-10.3746,-10.5581,-10.6946,-10.7571,-10.7754,-10.7648,-10.7432,-10.6307,-10.5616,-10.5359,-10.5525,-10.5828,-10.6114,-10.6761,-10.7421,-10.7603,-10.6651,-10.5404,-10.4659,-10.301,-10.1511,-10.1389,-10.1682,-10.1071,-9.9374,-9.9485,-9.9579,-9.9428,-9.9359,-9.9369,-9.9218,-9.9308,-9.9385,-9.9363,-9.9385,-9.9469,-9.9621,-10.045,-10.209,-10.4333,-10.737,-10.962,-7.6013,-7.7302,-7.8338,-7.9143,-7.9965,-8.0584,-8.0713,-8.0425,-7.8963,-7.7859,-7.7509,-7.8787,-7.9113,-7.8712,-7.7918,-7.7782,-7.7948,-7.6871,-7.7146,-7.8459,-7.8667,-7.942,-8.0554,-8.0841,-8.0841,-8.0841,-8.0841,-8.0841,-8.0841,-8.0841,-8.1351,-8.2351,-8.3535,-8.4709,-8.5798,-8.6164,-8.6053,-8.5718,-8.4478,-8.3741,-8.3383,-8.3111,-8.3053,-8.3206,-8.2688,-8.2412,-8.2443,-8.1917,-8.1572,-8.1477,-8.2196,-8.2842,-8.3206,-8.4894,-8.6541,-8.7768,-8.9124,-9.0117,-9.0674,-9.2419,-9.3973,-9.5511,-9.7868,-9.9236,-9.9145,-9.96,-10.0049,-10.0316,-10.061,-10.0899,-10.1055,-10.1872,-10.2625,-10.3081,-10.4402,-10.5527,-10.5942,-10.6126,-10.6272,-10.6342,-10.5653,-10.5283,-10.5489,-10.5659,-10.5792,-10.6103,-10.5734,-10.556,-10.5329,-10.4202,-10.2997,-10.2182,-10.0952,-10.016,-10.0113,-10.0217,-9.9943,-9.911,-9.908,-9.9137,-9.9164,-9.9283,-9.9355,-9.9308,-9.9465,-9.9564,-9.9507,-9.9544,-9.96,-9.9693,-10.05,-10.2075,-10.4211,-10.6146,-10.8126,-7.6262,-7.7273,-7.8308,-7.898,-7.9511,-8.0005,-7.9814,-7.8993,-7.6425,-7.51,-7.5128,-7.7126,-7.8037,-7.7871,-7.8414,-7.8712,-7.8876,-7.8846,-7.901,-7.9469,-7.9673,-7.9905,-8.0226,-8.0584,-8.0841,-8.0841,-8.0841,-8.0841,-8.0841,-8.0841,-8.1351,-8.2259,-8.2688,-8.3773,-8.5347,-8.5605,-8.5492,-8.5233,-8.3535,-8.232,-8.1603,-8.1066,-8.078,-8.0912,-8.0749,-8.0652,-8.0437,-8.0234,-8.0096,-7.9925,-8.0964,-8.1696,-8.2259,-8.3598,-8.5289,-8.7148,-8.8142,-8.8622,-8.8997,-8.9397,-9.0565,-9.2849,-9.6324,-9.7763,-9.6159,-9.7694,-9.8821,-9.8892,-9.9125,-9.956,-9.9819,-10.0276,-10.1062,-10.2185,-10.2843,-10.355,-10.4379,-10.4786,-10.5041,-10.5289,-10.4999,-10.4884,-10.5609,-10.5499,-10.5447,-10.5798,-10.5013,-10.3699,-10.2807,-10.1103,-10.0033,-9.983,-9.919,-9.8776,-9.892,-9.8875,-9.901,-9.896,-9.8953,-9.9021,-9.9108,-9.9321,-9.9401,-9.9503,-9.962,-9.9705,-9.9705,-9.972,-9.972,-9.9758,-10.0545,-10.166,-10.4198,-10.533,-10.6534,-7.5588,-7.749,-7.8338,-7.8279,-7.7509,-7.7117,-7.603,-7.4585,0.0,0.0,0.0,-7.6878,-7.7323,-7.6798,-7.6262,-7.6093,-7.6233,-7.4383,-7.4843,-7.6988,-7.7126,-7.8113,-7.9895,-8.0226,-8.0295,-8.0455,-8.0713,-8.0841,-8.0841,-8.0841,-8.1097,-8.1665,-8.2475,-8.3263,-8.4159,-8.4857,-8.4594,-8.3383,-8.2134,-8.1289,-8.0554,-8.0135,-7.9457,-7.8393,-7.9228,-7.9158,-7.8514,-7.9098,-7.9601,-7.9895,-8.0964,-8.1444,-8.1665,-8.3358,-8.4554,-8.5012,-8.6156,-8.6823,-8.6413,-8.7184,-8.8319,-9.0145,-9.4416,-9.5784,-9.2777,-9.3469,-9.4217,-9.483,-9.5701,-9.6125,-9.631,-9.7022,-9.8053,-9.9404,-10.0505,-10.1784,-10.3371,-10.4114,-10.4677,-10.5178,-10.4022,-10.3586,-10.5368,-10.4529,-10.3653,-10.4037,-10.3696,-10.3292,-10.1894,-9.9475,-9.782,-9.827,-9.8388,-9.8407,-9.8664,-9.8804,-9.8833,-9.896,-9.8953,-9.9021,-9.9229,-9.9407,-9.9482,-9.9503,-9.9638,-9.9705,-9.972,-9.972,-9.9735,-9.9726,-10.1913,-10.4136,-10.4885,-10.6026,-10.7574,-7.6548,0.0,-7.8338,-7.8037,0.0,-7.6929,-7.4699,-7.1607,-7.1785,-7.2141,-7.2849,-7.53,-7.6349,-7.5955,-7.6349,-7.66,-7.6769,-7.5528,-7.5698,-7.7105,-7.746,-7.8203,-7.9336,-7.9865,-8.0127,-8.0127,-8.0257,-8.0486,-8.0584,-8.0554,-8.0872,-8.1475,-8.1916,-8.2597,-8.3598,-8.4073,-8.3383,-8.151,-8.0744,-7.9865,-7.895,-7.8384,-7.7951,-7.7489,-7.8011,0.0,0.0,0.0,0.0,0.0,0.0,0.0,0.0,0.0,0.0,-8.5031,-8.5442,-8.5946,-8.6401,-8.638,-8.702,-8.8876,-9.1019,-9.1728,-9.0155,-9.1136,-9.1983,-9.2419,-9.3156,-9.381,-9.408,-9.4773,-9.5885,-9.7069,-9.8055,-9.9195,-10.0633,-10.2081,-10.319,-10.3665,-10.37,-10.3768,-10.4419,-10.3653,-10.3025,-10.2536,-10.1791,-10.1031,-10.0308,-9.8342,-9.6941,-9.7388,-9.775,-9.8127,-9.8256,-9.8445,-9.8733,-9.8929,-9.896,-9.9058,-9.9305,-9.9396,-9.9438,-9.9423,-9.962,-9.972,-9.972,-9.9735,-9.9839,-10.0055,-10.1836,-10.3756,-10.4874,-10.6295,-10.7973,-7.7176,-7.7901,-7.8067,-7.7901,-7.746,-7.66,-7.3972,-7.0269,-6.9047,-6.9229,-7.0561,-7.3545,-7.4871,-7.5243,-7.6716,-7.7637,-7.7608,-7.7608,-7.7608,-7.7745,-7.8262,-7.8503,-7.8503,-7.9203,-7.9632,-7.9662,-7.9763,-7.9996,-8.0326,-8.0326,-8.0615,-8.1286,-8.1444,-8.2041,-8.2995,0.0,0.0,0.0,-7.956,-7.8457,-7.7293,-7.6658,-7.6291,-7.6367,-7.6571,0.0,-7.7273,-7.7753,-7.8203,-7.8503,-7.904,0.0,0.0,0.0,0.0,0.0,0.0,0.0,0.0,0.0,0.0,0.0,-8.7101,-8.6949,-8.6861,-8.84,-8.9577,-8.9778,-9.0452,-9.1111,-9.1394,-9.2205,-9.3332,-9.4547,-9.5402,-9.6388,-9.7731,-9.9679,-10.1122,-10.1496,-10.2581,-10.3118,-10.2581,-10.2413,-10.1884,-10.0985,-9.9726,-9.8868,-9.8595,-9.7457,-9.6907,-9.715,-9.7509,-9.7832,-9.7851,-9.8217,-9.8628,-9.8795,-9.8903,-9.9035,-9.924,-9.9308,-9.9294,-9.934,-9.9545,-9.9689,-9.972,-9.9825,-9.9866,-9.9902,-10.1299,-10.2862,-10.4216,-10.6076,-10.7896,-7.5805,-7.7273,-7.7716,-7.6937,-7.5443,-7.4231,-7.2932,-7.1577,-7.0685,-7.0148,-6.9851,-7.1616,-7.2955,-7.4085,-7.5813,-7.6995,-7.7302,-7.7273,-7.747,-7.7775,-7.7882,-7.7882,-7.7882,-7.8203,-7.8608,-7.8936,-7.9173,-7.9703,-8.0326,-8.0326,-8.0455,-8.1,-8.1317,-8.1665,-8.1979,-8.1097,-8.0841,-8.1286,-7.9276,-7.7686,-7.6266,-7.5443,-7.4614,-7.3558,-7.4586,-7.4757,-7.4147,-7.6105,-7.744,-7.7882,-7.8802,-7.9571,-8.0026,-8.0964,-8.1727,0.0,-8.2131,0.0,0.0,0.0,0.0,0.0,0.0,0.0,0.0,-8.3094,-8.4276,-8.5424,-8.6221,-8.6746,-8.6778,-8.7615,-8.8817,-9.058,-9.2137,-9.384,-9.561,-9.7381,-9.8585,-9.902,-9.8614,-9.8965,-10.0253,-9.9612,-9.9068,-9.8926,-9.8682,-9.8061,-9.6675,-9.6452,-9.6614,-9.6994,-9.7165,-9.7509,-9.7957,-9.8209,-9.8444,-9.8555,-9.8804,-9.9004,-9.908,-9.9233,-9.9317,-9.934,-9.9448,-9.96,-9.9705,-9.972,-9.979,-9.991,-10.1205,-10.2393,-10.3001,-10.5165,-10.7405,-7.5295,-7.6266,-7.6885,-7.5813,-7.3826,-7.2551,-7.1347,-7.0297,-6.9414,-6.8772,-6.7947,-6.851,-6.9341,-7.0591,-7.2705,-7.3759,-7.3958,-7.4642,-7.4956,-7.5243,-7.5984,-7.6436,-7.6576,-7.7411,-7.796,-7.8126,-7.8533,-7.907,-7.9409,-7.9703,-7.9965,-8.0417,-8.0547,-7.9752,-7.8002,-7.753,-7.7206,-7.7236,-7.6316,-7.5344,-7.4085,-7.3701,-7.3274,-7.2743,-7.3421,-7.415,-7.4584,-7.5836,-7.6995,-7.8019,-7.8668,-7.9203,-7.9571,-7.9409,-7.9642,0.0,0.0,0.0,0.0,0.0,0.0,0.0,0.0,0.0,0.0,0.0,-8.25,-8.308,-8.4148,-8.476,-8.476,-8.5667,-8.6593,-8.7404,-8.9034,-9.0514,-9.165,-9.3853,-9.5562,-9.6397,-9.7055,-9.7741,-9.8395,-9.8093,-9.7636,-9.6985,-9.6803,-9.6674,-9.632,-9.6407,-9.6633,-9.6957,-9.7201,-9.745,-9.7687,-9.808,-9.8443,-9.8519,-9.8591,-9.8661,-9.8897,-9.9042,-9.9116,-9.9143,-9.934,-9.9602,-9.9693,-9.9773,-9.9828,-10.002,-10.0547,-10.1368,-10.2241,-10.3644,-10.5045,-7.4348,-7.4927,-7.4754,-7.3505,-7.1484,-7.047,-6.924,-6.7979,-6.7187,-6.6559,-6.5784,-6.5184,-6.5582,-6.6914,-6.8657,-6.9815,-7.0583,-7.1492,-7.2396,-7.3174,-7.4348,-7.4813,-7.4928,-7.5972,-7.6686,-7.6724,-7.7262,-7.7608,-7.7845,-7.874,-7.9005,-7.8855,-7.8403,-7.6667,-7.4022,-7.4092,-7.401,-7.3677,-7.3667,-7.339,-7.2728,-7.2361,-7.221,-7.2361,-7.2689,-7.3525,-7.4956,-7.5558,-7.6431,-7.7575,-7.7948,-7.8189,-7.8294,-7.7391,0.0,0.0,0.0,0.0,0.0,0.0,0.0,0.0,0.0,-7.7486,-7.9067,0.0,-8.0827,0.0,-8.1907,-8.2947,-8.3263,-8.4212,0.0,0.0,-8.6449,-8.7649,-8.8265,-9.0501,-9.2448,-9.3485,-9.5254,-9.6346,-9.6091,-9.6455,-9.6158,-9.4777,-9.4554,-9.4706,-9.5055,-9.5528,-9.5916,-9.6368,-9.6855,-9.7302,-9.7499,-9.7653,-9.7653,-9.7771,-9.8146,-9.8445,-9.8698,-9.8795,-9.8885,-9.8975,-9.9245,-9.9524,-9.9715,-9.9787,-9.9853,-9.9916,-9.991,-10.0341,-10.1519,-10.2202,-10.2881,-7.2551,-7.3025,-7.0669,-6.8889,-6.7654,-6.7175,-6.6134,-6.4978,-6.4477,-6.3848,-6.3202,-6.2013,-6.2456,-6.3943,-6.3791,0.0,-6.7963,-6.8398,-7.0176,-7.3025,-7.3174,-7.3147,-7.3077,-7.3218,-7.3451,-7.3648,-7.482,-7.54,-7.5272,-7.7576,-7.7839,-7.5752,-7.3926,-7.2423,-7.1461,-7.176,-7.2228,-7.293,-7.2652,-7.2646,-7.2998,-7.2032,-7.1577,-7.188,-7.2032,-7.2633,-7.3792,-7.4811,-7.5435,-7.5494,-7.5937,-7.6024,-7.5406,0.0,0.0,0.0,0.0,0.0,0.0,0.0,0.0,0.0,0.0,0.0,0.0,0.0,0.0,0.0,-7.8817,0.0,-8.1886,-8.2688,0.0,0.0,0.0,-8.5667,-8.6614,-8.8162,-8.9427,-8.9969,0.0,0.0,-9.2882,-9.3971,-9.3873,-9.183,-9.215,-9.2225,-9.1235,-9.268,-9.3865,-9.4835,-9.5963,-9.7047,-9.7223,-9.6554,-9.5831,-9.5809,-9.7246,-9.8407,-9.8518,-9.8658,-9.8847,-9.9024,-9.9233,-9.9393,-9.9713,-9.9726,-9.9781,-9.9878,-9.9903,-9.9961,-10.0248,-10.1324,-10.2353,-6.8417,-6.4619,-6.3628,-6.2513,-6.1547,-6.1381,-6.0503,-5.9113,-5.895,-5.8197,-5.7162,-5.6378,-5.6645,-5.7688,-5.7533,0.0,0.0,0.0,-6.4475,-6.7632,-6.7839,-6.9079,-7.0875,-7.1184,-7.157,-7.2067,-7.2992,-7.3633,-7.3951,-7.5219,-7.3603,-6.9423,0.0,0.0,-6.6803,-6.65,-6.6558,-6.7075,-6.8494,-6.8857,-6.8361,-6.9294,-7.0039,-7.0349,-7.0993,-7.2059,-7.3617,-7.4638,-7.4986,-7.4895,-7.5468,-7.5156,0.0,0.0,0.0,0.0,0.0,0.0,0.0,0.0,0.0,0.0,0.0,-7.1166,-7.2173,0.0,0.0,0.0,-7.6035,-7.7704,-7.9866,-8.0487,0.0,0.0,0.0,0.0,0.0,0.0,0.0,-8.8029,-8.9505,-9.0866,-9.1652,-9.1419,-9.0502,-8.8945,-9.0351,-9.1475,-9.1413,0.0,-9.4293,-9.41,-9.4848,-9.5204,-9.459,-9.487,-9.4897,-9.4035,-9.544,-9.6981,-9.8105,-9.8408,-9.8586,-9.8847,-9.9061,-9.9321,-9.9654,-9.964,-9.9651,-9.9749,-9.9853,-9.9906,-9.9895,-10.041,-10.0922,-6.293,0.0,0.0,0.0,0.0,-5.5866,-5.5337,-5.41,-5.4311,-5.387,-5.3022,-5.2003,0.0,0.0,0.0,0.0,0.0,0.0,-6.0276,-6.3324,-6.4149,-6.5915,-6.8162,-6.8738,-6.9112,-6.9435,-7.054,-7.1079,-7.1237,-7.0857,-6.8187,-6.3491,0.0,0.0,0.0,0.0,-6.2209,-6.2512,-6.4768,-6.5722,-6.5249,-6.7011,-6.8287,-6.8784,-6.978,-7.1146,-7.2904,-7.3294,-7.3309,-7.3184,-7.3606,0.0,0.0,0.0,0.0,0.0,0.0,0.0,0.0,0.0,0.0,0.0,0.0,0.0,0.0,0.0,0.0,0.0,0.0,0.0,-7.678,-7.7892,-7.8415,0.0,0.0,0.0,0.0,0.0,0.0,0.0,0.0,0.0,-8.9266,-8.9118,-8.8337,0.0,0.0,-9.0347,-8.9722,-9.2073,-9.3621,-9.2753,-9.3804,0.0,-9.3502,-9.3817,-9.4024,-9.348,-9.3643,-9.4666,-9.6958,-9.7873,-9.837,-9.8687,-9.8878,-9.9089,-9.9421,-9.9421,-9.9407,-9.9524,-9.9672,-9.9763,-9.9765,-9.9848,-9.9878,0.0,0.0,0.0,0.0,0.0,0.0,0.0,0.0,-5.1422,-5.1901,0.0,-4.9956,0.0,0.0,0.0,0.0,0.0,-5.5705,0.0,0.0,-6.3229,-6.4435,-6.493,-6.5654,-6.5733,-6.5351,-6.7028,-6.73,-6.629,-6.3904,0.0,0.0,0.0,0.0,0.0,0.0,-6.039,-6.0692,-6.2316,-6.3809,-6.5166,-6.5659,-6.6564,-6.7432,-6.8493,-6.9571,-7.1119,-7.0577,-7.0049,-6.984,-6.9226,0.0,0.0,0.0,0.0,0.0,0.0,0.0,0.0,0.0,0.0,0.0,0.0,0.0,0.0,0.0,0.0,0.0,0.0,0.0,0.0,-7.4638,0.0,0.0,0.0,0.0,0.0,0.0,0.0,0.0,0.0,0.0,-8.4718,-8.729,-8.8072,-8.4352,0.0,0.0,0.0,0.0,-9.0974,-9.0051,-9.302,-9.5385,-9.5507,-9.3678,-9.2734,-9.4297,0.0,0.0,-9.4912,-9.6865,-9.8131,-9.8654,-9.865,-9.8683,-9.884,-9.8758,-9.8891,-9.9007,-9.9189,-9.9393,-9.9487,-9.9553,-9.9714,0.0,0.0,0.0,0.0,0.0,0.0,0.0,0.0,0.0,-4.7051,0.0,-4.6421,0.0,0.0,0.0,0.0,0.0,0.0,0.0,0.0,-5.8952,-6.0679,-6.2771,-6.2468,-6.278,0.0,-6.3553,-6.2064,0.0,0.0,0.0,0.0,0.0,0.0,0.0,0.0,-5.6407,-5.7736,-5.9731,-6.1371,-6.2526,-6.3889,-6.546,-6.7,-6.7348,-6.8075,-6.8985,-6.8894,-6.8799,0.0,0.0,0.0,0.0,0.0,0.0,0.0,0.0,0.0,0.0,0.0,0.0,0.0,0.0,0.0,0.0,0.0,0.0,0.0,0.0,0.0,0.0,0.0,-7.5003,0.0,0.0,0.0,0.0,0.0,0.0,0.0,0.0,0.0,-8.2375,-8.4417,-8.5081,-8.2558,-8.4963,-8.6643,-8.5695,0.0,0.0,0.0,0.0,0.0,0.0,0.0,-9.0945,-9.0729,-9.2469,-9.4136,-9.4678,-9.6292,-9.7613,-9.814,0.0,0.0,-9.5267,-9.5565,-9.6236,-9.6424,-9.7349,-9.8259,-9.8685,-9.878,-9.894,0.0,0.0,0.0,0.0,0.0,0.0,0.0,0.0,0.0,-4.379,-4.3622,0.0,0.0,0.0,0.0,0.0,0.0,0.0,0.0,0.0,0.0,0.0,-5.9777,-5.9555,0.0,0.0,0.0,0.0,0.0,0.0,0.0,0.0,0.0,0.0,0.0,0.0,-5.4398,-5.5933,-5.8037,-5.9707,-6.0581,-6.2076,-6.3821,-6.5659,-6.6008,-6.6388,-6.6739,0.0,0.0,0.0,0.0,0.0,0.0,0.0,0.0,0.0,0.0,0.0,0.0,0.0,0.0,0.0,0.0,0.0,0.0,0.0,0.0,0.0,0.0,0.0,0.0,0.0,-7.2601,0.0,0.0,0.0,0.0,0.0,0.0,0.0,0.0,0.0,0.0,0.0,-8.3416,-8.1487,-8.3595,-8.5238,-8.4963,-8.5937,-8.6633,0.0,0.0,0.0,0.0,0.0,0.0,0.0,0.0,0.0,0.0,0.0,0.0,0.0,0.0,-9.5218,-9.3083,-9.3365,-9.4008,-9.4364,0.0,0.0,0.0,0.0,0.0,0.0,0.0,0.0,0.0,0.0,0.0,0.0,0.0,0.0,0.0,0.0,0.0,0.0,-4.4569,0.0,0.0,0.0,0.0,0.0,0.0,0.0,0.0,0.0,0.0,0.0,0.0,0.0,0.0,0.0,0.0,0.0,0.0,0.0,0.0,0.0,0.0,-5.4618,-5.5595,-5.7342,-5.8714,-5.9618,-6.0101,-6.1299,-6.3455,-6.4308,-6.4648,-6.4324,0.0,0.0,0.0,0.0,0.0,0.0,0.0,0.0,0.0,0.0,0.0,0.0,0.0,0.0,0.0,0.0,0.0,0.0,0.0,0.0,0.0,0.0,0.0,0.0,0.0,0.0,-6.833,-6.9433,-7.1076,0.0,0.0,0.0,0.0,0.0,0.0,0.0,0.0,0.0,0.0,-8.3119,-8.4146,-8.2284,-8.4048,-8.5242,-8.4129,-8.7381,-8.9595,-8.831,-8.8833,-8.9398,0.0,0.0,0.0,0.0,0.0,0.0,0.0,0.0,0.0,0.0,0.0,0.0,0.0,0.0,0.0,0.0,0.0,0.0,0.0,0.0,0.0,0.0,0.0,0.0,0.0,0.0,0.0,0.0,0.0,0.0,0.0,0.0,0.0,0.0,0.0,0.0,0.0,0.0,0.0,0.0,0.0,0.0,0.0,0.0,0.0,0.0,0.0,0.0,0.0,0.0,0.0,0.0,0.0,0.0,-5.3247,-5.4807,-5.5298,-5.6599,-5.8784,-5.9654,-6.1162,-6.3318,-6.466,-6.5045,0.0,0.0,0.0,0.0,0.0,0.0,0.0,0.0,0.0,0.0,0.0,0.0,0.0,0.0,0.0,0.0,0.0,0.0,0.0,0.0,0.0,0.0,0.0,0.0,0.0,0.0,0.0,0.0,-6.9567,-7.0321,-7.0829,0.0,0.0,0.0,0.0,0.0,0.0,0.0,0.0,0.0,0.0,-8.2636,-8.3266,-8.3247,-8.3901,-8.5596,-8.6388,-8.6903,-8.7159,-8.789,-8.861,-8.9083,0.0,0.0,0.0,0.0,0.0,0.0,0.0,0.0,0.0,0.0,0.0,0.0,0.0,0.0,0.0,0.0,0.0,0.0,0.0,0.0,0.0,0.0,0.0,0.0,0.0,0.0,0.0,0.0,0.0,0.0,0.0,0.0,0.0,0.0,0.0,0.0,0.0,0.0,0.0,0.0,0.0,0.0,0.0,0.0,0.0,0.0,0.0,0.0,0.0,0.0,0.0,0.0,0.0,-5.303,-5.463,-5.4741,-5.6096,-5.8689,-5.9111,-6.0409,-6.297,-6.4098,-6.4312,0.0,0.0,0.0,0.0,0.0,0.0,0.0,0.0,0.0,0.0,0.0,0.0,0.0,0.0,0.0,0.0,0.0,0.0,0.0,0.0,0.0,0.0,0.0,0.0,0.0,0.0,0.0,0.0,-6.7619,-6.8697,-6.8727,0.0,0.0,0.0,0.0,0.0,0.0,0.0,0.0,0.0,0.0,-8.0045,-8.1601,-8.1227,0.0,0.0,-8.4993,-8.535,-8.5159,-8.6257,-8.7299,-8.8045,-8.831,0.0,0.0,0.0,0.0,0.0,0.0,0.0,0.0,0.0,0.0,0.0,0.0,0.0,0.0,0.0,0.0,0.0,0.0,0.0,0.0,0.0,0.0,0.0,0.0,0.0,0.0,0.0,0.0,0.0,0.0,0.0,0.0,0.0,0.0,0.0,0.0,0.0,0.0,0.0,0.0,0.0,0.0,0.0,0.0,0.0,0.0,0.0,0.0,0.0,0.0,0.0,0.0,0.0,-5.5229,-5.5226,-5.6404,-5.9091,-5.8335,-5.9301,-6.2409,-6.3206,-6.2901,0.0,0.0,0.0,0.0,0.0,0.0,0.0,0.0,0.0,0.0,0.0,0.0,0.0,0.0,0.0,0.0,0.0,0.0,0.0,0.0,0.0,0.0,0.0,0.0,0.0,0.0,0.0,0.0,0.0,0.0,0.0,0.0,0.0,0.0,0.0,0.0,0.0,0.0,0.0,0.0,0.0,-7.7093,-7.837,-7.8726,-7.9455,0.0,0.0,-8.4947,-8.3123,-8.4411,-8.5826,-8.6488,0.0,0.0,0.0,0.0,0.0,0.0,0.0,0.0,0.0,0.0,0.0,0.0,0.0,0.0,0.0,0.0,0.0,0.0,0.0,0.0,0.0,0.0,0.0,0.0,0.0,0.0,0.0,0.0,0.0,0.0,0.0,0.0,0.0,0.0,0.0,0.0,0.0,0.0,0.0,0.0,0.0,0.0,0.0,0.0,0.0,0.0,0.0,0.0,0.0,0.0,0.0,0.0,0.0,0.0,-5.5111,-5.4767,-5.6088,-5.9091,-5.9074,-6.003,-6.2457,-6.3919,0.0,0.0,0.0,0.0,0.0,0.0,0.0,0.0,0.0,0.0,0.0,0.0,0.0,0.0,0.0,0.0,0.0,0.0,0.0,0.0,0.0,0.0,0.0,0.0,0.0,0.0,0.0,-5.9465,0.0,0.0,0.0,0.0,0.0,0.0,0.0,0.0,0.0,0.0,0.0,0.0,0.0,0.0,-7.7576,-7.9647,-8.0697,-8.1852,0.0,0.0,-8.5972,-8.5048,-8.5515,-8.5928,0.0,0.0,0.0,0.0,0.0,0.0,0.0,0.0,0.0,0.0,0.0,0.0,0.0,0.0,0.0,0.0,0.0,0.0,0.0,0.0,0.0,0.0,0.0,0.0,0.0,0.0,0.0,0.0,0.0,0.0,0.0,0.0,0.0,0.0,0.0,0.0,0.0,0.0,0.0,0.0,0.0,0.0,0.0,0.0,0.0,0.0,0.0,0.0,0.0,0.0,0.0,0.0,0.0,0.0,-5.3707,-5.5069,-5.4598,-5.6136,-5.9736,-5.9537,-6.0691,-6.3328,-6.427,-6.3753,0.0,0.0,0.0,0.0,0.0,0.0,0.0,0.0,0.0,0.0,0.0,0.0,0.0,0.0,0.0,0.0,0.0,0.0,0.0,0.0,0.0,0.0,0.0,0.0,0.0,0.0,0.0,0.0,0.0,0.0,0.0,0.0,0.0,0.0,0.0,0.0,0.0,0.0,0.0,0.0,0.0,0.0,-7.8462,-8.0049,0.0,0.0,0.0,-8.3679,-8.2429,0.0,0.0,0.0,0.0,0.0,0.0,0.0,0.0,0.0,0.0,0.0,0.0,0.0,0.0,0.0,0.0,0.0,0.0,0.0,0.0,0.0,0.0,0.0,0.0,0.0,0.0,0.0,0.0,0.0,0.0,0.0,0.0,0.0,0.0,0.0,0.0,0.0,0.0,0.0,0.0,0.0,0.0,0.0,0.0,0.0,0.0,0.0,0.0,0.0,0.0,0.0,0.0,0.0,0.0,0.0,0.0,0.0,-5.4922,-5.4294,-5.6126,-6.0163,-5.9791,-6.0997,-6.4088,-6.428,-6.3585,0.0,0.0,0.0,0.0,0.0,0.0,0.0,0.0,0.0,0.0,0.0,0.0,0.0,0.0,0.0,0.0,0.0,0.0,0.0,0.0,0.0,0.0,0.0,0.0,0.0,0.0,0.0,0.0,0.0,0.0,0.0,0.0,0.0,0.0,0.0,0.0,0.0,0.0,0.0,0.0,0.0,-7.4786,-7.6177,-7.7936,-7.8909,0.0,0.0,-8.0361,-7.8392,-8.015,0.0,0.0,0.0,0.0,0.0,0.0,0.0,0.0,0.0,0.0,0.0,0.0,0.0,0.0,0.0,0.0,0.0,0.0,0.0,0.0,0.0,0.0,0.0,0.0,0.0,0.0,0.0,0.0,0.0,0.0,0.0,0.0,0.0,0.0,0.0,0.0,0.0,0.0,0.0,0.0,0.0,0.0,0.0,0.0,0.0,0.0,0.0,0.0,0.0,0.0,0.0,0.0,0.0,0.0,0.0,0.0,-5.3958,-5.4271,-5.5599,-5.8322,-5.9106,-6.0492,-6.3078,-6.428,-6.3753,0.0,0.0,0.0,0.0,0.0,0.0,0.0,0.0,0.0,0.0,0.0,0.0,0.0,0.0,0.0,0.0,0.0,0.0,0.0,0.0,0.0,0.0,0.0,0.0,0.0,0.0,0.0,0.0,0.0,0.0,0.0,0.0,0.0,0.0,0.0,0.0,0.0,0.0,0.0,0.0,0.0,-7.5134,-7.5901,-7.7395,0.0,0.0,0.0,0.0,-8.0239,-8.1409,0.0,0.0,0.0,0.0,0.0,0.0,0.0,0.0,0.0,0.0,0.0,0.0,0.0,0.0,0.0,0.0,0.0,0.0,0.0,0.0,0.0,0.0,0.0,0.0,0.0,0.0,0.0,0.0,0.0,0.0,0.0,0.0,0.0,0.0,0.0,0.0,0.0,0.0,0.0,0.0,0.0,0.0,0.0,0.0,0.0,0.0,0.0,0.0,0.0,0.0,0.0,0.0,0.0,0.0,0.0,0.0,-5.3905,-5.4319,-5.5396,-5.7562,-5.8569,-6.009,-6.2144,-6.3486,-6.3223,0.0,0.0,0.0,0.0,0.0,0.0,0.0,0.0,0.0,0.0,0.0,0.0,0.0,0.0,0.0,0.0,0.0,0.0,0.0,0.0,0.0,0.0,0.0,0.0,0.0,0.0,0.0,0.0,0.0,0.0,0.0,0.0,0.0,0.0,0.0,0.0,0.0,0.0,0.0,0.0,-7.3934,-7.5428,-7.5754,0.0,0.0,0.0,0.0,0.0,0.0,-7.9462,-8.0425,0.0,0.0,0.0,0.0,0.0,0.0,0.0,0.0,0.0,0.0,0.0,0.0,0.0,0.0,0.0,0.0,0.0,0.0,0.0,0.0,0.0,0.0,0.0,0.0,0.0,0.0,0.0,0.0,0.0,0.0,0.0,0.0,0.0,0.0,0.0,0.0,0.0,0.0,0.0,0.0,0.0,0.0,0.0,0.0,0.0,0.0,0.0,0.0,0.0,0.0,0.0,0.0,0.0,0.0,0.0,-5.4321,-5.423,-5.5025,-5.7039,-5.7866,-5.9358,-6.1405,-6.2934,-6.2716,-6.0831,0.0,0.0,0.0,0.0,0.0,0.0,0.0,0.0,0.0,0.0,0.0,0.0,0.0,0.0,0.0,0.0,0.0,0.0,0.0,0.0,0.0,0.0,0.0,0.0,0.0,0.0,0.0,0.0,0.0,0.0,0.0,0.0,0.0,0.0,0.0,0.0,0.0,0.0,0.0,-7.3744,-7.5294,0.0,0.0,0.0,0.0,0.0,0.0,0.0,0.0,-7.7936,0.0,0.0,0.0,0.0,0.0,0.0,0.0,0.0,0.0,0.0,0.0,0.0,0.0,0.0,0.0,0.0,0.0,0.0,0.0,0.0,0.0,0.0,0.0,0.0,0.0,0.0,0.0,0.0,0.0,0.0,0.0,0.0,0.0,0.0,0.0,0.0,0.0,0.0,0.0,0.0,0.0,0.0,0.0,0.0,0.0,0.0,0.0,0.0,0.0,0.0,0.0,0.0,0.0,0.0,0.0,0.0,-5.3183,-5.3906,-5.6585,-5.6853,-5.8317,-6.134,-6.3103,-6.2692,-5.9765,0.0,0.0,0.0,0.0,0.0,0.0,0.0,0.0,0.0,0.0,0.0,0.0,0.0,0.0,0.0,0.0,0.0,0.0,0.0,0.0,0.0,0.0,0.0,0.0,0.0,0.0,0.0,0.0,0.0,0.0,0.0,0.0,0.0,0.0,0.0,0.0,0.0,0.0,-7.093,-7.2329,0.0,0.0,0.0,0.0,0.0,0.0,0.0,0.0,-7.648,0.0,0.0,0.0,0.0,0.0,0.0,0.0,0.0,0.0,0.0,0.0,0.0,0.0,0.0,0.0,0.0,0.0,0.0,0.0,0.0,0.0,0.0,0.0,0.0,0.0,0.0,0.0,0.0,0.0,0.0,0.0,0.0,0.0,0.0,0.0,0.0,0.0,0.0,0.0,0.0,0.0,0.0,0.0,0.0,0.0,0.0,0.0,0.0,0.0,0.0,0.0,0.0,0.0,0.0,0.0,0.0,0.0,0.0,-5.3653,-5.58,-5.657,-5.7869,-5.9953,-6.134,-6.1216,0.0,0.0,0.0,0.0,0.0,0.0,0.0,0.0,0.0,0.0,0.0,0.0,0.0,0.0,0.0,0.0,0.0,0.0,0.0,0.0,0.0,0.0,0.0,0.0,0.0,0.0,0.0,0.0,0.0,0.0,0.0,0.0,0.0,0.0,0.0,0.0,0.0,0.0,0.0,0.0,0.0,0.0,0.0,0.0,0.0,0.0,0.0,0.0,0.0,0.0,0.0,0.0,0.0,0.0,0.0,0.0,0.0,0.0,0.0,0.0,0.0,0.0,0.0,0.0,0.0,0.0,0.0,0.0,0.0,0.0,0.0,0.0,0.0,0.0,0.0,0.0,0.0,0.0,0.0,0.0,0.0,0.0,0.0,0.0,0.0,0.0,0.0,0.0,0.0,0.0,0.0,0.0,0.0,0.0,0.0,0.0,0.0,0.0,0.0,0.0,0.0,0.0,0.0,0.0,0.0,0.0,0.0,0.0,-5.3864,-5.5514,-5.6585,-5.774,-5.9142,-5.9507,-5.9438,0.0,0.0,0.0,0.0,0.0,0.0,0.0,0.0,0.0,0.0,0.0,0.0,0.0,0.0,0.0,0.0,0.0,0.0,0.0,0.0,0.0,0.0,0.0,0.0,0.0,0.0,0.0,0.0,0.0,0.0,0.0,0.0,0.0,0.0,0.0,0.0,0.0,0.0,0.0,0.0,0.0,0.0,0.0,0.0,0.0,0.0,0.0,0.0,-7.2816,0.0,0.0,0.0,0.0,0.0,0.0,0.0,0.0,0.0,0.0,0.0,0.0,0.0,0.0,0.0,0.0,0.0,0.0,0.0,0.0,0.0,0.0,0.0,0.0,0.0,0.0,0.0,0.0,0.0,0.0,0.0,0.0,0.0,0.0,0.0,0.0,0.0,0.0,0.0,0.0,0.0,0.0,0.0,0.0,0.0,0.0,0.0,0.0,0.0,0.0,0.0,0.0,0.0,0.0,0.0,0.0,0.0,0.0,0.0,-5.4237,-5.6956,-5.6701,-5.7859,-6.0473,-5.8975,-5.7849,0.0,0.0,0.0,0.0,0.0,0.0,0.0,0.0,0.0,0.0,0.0,0.0,0.0,0.0,0.0,0.0,0.0,0.0,0.0,0.0,0.0,0.0,0.0,0.0,0.0,0.0,0.0,0.0,0.0,0.0,0.0,0.0,0.0,0.0,0.0,0.0,0.0,0.0,0.0,0.0,0.0,0.0,0.0,0.0,0.0,0.0,0.0,0.0,0.0,0.0,0.0,0.0,0.0,0.0,0.0,0.0,0.0,0.0,0.0,0.0,0.0,0.0,0.0,0.0,0.0,0.0,0.0,0.0,0.0,0.0,0.0,0.0,0.0,0.0,0.0,0.0,0.0,0.0,0.0,0.0,0.0,0.0,0.0,0.0,0.0,0.0,0.0,0.0,0.0,0.0,0.0,0.0,0.0,0.0,0.0,0.0,0.0,0.0,0.0,0.0,0.0,0.0,0.0,0.0,0.0,0.0,0.0,0.0,-5.4746,-5.6727,-5.741,-5.8217,-5.9097,-5.7342,-5.5747,0.0,0.0,0.0,0.0,0.0,0.0,0.0,0.0,0.0,0.0,0.0,0.0,0.0,0.0,0.0,0.0,0.0,0.0,0.0,0.0,0.0,0.0,0.0,0.0,0.0,0.0,0.0,0.0,0.0,0.0,0.0,0.0,0.0,0.0,0.0,0.0,0.0,0.0,0.0,0.0,0.0,0.0,0.0,0.0,0.0,0.0,0.0,0.0,0.0,0.0,0.0,0.0,0.0,0.0,0.0,0.0,0.0,0.0,0.0,0.0,0.0,0.0,0.0,0.0,0.0,0.0,0.0,0.0,0.0,0.0,0.0,0.0,0.0,0.0,0.0,0.0,0.0,0.0,0.0,0.0,0.0,0.0,0.0,0.0,0.0,0.0,0.0,0.0,0.0,0.0,0.0,0.0,0.0,0.0,0.0,0.0,0.0,0.0,0.0,0.0,0.0,0.0,0.0,0.0,0.0,0.0,0.0,0.0,0.0,-5.6221,-5.7277,-5.7864,-5.7987,-5.5747,-5.4125,0.0,0.0,0.0,0.0,0.0,0.0,0.0,0.0,0.0,0.0,0.0,0.0,0.0,0.0,0.0,0.0,0.0,0.0,0.0,0.0,0.0,0.0,0.0,0.0,0.0,0.0,0.0,0.0,0.0,0.0,0.0,0.0,0.0,0.0,0.0,0.0,0.0,0.0,0.0,0.0,0.0,0.0,0.0,0.0,0.0,0.0,0.0,0.0,0.0,0.0,0.0,0.0,0.0,0.0,0.0,0.0,0.0,0.0,0.0,0.0,0.0,0.0,0.0,0.0,0.0,0.0,0.0,0.0,0.0,0.0,0.0,0.0,0.0,0.0,0.0,0.0,0.0,0.0,0.0,0.0,0.0,0.0,0.0,0.0,0.0,0.0,0.0,0.0,0.0,0.0,0.0,0.0,0.0,0.0,0.0,0.0,0.0,0.0,0.0,0.0,0.0,0.0,0.0,0.0,0.0,0.0,0.0,0.0,0.0,-5.5271,-5.5337,-5.6369,-5.8489,-5.4728,-5.2882,0.0,0.0,0.0,0.0,0.0,0.0,0.0,0.0,0.0,0.0,0.0,0.0,0.0,0.0,0.0,0.0,0.0,0.0,0.0,0.0,0.0,0.0,0.0,0.0,0.0,0.0,0.0,0.0,0.0,0.0,0.0,0.0,0.0,0.0,0.0,0.0,0.0,0.0,0.0,0.0,0.0,0.0,0.0,0.0,0.0,0.0,0.0,0.0,0.0,0.0,0.0,0.0,0.0,0.0,0.0,0.0,0.0,0.0,0.0,0.0,0.0,0.0,0.0,0.0,0.0,0.0,0.0,0.0,0.0,0.0,0.0,0.0,0.0,0.0,0.0,0.0,0.0,0.0,0.0,0.0,0.0,0.0,0.0,0.0,0.0,0.0,0.0,0.0,0.0,0.0,0.0,0.0,0.0,0.0,0.0,0.0,0.0,0.0,0.0,0.0,0.0,0.0,0.0,0.0,0.0,0.0,0.0,0.0,0.0,-5.4358,-5.579,-5.6379,-5.6025,-5.3954,-5.2523,-5.1564,0.0,0.0,0.0,0.0,0.0,0.0,0.0,0.0,0.0,0.0,0.0,0.0,0.0,0.0,0.0,0.0,0.0,0.0,0.0,0.0,0.0,0.0,0.0,0.0,0.0,0.0,0.0,0.0,0.0,0.0,0.0,0.0,0.0,0.0,0.0,0.0,0.0,0.0,0.0,0.0,0.0,0.0,0.0,0.0,0.0,0.0,0.0,0.0,0.0,0.0,0.0,0.0,0.0,0.0,0.0,0.0,0.0,0.0,0.0,0.0,0.0,0.0,0.0,0.0,0.0,0.0,0.0,0.0,0.0,0.0,0.0,0.0,0.0,0.0,0.0,0.0,0.0,0.0,0.0,0.0,0.0,0.0,0.0,0.0,0.0,0.0,0.0,0.0,0.0,0.0,0.0,0.0,0.0,0.0,0.0,0.0,0.0,0.0,0.0,0.0,0.0,0.0,0.0,0.0,0.0,0.0,0.0,0.0,-5.4189,-5.4786,-5.4988,-5.4383,-5.3119,-5.1719,0.0,0.0,0.0,0.0,0.0,0.0,0.0,0.0,0.0,0.0,0.0,0.0,0.0,0.0,0.0,0.0,0.0,0.0,0.0,0.0,0.0,0.0,0.0,0.0,0.0,0.0,0.0,0.0,0.0,0.0,0.0,0.0,0.0,0.0,0.0,0.0,0.0,0.0,0.0,0.0,0.0,0.0,0.0,0.0,0.0,0.0,0.0,0.0,0.0,0.0,0.0,0.0,0.0,0.0,0.0,0.0,0.0,0.0,0.0,0.0,0.0,0.0,0.0,0.0,0.0,0.0,0.0,0.0,0.0,0.0,0.0,0.0,0.0,0.0,0.0,0.0,0.0,0.0,0.0,0.0,0.0,0.0,0.0,0.0,0.0,0.0,0.0,0.0,0.0,0.0,0.0,0.0,0.0,0.0,0.0,0.0,0.0,0.0,0.0,0.0,0.0,0.0,0.0,0.0,0.0,0.0,0.0,0.0,-5.421,-5.4964,-5.2205,-5.2075,-5.4482,-5.1838,-5.0391,0.0,0.0,0.0,0.0,0.0,0.0,0.0,0.0,0.0,0.0,0.0,0.0,0.0,0.0,0.0,0.0,0.0,0.0,0.0,0.0,0.0,0.0,0.0,0.0,0.0,0.0,0.0,0.0,0.0,0.0,0.0,0.0,0.0,0.0,0.0,0.0,0.0,0.0,0.0,0.0,0.0,0.0,0.0,0.0,0.0,0.0,0.0,0.0,0.0,0.0,0.0,0.0,0.0,0.0,0.0,0.0,0.0,0.0,0.0,0.0,0.0,0.0,0.0,0.0,0.0,0.0,0.0,0.0,0.0,0.0,0.0,0.0,0.0,0.0,0.0,0.0,0.0,0.0,0.0,0.0,0.0,0.0,0.0,0.0,0.0,0.0,0.0,0.0,0.0,0.0,0.0,0.0,0.0,0.0,0.0,0.0,0.0,0.0,0.0,0.0,0.0,0.0,0.0,0.0,0.0,0.0,0.0,0.0,0.0,-5.2739,0.0,-5.2391,0.0,-5.1817,-5.0877,0.0,0.0,0.0,0.0,0.0,0.0,0.0,0.0,0.0,0.0,0.0,0.0,0.0,0.0,0.0,0.0,0.0,0.0,0.0,0.0,0.0,0.0,0.0,0.0,0.0,0.0,0.0,0.0,0.0,0.0,0.0,0.0,0.0,0.0,0.0,0.0,0.0,0.0,0.0,0.0,0.0,0.0,0.0,0.0,0.0,0.0,0.0,0.0,0.0,0.0,0.0,0.0,0.0,0.0,0.0,0.0,0.0,0.0,0.0,0.0,0.0,0.0,0.0,0.0,0.0,0.0,0.0,0.0,0.0,0.0,0.0,0.0,0.0,0.0,0.0,0.0,0.0,0.0,0.0,0.0,0.0,0.0,0.0,0.0,0.0,0.0,0.0,0.0,0.0,0.0,0.0,0.0,0.0,0.0,0.0,0.0,0.0,0.0,0.0,0.0,0.0,0.0,0.0,0.0,0.0,0.0,0.0,0.0,0.0,-5.1802,-5.2307,-5.2506,-5.2542,-5.1156,-5.0519,0.0,0.0,0.0,0.0,0.0,0.0,0.0,0.0,0.0,0.0,0.0,0.0,0.0,0.0,0.0,0.0,0.0,0.0,0.0,0.0,0.0,0.0,0.0,0.0,0.0,0.0,0.0,0.0,0.0,0.0,0.0,0.0,0.0,0.0,0.0,0.0,0.0,0.0,0.0,0.0,0.0,0.0,0.0,0.0,0.0,0.0,0.0,0.0,0.0,0.0,0.0,0.0,0.0,0.0,0.0,0.0,0.0,0.0,0.0,0.0,0.0,0.0,0.0,0.0,0.0,0.0,0.0,0.0,0.0,0.0,0.0,0.0,0.0,0.0,0.0,0.0,0.0,0.0,0.0,0.0,0.0,0.0,0.0,0.0,0.0,0.0,0.0,0.0,0.0,0.0,0.0,0.0,0.0,0.0,0.0,0.0,0.0,0.0,0.0,0.0,0.0,0.0,0.0,0.0,0.0,0.0,0.0,0.0,0.0,0.0,-5.2078,-5.2172,-5.1805,-4.9948,-4.9501,0.0,0.0,0.0,0.0,0.0,0.0,0.0,0.0,0.0,0.0,0.0,0.0,0.0,0.0,0.0,0.0,0.0,0.0,0.0,0.0,0.0,0.0,0.0,0.0,0.0,0.0,0.0,0.0,0.0,0.0,0.0,0.0,0.0,0.0,0.0,0.0,0.0,0.0,0.0,0.0,0.0,0.0,0.0,0.0,0.0,0.0,0.0,0.0,0.0,0.0,0.0,0.0,0.0,0.0,0.0,0.0,0.0,0.0,0.0,0.0,0.0,0.0,0.0,0.0,0.0,0.0,0.0,0.0,0.0,0.0,0.0,0.0,0.0,0.0,0.0,0.0,0.0,0.0,0.0,0.0,0.0,0.0,0.0,0.0,0.0,0.0,0.0,0.0,0.0,0.0,0.0,0.0,0.0,0.0,0.0,0.0,0.0,0.0,0.0,0.0,0.0,0.0,0.0,0.0,0.0,0.0,0.0,0.0,0.0,0.0,-5.1024,0.0,-5.0334,-4.9523,-4.9354,-5.0329,0.0,0.0,0.0,0.0,0.0,0.0,0.0,0.0,0.0,0.0,0.0,0.0,0.0,0.0,0.0,0.0,0.0,0.0,0.0,0.0,0.0,0.0,0.0,0.0,0.0,0.0,0.0,0.0,0.0,0.0,0.0,0.0,0.0,0.0,0.0,0.0,0.0,0.0,0.0,0.0,0.0,0.0,0.0,0.0,0.0,0.0,0.0,0.0,0.0,0.0,0.0,0.0,0.0,0.0,0.0,0.0,0.0,0.0,0.0,0.0,0.0,0.0,0.0,0.0,0.0,0.0,0.0,0.0,0.0,0.0,0.0,0.0,0.0,0.0,0.0,0.0,0.0,0.0,0.0,0.0,0.0,0.0,0.0,0.0,0.0,0.0,0.0,0.0,0.0,0.0,0.0,0.0,0.0,0.0,0.0,0.0,0.0,0.0,0.0,0.0,0.0,0.0,0.0,0.0,0.0,0.0,0.0,0.0,0.0,0.0,0.0,-5.027,-5.0083,-5.0167,0.0,0.0,0.0,0.0,0.0,0.0,0.0,0.0,0.0,0.0,0.0,0.0,0.0,0.0,0.0,0.0,0.0,0.0,0.0,0.0,0.0,0.0,0.0,0.0,0.0,0.0,0.0,0.0,0.0,0.0,0.0,0.0,0.0,0.0,0.0,0.0,0.0,0.0,0.0,0.0,0.0,0.0,0.0,0.0,0.0,0.0,0.0,0.0,0.0,0.0,0.0,0.0,0.0,0.0,0.0,0.0,0.0,0.0,0.0,0.0,0.0,0.0,0.0,0.0,0.0,0.0,0.0,0.0,0.0,0.0,0.0,0.0,0.0,0.0,0.0,0.0,0.0,0.0,0.0,0.0,0.0,0.0,0.0,0.0,0.0,0.0,0.0,0.0,0.0,0.0,0.0,0.0,0.0,0.0,0.0,0.0,0.0,0.0,0.0,0.0,0.0,0.0,0.0,0.0,0.0,0.0,0.0,0.0,0.0,0.0,0.0,-5.0268,-5.1087,-5.1108,0.0,-5.1422,0.0,0.0,0.0,0.0,0.0,0.0,0.0,0.0,0.0,0.0,0.0,0.0,0.0,0.0,0.0,0.0,0.0,0.0,0.0,0.0,0.0,0.0,0.0,0.0,0.0,0.0,0.0,0.0,0.0,0.0,0.0,0.0,0.0,0.0,0.0,0.0,0.0,0.0,0.0,0.0,0.0,0.0,0.0,0.0,0.0,0.0,0.0,0.0,0.0,0.0,0.0,0.0,0.0,0.0,0.0,0.0,0.0,0.0,0.0,0.0,0.0,0.0,0.0,0.0,0.0,0.0,0.0,0.0,0.0,0.0,0.0,0.0,0.0,0.0,0.0,0.0,0.0,0.0,0.0,0.0,0.0,0.0,0.0,0.0,0.0,0.0,0.0,0.0,0.0,0.0,0.0,0.0,0.0,0.0,0.0,0.0,0.0,0.0,0.0,0.0,0.0,0.0,0.0,0.0,0.0,0.0,0.0,0.0,0.0,0.0,0.0,0.0,-5.0512,-5.0491,-5.0162,0.0,0.0,0.0,0.0,0.0,0.0,0.0,0.0,0.0,0.0,0.0,0.0,0.0,0.0,0.0,0.0,0.0,0.0,0.0,0.0,0.0,0.0,0.0,0.0,0.0,0.0,0.0,0.0,0.0,0.0,0.0,0.0,0.0,0.0,0.0,0.0,0.0,0.0,0.0,0.0,0.0,0.0,0.0,0.0,0.0,0.0,0.0,0.0,0.0,0.0,0.0,0.0,0.0,0.0,0.0,0.0,0.0,0.0,0.0,0.0,0.0,0.0,0.0,0.0,0.0,0.0,0.0,0.0,0.0,0.0,0.0,0.0,0.0,0.0,0.0,0.0,0.0,0.0,0.0,0.0,0.0,0.0,0.0,0.0,0.0,0.0,0.0,0.0,0.0,0.0,0.0,0.0,0.0,0.0,0.0,0.0,0.0,0.0,0.0,0.0,0.0,0.0,0.0,0.0,0.0,0.0,0.0,0.0,0.0,0.0,-5.0683,-5.0174,-5.0597,-5.0453,-4.954,0.0,0.0,0.0,0.0,0.0,0.0,0.0,0.0,0.0,0.0,0.0,0.0,0.0,0.0,0.0,0.0,0.0,0.0,0.0,0.0,0.0,0.0,0.0,0.0,0.0,0.0,0.0,0.0,0.0,0.0,0.0,0.0,0.0,0.0,0.0,0.0,0.0,0.0,0.0,0.0,0.0,0.0,0.0,0.0,0.0,0.0,0.0,0.0,0.0,0.0,0.0,0.0,0.0,0.0,0.0,0.0,0.0,0.0,0.0,0.0,0.0,0.0,0.0,0.0,0.0,0.0,0.0,0.0,0.0,0.0,0.0,0.0,0.0,0.0,0.0,0.0,0.0,0.0,0.0,0.0,0.0,0.0,0.0,0.0,0.0,0.0,0.0,0.0,0.0,0.0,0.0,0.0,0.0,0.0,0.0,0.0,0.0,0.0,0.0,0.0,0.0,0.0,0.0,0.0,0.0,0.0,0.0,0.0,0.0,0.0,0.0,0.0,0.0,0.0,-4.9191,0.0,0.0,0.0,0.0,0.0,0.0,0.0,0.0,0.0,0.0,0.0,0.0,0.0,0.0,0.0,0.0,0.0,0.0,0.0,0.0,0.0,0.0,0.0,0.0,0.0,0.0,0.0,0.0,0.0,0.0,0.0,0.0,0.0,0.0,0.0,0.0,0.0,0.0,0.0,0.0,0.0,0.0,0.0,0.0,0.0,0.0,0.0,0.0,0.0,0.0,0.0,0.0,0.0,0.0,0.0,0.0,0.0,0.0,0.0,0.0,0.0,0.0,0.0,0.0,0.0,0.0,0.0,0.0,0.0,0.0,0.0,0.0,0.0,0.0,0.0,0.0,0.0,0.0,0.0,0.0,0.0,0.0,0.0,0.0,0.0,0.0,0.0,0.0,0.0,0.0,0.0,0.0,0.0,0.0,0.0,0.0,0.0,0.0,0.0,0.0,0.0,0.0,0.0,0.0,0.0,0.0,0.0,0.0,0.0,0.0,0.0,0.0,0.0,0.0,0.0,0.0,0.0,0.0,0.0,0.0,0.0,0.0,0.0,0.0,0.0,0.0,0.0,0.0,0.0,0.0,0.0,0.0,0.0,0.0,0.0,0.0,0.0,0.0,0.0,0.0,0.0,0.0,0.0,0.0,0.0,0.0,0.0,0.0,0.0,0.0,0.0,0.0,0.0,0.0,0.0,0.0,0.0,0.0,0.0,0.0,0.0,0.0,0.0,0.0,0.0,0.0,0.0,0.0,0.0,0.0,0.0,0.0,0.0,0.0,0.0,0.0,0.0,0.0,0.0,0.0,0.0,0.0,0.0,0.0,0.0,0.0,0.0,0.0,0.0,0.0,0.0,0.0,0.0,0.0,0.0,0.0,0.0,0.0,0.0,0.0,0.0,0.0,0.0,0.0,0.0,0.0,0.0,0.0,0.0,0.0,0.0,0.0,0.0,0.0,0.0,0.0,0.0,0.0,0.0,0.0,0.0,0.0,0.0,0.0,0.0,0.0,0.0,0.0,0.0,0.0,0.0,0.0,0.0,0.0,0.0,0.0,0.0,0.0,0.0,0.0,0.0,0.0,0.0,0.0,0.0,0.0,0.0,0.0,0.0,0.0,0.0,0.0,0.0,0.0,0.0,0.0,0.0,0.0,0.0,0.0,0.0,0.0,0.0,0.0,0.0,0.0,0.0,0.0,0.0,0.0,0.0,0.0,0.0,0.0,0.0,0.0,0.0,0.0,0.0,0.0,0.0,0.0,0.0,0.0,0.0,0.0,0.0,0.0,0.0,0.0,0.0,0.0,0.0,0.0,0.0,0.0,0.0,0.0,0.0,0.0,0.0,0.0,0.0,0.0,0.0,0.0,0.0,0.0,0.0,0.0,0.0,0.0,0.0,0.0,0.0,0.0,0.0,0.0,0.0,0.0,0.0,0.0,0.0,0.0,0.0,0.0,0.0,0.0,0.0,0.0,0.0,0.0,0.0,0.0,0.0,0.0,0.0,0.0,0.0,0.0,0.0,0.0,0.0,0.0,0.0,0.0,0.0,0.0,0.0,0.0,0.0,0.0,0.0,0.0,0.0,0.0,0.0,0.0,0.0,0.0,0.0,0.0,0.0,0.0,0.0,0.0,0.0,0.0,0.0,0.0,0.0,0.0,0.0,0.0,0.0,0.0,0.0,0.0,0.0,0.0,0.0,0.0,0.0,0.0,0.0,0.0,0.0,0.0,0.0,0.0,0.0,0.0,0.0,0.0,0.0,0.0,0.0,0.0,0.0,0.0,0.0,0.0,0.0,0.0,0.0,0.0,0.0,0.0,0.0,0.0,0.0,0.0,0.0,0.0,0.0,0.0,0.0,0.0,0.0,0.0,0.0,0.0,0.0,0.0,0.0,0.0,0.0,0.0,0.0,0.0,0.0,0.0,0.0,0.0,0.0,0.0,0.0,0.0,0.0,0.0,0.0,0.0,0.0,0.0,0.0,0.0,0.0,0.0,0.0,0.0,0.0,0.0,0.0,0.0,0.0,0.0,0.0,0.0,0.0,0.0,0.0,0.0,0.0,0.0,0.0,0.0,0.0,0.0,0.0,0.0,0.0,0.0,0.0,0.0,0.0,0.0,0.0,0.0,0.0,0.0,0.0,0.0,0.0,0.0,0.0,0.0,0.0,0.0,0.0,0.0,0.0,0.0,0.0,0.0,0.0,0.0,0.0,0.0,0.0,0.0,0.0,0.0,0.0,0.0,0.0,0.0,0.0,0.0,0.0,0.0,0.0,0.0,0.0,0.0,0.0,0.0,0.0,0.0,0.0,0.0,0.0,0.0,0.0,0.0,0.0,0.0,0.0,0.0,0.0,0.0,0.0,0.0,0.0,0.0,0.0,0.0,0.0,0.0,0.0,0.0,0.0,0.0,0.0,0.0,0.0,0.0,0.0,0.0,0.0,0.0,0.0,0.0,0.0,0.0,0.0,0.0,0.0,0.0,0.0,0.0,0.0,0.0,0.0,0.0,0.0,0.0,0.0,0.0,0.0,0.0,0.0,0.0,0.0,0.0,0.0,0.0,0.0,0.0,0.0,0.0,0.0,0.0,0.0,0.0,0.0,0.0,0.0,0.0,0.0,0.0,0.0,0.0,0.0,0.0,0.0,0.0,0.0,0.0,0.0,0.0,0.0,0.0,0.0,0.0,0.0,0.0,0.0,0.0,0.0,0.0,0.0,0.0,0.0,0.0,0.0,0.0,0.0,0.0,0.0,0.0,0.0,0.0,0.0,0.0,0.0,0.0,0.0,0.0,0.0,0.0,0.0,0.0,0.0,0.0,0.0,0.0,0.0,0.0,0.0,0.0,0.0,0.0,0.0,0.0,0.0,0.0,0.0,0.0,0.0,0.0,0.0,0.0,0.0,0.0,0.0,0.0,0.0,0.0,0.0,0.0,0.0,0.0,0.0,0.0,0.0,0.0,0.0,0.0,0.0,0.0,0.0,0.0,0.0,0.0,0.0,0.0,0.0,0.0,0.0,0.0,0.0,0.0,0.0,0.0,0.0,0.0,0.0,0.0,0.0,0.0,0.0,0.0,0.0,0.0,0.0,0.0,0.0,0.0,0.0,0.0,0.0,0.0,0.0,0.0,0.0,0.0,0.0,0.0,0.0,0.0,0.0,0.0,0.0,0.0,0.0,0.0,0.0,0.0,0.0,0.0,0.0,0.0,0.0,0.0,0.0,0.0,0.0,0.0,0.0,0.0,0.0,0.0,0.0,0.0,0.0,0.0,0.0,0.0,0.0,0.0,0.0,0.0,0.0,0.0,0.0,0.0,0.0,0.0,0.0,0.0,0.0,0.0,0.0,0.0,0.0,0.0,0.0,0.0,0.0,0.0,0.0,0.0,0.0,0.0,0.0,0.0,0.0,0.0,0.0,0.0,0.0,0.0,0.0,0.0,0.0,0.0,0.0,0.0,0.0,0.0,0.0,0.0,0.0,0.0,0.0,0.0,0.0,0.0,0.0,0.0,0.0,0.0,0.0,0.0,0.0,0.0,0.0,0.0,0.0,0.0,0.0,0.0,0.0,0.0,0.0,0.0,0.0,0.0,0.0,0.0,0.0,0.0,0.0,0.0,0.0,0.0,0.0,0.0,0.0,0.0,0.0,0.0,0.0,0.0,0.0,0.0,0.0,0.0,0.0,0.0,0.0,0.0,0.0,0.0,0.0,0.0,0.0,0.0,0.0,0.0,0.0,0.0,0.0,0.0,0.0,0.0,0.0,0.0,0.0,0.0,0.0,0.0,0.0,0.0,0.0,0.0,0.0,0.0,0.0,0.0,0.0,0.0,0.0,0.0,0.0,0.0,0.0,0.0,0.0,0.0,0.0,0.0,0.0,0.0,0.0,0.0,0.0,0.0,0.0,0.0,0.0,0.0,0.0,0.0,0.0,0.0,0.0,0.0,0.0,0.0,0.0,0.0,0.0,0.0,0.0,0.0,0.0,0.0,0.0,0.0,0.0,0.0,0.0,0.0,0.0,0.0,0.0,0.0,0.0,0.0,0.0,0.0,0.0,0.0,0.0,0.0,0.0,0.0,0.0,0.0,0.0,0.0,0.0,0.0,0.0,0.0,0.0,0.0,0.0,0.0,0.0,0.0,0.0,0.0,0.0,0.0,0.0,0.0,0.0,0.0,0.0,0.0,0.0,0.0,0.0,0.0,0.0,0.0,0.0,0.0,0.0,0.0,0.0,0.0,0.0,0.0,0.0,0.0,0.0,0.0,0.0,0.0,0.0,0.0,0.0,0.0,0.0,0.0,0.0,0.0,0.0,0.0,0.0,0.0,0.0,0.0,0.0,0.0,0.0,0.0,0.0,0.0,0.0,0.0,0.0,0.0,0.0,0.0]}]]]